Time,TemperatureF,DewpointF,PressureIn,WindDirection,WindDirectionDegrees,WindSpeedMPH,WindSpeedGustMPH,Humidity,HourlyPrecipIn,Conditions,Clouds,dailyrainin,SoftwareType,DateUTC
2013-10-09 00:00:00,57.8,54.3,30.05,NE,38,0.0,12.0,88,0.00,,---,0.03,VWS V14.01,2013-10-09 04:00:00,
2013-10-09 00:01:00,57.8,54.3,30.05,NE,34,1.0,2.0,88,0.00,,---,0.00,VWS V14.01,2013-10-09 04:01:00,
2013-10-09 00:02:00,57.8,54.0,30.05,North,0,2.0,5.0,87,0.00,,---,0.00,VWS V14.01,2013-10-09 04:02:00,
2013-10-09 00:03:00,57.8,54.0,30.05,NNE,30,8.0,8.0,87,0.00,,---,0.00,VWS V14.01,2013-10-09 04:03:00,
2013-10-09 00:04:00,58.0,54.5,30.05,NE,35,2.0,8.0,88,0.00,,---,0.00,VWS V14.01,2013-10-09 04:04:00,
2013-10-09 00:05:00,58.0,54.5,30.05,NNE,18,2.0,8.0,88,0.00,,---,0.00,VWS V14.01,2013-10-09 04:05:00,
2013-10-09 00:06:00,58.0,54.2,30.05,NNE,17,5.0,8.0,87,0.00,,---,0.00,VWS V14.01,2013-10-09 04:06:00,
2013-10-09 00:07:00,58.0,54.2,30.05,NNE,17,2.0,8.0,87,0.00,,---,0.00,VWS V14.01,2013-10-09 04:07:00,
2013-10-09 00:08:00,58.0,54.2,30.05,North,10,2.0,8.0,87,0.00,,---,0.00,VWS V14.01,2013-10-09 04:08:00,
2013-10-09 00:09:00,58.0,54.5,30.05,North,10,3.0,8.0,88,0.00,,---,0.00,VWS V14.01,2013-10-09 04:09:00,
2013-10-09 00:10:00,58.0,54.5,30.05,NNE,21,1.0,8.0,88,0.00,,---,0.00,VWS V14.01,2013-10-09 04:10:00,
2013-10-09 00:11:00,58.0,54.5,30.05,ENE,58,3.0,5.0,88,0.00,,---,0.00,VWS V14.01,2013-10-09 04:11:00,
2013-10-09 00:12:00,58.0,54.5,30.05,NNE,14,2.0,5.0,88,0.00,,---,0.00,VWS V14.01,2013-10-09 04:12:00,
2013-10-09 00:13:00,58.0,54.5,30.05,North,0,5.0,6.0,88,0.00,,---,0.00,VWS V14.01,2013-10-09 04:13:00,
2013-10-09 00:14:00,58.0,54.5,30.05,NNE,30,5.0,6.0,88,0.00,,---,0.00,VWS V14.01,2013-10-09 04:14:00,
2013-10-09 00:15:00,58.0,54.5,30.04,North,0,3.0,6.0,88,0.00,,---,0.00,VWS V14.01,2013-10-09 04:15:00,
2013-10-09 00:16:00,58.0,54.5,30.04,NNE,14,5.0,8.0,88,0.00,,---,0.00,VWS V14.01,2013-10-09 04:16:00,
2013-10-09 00:17:00,58.0,54.2,30.04,WNW,301,2.0,8.0,87,0.00,,---,0.00,VWS V14.01,2013-10-09 04:17:00,
2013-10-09 00:18:00,58.0,54.2,30.04,North,6,0.0,8.0,87,0.00,,---,0.00,VWS V14.01,2013-10-09 04:18:00,
2013-10-09 00:19:00,58.0,54.5,30.04,West,280,0.0,8.0,88,0.00,,---,0.00,VWS V14.01,2013-10-09 04:19:00,
2013-10-09 00:20:00,58.0,54.5,30.04,North,4,2.0,8.0,88,0.00,,---,0.00,VWS V14.01,2013-10-09 04:20:00,
2013-10-09 00:21:00,58.1,54.6,30.04,NE,56,0.0,2.0,88,0.00,,---,0.00,VWS V14.01,2013-10-09 04:21:00,
2013-10-09 00:22:00,58.1,54.6,30.04,NE,42,2.0,4.0,88,0.00,,---,0.00,VWS V14.01,2013-10-09 04:22:00,
2013-10-09 00:23:00,58.1,54.6,30.04,NE,38,4.0,6.0,88,0.00,,---,0.00,VWS V14.01,2013-10-09 04:23:00,
2013-10-09 00:24:00,58.1,54.6,30.04,North,11,0.0,6.0,88,0.00,,---,0.00,VWS V14.01,2013-10-09 04:24:00,
2013-10-09 00:25:00,58.1,54.6,30.04,NNE,31,6.0,6.0,88,0.00,,---,0.00,VWS V14.01,2013-10-09 04:25:00,
2013-10-09 00:26:00,58.1,54.6,30.04,NE,42,2.0,8.0,88,0.00,,---,0.00,VWS V14.01,2013-10-09 04:26:00,
2013-10-09 00:27:00,58.1,54.6,30.04,NE,47,3.0,8.0,88,0.00,,---,0.00,VWS V14.01,2013-10-09 04:27:00,
2013-10-09 00:28:00,58.1,54.3,30.04,North,0,6.0,11.0,87,0.00,,---,0.00,VWS V14.01,2013-10-09 04:28:00,
2013-10-09 00:29:00,58.1,54.6,30.04,NNE,14,8.0,11.0,88,0.00,,---,0.00,VWS V14.01,2013-10-09 04:29:00,
2013-10-09 00:30:00,58.1,54.3,30.03,NNE,31,3.0,11.0,87,0.00,,---,0.00,VWS V14.01,2013-10-09 04:30:00,
2013-10-09 00:31:00,58.1,54.3,30.03,North,0,2.0,8.0,87,0.00,,---,0.00,VWS V14.01,2013-10-09 04:31:00,
2013-10-09 00:32:00,58.1,54.3,30.03,NE,37,6.0,8.0,87,0.00,,---,0.00,VWS V14.01,2013-10-09 04:32:00,
2013-10-09 00:33:00,58.1,54.3,30.03,NE,34,2.0,9.0,87,0.00,,---,0.00,VWS V14.01,2013-10-09 04:33:00,
2013-10-09 00:34:00,58.1,54.3,30.03,NNE,27,2.0,9.0,87,0.00,,---,0.00,VWS V14.01,2013-10-09 04:34:00,
2013-10-09 00:35:00,58.1,54.3,30.03,NE,51,7.0,9.0,87,0.00,,---,0.00,VWS V14.01,2013-10-09 04:35:00,
2013-10-09 00:36:00,58.1,54.3,30.03,North,0,3.0,9.0,87,0.00,,---,0.00,VWS V14.01,2013-10-09 04:36:00,
2013-10-09 00:37:00,58.1,54.3,30.03,NE,37,2.0,9.0,87,0.00,,---,0.00,VWS V14.01,2013-10-09 04:37:00,
2013-10-09 00:38:00,58.3,54.5,30.03,NNE,14,1.0,9.0,87,0.00,,---,0.00,VWS V14.01,2013-10-09 04:38:00,
2013-10-09 00:39:00,58.3,54.5,30.03,SSE,148,2.0,9.0,87,0.00,,---,0.00,VWS V14.01,2013-10-09 04:39:00,
2013-10-09 00:40:00,58.3,54.5,30.03,ENE,72,1.0,9.0,87,0.00,,---,0.00,VWS V14.01,2013-10-09 04:40:00,
2013-10-09 00:41:00,58.3,54.8,30.03,NE,34,0.0,3.0,88,0.00,,---,0.00,VWS V14.01,2013-10-09 04:41:00,
2013-10-09 00:42:00,58.3,54.8,30.03,North,354,0.0,3.0,88,0.00,,---,0.00,VWS V14.01,2013-10-09 04:42:00,
2013-10-09 00:43:00,58.3,54.8,30.03,North,11,0.0,3.0,88,0.00,,---,0.00,VWS V14.01,2013-10-09 04:43:00,
2013-10-09 00:44:00,58.3,54.8,30.03,NE,56,7.0,8.0,88,0.00,,---,0.00,VWS V14.01,2013-10-09 04:44:00,
2013-10-09 00:45:00,58.3,54.8,30.03,NNE,20,2.0,8.0,88,0.00,,---,0.00,VWS V14.01,2013-10-09 04:45:00,
2013-10-09 00:46:00,58.3,54.8,30.03,NNE,27,5.0,9.0,88,0.00,,---,0.00,VWS V14.01,2013-10-09 04:46:00,
2013-10-09 00:47:00,58.3,54.8,30.03,North,1,7.0,9.0,88,0.00,,---,0.00,VWS V14.01,2013-10-09 04:47:00,
2013-10-09 00:48:00,58.3,54.5,30.03,NNE,21,3.0,9.0,87,0.00,,---,0.00,VWS V14.01,2013-10-09 04:48:00,
2013-10-09 00:49:00,58.3,54.5,30.03,NE,34,2.0,9.0,87,0.00,,---,0.00,VWS V14.01,2013-10-09 04:49:00,
2013-10-09 00:50:00,58.3,54.8,30.03,North,0,4.0,9.0,88,0.00,,---,0.00,VWS V14.01,2013-10-09 04:50:00,
2013-10-09 00:51:00,58.3,54.5,30.03,North,0,5.0,5.0,87,0.00,,---,0.00,VWS V14.01,2013-10-09 04:51:00,
2013-10-09 00:52:00,58.3,54.5,30.03,NNE,27,1.0,8.0,87,0.00,,---,0.00,VWS V14.01,2013-10-09 04:52:00,
2013-10-09 00:53:00,58.3,54.5,30.03,ENE,71,2.0,8.0,87,0.00,,---,0.00,VWS V14.01,2013-10-09 04:53:00,
2013-10-09 00:54:00,58.3,54.8,30.03,North,1,2.0,9.0,88,0.00,,---,0.00,VWS V14.01,2013-10-09 04:54:00,
2013-10-09 00:55:00,58.3,54.5,30.03,North,10,8.0,9.0,87,0.00,,---,0.00,VWS V14.01,2013-10-09 04:55:00,
2013-10-09 00:56:00,58.3,54.5,30.03,NNE,20,5.0,9.0,87,0.00,,---,0.00,VWS V14.01,2013-10-09 04:56:00,
2013-10-09 00:57:00,58.3,54.8,30.03,ENE,73,1.0,9.0,88,0.00,,---,0.00,VWS V14.01,2013-10-09 04:57:00,
2013-10-09 00:58:00,58.3,54.8,30.03,ENE,68,2.0,9.0,88,0.00,,---,0.00,VWS V14.01,2013-10-09 04:58:00,
2013-10-09 00:59:00,58.3,54.8,30.03,NNE,14,5.0,9.0,88,0.00,,---,0.00,VWS V14.01,2013-10-09 04:59:00,
2013-10-09 01:00:00,58.3,54.5,30.03,NNE,13,6.0,9.0,87,0.00,,---,0.00,VWS V14.01,2013-10-09 05:00:00,
2013-10-09 01:01:00,58.3,54.5,30.03,ENE,69,5.0,6.0,87,0.00,,---,0.00,VWS V14.01,2013-10-09 05:01:00,
2013-10-09 01:02:00,58.4,54.5,30.03,North,11,0.0,7.0,87,0.00,,---,0.00,VWS V14.01,2013-10-09 05:02:00,
2013-10-09 01:03:00,58.4,54.9,30.03,NNE,17,3.0,7.0,88,0.00,,---,0.00,VWS V14.01,2013-10-09 05:03:00,
2013-10-09 01:04:00,58.4,54.5,30.03,NE,41,2.0,11.0,87,0.00,,---,0.00,VWS V14.01,2013-10-09 05:04:00,
2013-10-09 01:05:00,58.4,54.5,30.03,ESE,106,6.0,11.0,87,0.00,,---,0.00,VWS V14.01,2013-10-09 05:05:00,
2013-10-09 01:06:00,58.4,54.9,30.03,North,8,0.0,11.0,88,0.00,,---,0.00,VWS V14.01,2013-10-09 05:06:00,
2013-10-09 01:07:00,58.4,54.9,30.03,North,0,7.0,11.0,88,0.00,,---,0.00,VWS V14.01,2013-10-09 05:07:00,
2013-10-09 01:08:00,58.4,54.5,30.03,North,3,7.0,11.0,87,0.00,,---,0.00,VWS V14.01,2013-10-09 05:08:00,
2013-10-09 01:09:00,58.4,54.5,30.03,NE,48,9.0,14.0,87,0.00,,---,0.00,VWS V14.01,2013-10-09 05:09:00,
2013-10-09 01:10:00,58.4,54.5,30.03,North,4,1.0,14.0,87,0.00,,---,0.00,VWS V14.01,2013-10-09 05:10:00,
2013-10-09 01:11:00,58.4,54.5,30.03,NNE,25,7.0,7.0,87,0.00,,---,0.00,VWS V14.01,2013-10-09 05:11:00,
2013-10-09 01:12:00,58.4,54.5,30.03,North,6,1.0,7.0,87,0.00,,---,0.00,VWS V14.01,2013-10-09 05:12:00,
2013-10-09 01:13:00,58.4,54.5,30.03,NNE,14,6.0,10.0,87,0.00,,---,0.00,VWS V14.01,2013-10-09 05:13:00,
2013-10-09 01:14:00,58.4,54.5,30.03,NNE,32,10.0,10.0,87,0.00,,---,0.00,VWS V14.01,2013-10-09 05:14:00,
2013-10-09 01:15:00,58.4,54.9,30.03,NE,34,2.0,10.0,88,0.00,,---,0.00,VWS V14.01,2013-10-09 05:15:00,
2013-10-09 01:16:00,58.4,54.9,30.03,ENE,66,6.0,10.0,88,0.00,,---,0.00,VWS V14.01,2013-10-09 05:16:00,
2013-10-09 01:17:00,58.4,54.5,30.03,NNE,31,6.0,10.0,87,0.00,,---,0.00,VWS V14.01,2013-10-09 05:17:00,
2013-10-09 01:18:00,58.4,54.5,30.03,NE,34,3.0,10.0,87,0.00,,---,0.00,VWS V14.01,2013-10-09 05:18:00,
2013-10-09 01:19:00,58.4,54.5,30.03,NNE,30,6.0,10.0,87,0.00,,---,0.00,VWS V14.01,2013-10-09 05:19:00,
2013-10-09 01:20:00,58.4,54.5,30.03,NE,44,5.0,10.0,87,0.00,,---,0.00,VWS V14.01,2013-10-09 05:20:00,
2013-10-09 01:21:00,58.4,54.5,30.03,NNE,24,1.0,6.0,87,0.00,,---,0.00,VWS V14.01,2013-10-09 05:21:00,
2013-10-09 01:22:00,58.6,54.8,30.03,NE,48,3.0,6.0,87,0.00,,---,0.00,VWS V14.01,2013-10-09 05:22:00,
2013-10-09 01:23:00,58.6,54.8,30.03,NE,42,6.0,6.0,87,0.00,,---,0.00,VWS V14.01,2013-10-09 05:23:00,
2013-10-09 01:24:00,58.6,54.8,30.03,East,100,7.0,10.0,87,0.00,,---,0.00,VWS V14.01,2013-10-09 05:24:00,
2013-10-09 01:25:00,58.6,54.8,30.03,NE,40,2.0,10.0,87,0.00,,---,0.00,VWS V14.01,2013-10-09 05:25:00,
2013-10-09 01:26:00,58.6,54.8,30.03,NNE,13,3.0,10.0,87,0.00,,---,0.00,VWS V14.01,2013-10-09 05:26:00,
2013-10-09 01:27:00,58.6,54.8,30.03,North,11,3.0,10.0,87,0.00,,---,0.00,VWS V14.01,2013-10-09 05:27:00,
2013-10-09 01:28:00,58.6,55.1,30.03,North,4,0.0,10.0,88,0.00,,---,0.00,VWS V14.01,2013-10-09 05:28:00,
2013-10-09 01:29:00,58.6,55.1,30.03,ENE,71,3.0,10.0,88,0.00,,---,0.00,VWS V14.01,2013-10-09 05:29:00,
2013-10-09 01:30:00,58.6,55.1,30.03,North,10,6.0,16.0,88,0.00,,---,0.00,VWS V14.01,2013-10-09 05:30:00,
2013-10-09 01:31:00,58.6,55.1,30.03,East,88,0.0,7.0,88,0.00,,---,0.00,VWS V14.01,2013-10-09 05:31:00,
2013-10-09 01:32:00,58.6,55.1,30.03,NE,55,0.0,7.0,88,0.00,,---,0.00,VWS V14.01,2013-10-09 05:32:00,
2013-10-09 01:33:00,58.6,55.1,30.03,ENE,71,11.0,11.0,88,0.00,,---,0.00,VWS V14.01,2013-10-09 05:33:00,
2013-10-09 01:34:00,58.6,55.1,30.03,NE,34,2.0,11.0,88,0.00,,---,0.00,VWS V14.01,2013-10-09 05:34:00,
2013-10-09 01:35:00,58.6,55.1,30.03,NNE,18,2.0,11.0,88,0.00,,---,0.00,VWS V14.01,2013-10-09 05:35:00,
2013-10-09 01:36:00,58.6,55.1,30.03,ENE,71,3.0,11.0,88,0.00,,---,0.00,VWS V14.01,2013-10-09 05:36:00,
2013-10-09 01:37:00,58.6,55.1,30.03,NNE,30,4.0,11.0,88,0.00,,---,0.00,VWS V14.01,2013-10-09 05:37:00,
2013-10-09 01:38:00,58.7,55.2,30.03,NE,35,3.0,11.0,88,0.00,,---,0.00,VWS V14.01,2013-10-09 05:38:00,
2013-10-09 01:39:00,58.7,55.2,30.03,NE,51,7.0,11.0,88,0.00,,---,0.00,VWS V14.01,2013-10-09 05:39:00,
2013-10-09 01:40:00,58.7,55.2,30.03,NNE,23,3.0,11.0,88,0.00,,---,0.00,VWS V14.01,2013-10-09 05:40:00,
2013-10-09 01:41:00,58.7,55.2,30.03,NNE,21,3.0,7.0,88,0.00,,---,0.00,VWS V14.01,2013-10-09 05:41:00,
2013-10-09 01:42:00,58.7,55.2,30.03,NNE,27,5.0,7.0,88,0.00,,---,0.00,VWS V14.01,2013-10-09 05:42:00,
2013-10-09 01:43:00,58.7,55.2,30.03,North,1,3.0,9.0,88,0.00,,---,0.00,VWS V14.01,2013-10-09 05:43:00,
2013-10-09 01:44:00,58.7,54.8,30.03,NNE,28,2.0,9.0,87,0.00,,---,0.00,VWS V14.01,2013-10-09 05:44:00,
2013-10-09 01:45:00,58.7,54.8,30.02,North,3,0.0,9.0,87,0.00,,---,0.00,VWS V14.01,2013-10-09 05:45:00,
2013-10-09 01:46:00,58.7,55.2,30.02,East,80,4.0,9.0,88,0.00,,---,0.00,VWS V14.01,2013-10-09 05:46:00,
2013-10-09 01:47:00,58.7,55.2,30.02,North,11,3.0,9.0,88,0.00,,---,0.00,VWS V14.01,2013-10-09 05:47:00,
2013-10-09 01:48:00,58.7,55.2,30.02,NNE,13,2.0,9.0,88,0.00,,---,0.00,VWS V14.01,2013-10-09 05:48:00,
2013-10-09 01:49:00,58.7,55.2,30.02,North,10,3.0,9.0,88,0.00,,---,0.00,VWS V14.01,2013-10-09 05:49:00,
2013-10-09 01:50:00,58.7,55.2,30.02,North,10,2.0,9.0,88,0.00,,---,0.00,VWS V14.01,2013-10-09 05:50:00,
2013-10-09 01:51:00,58.7,55.2,30.02,NE,35,2.0,5.0,88,0.00,,---,0.00,VWS V14.01,2013-10-09 05:51:00,
2013-10-09 01:52:00,58.7,55.2,30.02,North,10,1.0,5.0,88,0.00,,---,0.00,VWS V14.01,2013-10-09 05:52:00,
2013-10-09 01:53:00,58.7,55.2,30.02,North,10,0.0,5.0,88,0.00,,---,0.00,VWS V14.01,2013-10-09 05:53:00,
2013-10-09 01:54:00,58.7,55.2,30.02,NNE,31,1.0,8.0,88,0.00,,---,0.00,VWS V14.01,2013-10-09 05:54:00,
2013-10-09 01:55:00,58.7,55.2,30.02,NE,37,2.0,8.0,88,0.00,,---,0.00,VWS V14.01,2013-10-09 05:55:00,
2013-10-09 01:56:00,58.7,55.2,30.02,NNE,20,1.0,8.0,88,0.00,,---,0.00,VWS V14.01,2013-10-09 05:56:00,
2013-10-09 01:57:00,58.7,55.2,30.02,NE,38,4.0,8.0,88,0.00,,---,0.00,VWS V14.01,2013-10-09 05:57:00,
2013-10-09 01:58:00,58.7,55.2,30.02,NE,44,5.0,8.0,88,0.00,,---,0.00,VWS V14.01,2013-10-09 05:58:00,
2013-10-09 01:59:00,58.7,55.2,30.02,NNE,31,6.0,8.0,88,0.00,,---,0.00,VWS V14.01,2013-10-09 05:59:00,
2013-10-09 02:00:00,58.7,55.2,30.02,NE,56,6.0,12.0,88,0.00,,---,0.00,VWS V14.01,2013-10-09 06:00:00,
2013-10-09 02:01:00,58.7,55.2,30.02,NE,56,0.0,7.0,88,0.00,,---,0.00,VWS V14.01,2013-10-09 06:01:00,
2013-10-09 02:02:00,58.7,55.2,30.02,North,7,2.0,7.0,88,0.00,,---,0.00,VWS V14.01,2013-10-09 06:02:00,
2013-10-09 02:03:00,58.7,55.2,30.02,NE,40,3.0,7.0,88,0.00,,---,0.00,VWS V14.01,2013-10-09 06:03:00,
2013-10-09 02:04:00,58.7,55.2,30.02,NE,40,0.0,7.0,88,0.00,,---,0.00,VWS V14.01,2013-10-09 06:04:00,
2013-10-09 02:05:00,58.7,55.2,30.02,NNE,24,2.0,7.0,88,0.00,,---,0.00,VWS V14.01,2013-10-09 06:05:00,
2013-10-09 02:06:00,58.7,55.5,30.02,North,0,1.0,7.0,89,0.00,,---,0.00,VWS V14.01,2013-10-09 06:06:00,
2013-10-09 02:07:00,58.7,55.5,30.02,NNE,24,2.0,7.0,89,0.00,,---,0.00,VWS V14.01,2013-10-09 06:07:00,
2013-10-09 02:08:00,58.7,55.5,30.02,NNE,24,0.0,7.0,89,0.00,,---,0.00,VWS V14.01,2013-10-09 06:08:00,
2013-10-09 02:09:00,58.7,55.5,30.02,NNE,23,2.0,7.0,89,0.00,,---,0.00,VWS V14.01,2013-10-09 06:09:00,
2013-10-09 02:10:00,58.7,55.2,30.02,North,4,0.0,7.0,88,0.00,,---,0.00,VWS V14.01,2013-10-09 06:10:00,
2013-10-09 02:11:00,58.7,55.5,30.02,NNE,28,2.0,3.0,89,0.00,,---,0.00,VWS V14.01,2013-10-09 06:11:00,
2013-10-09 02:12:00,58.7,55.2,30.02,North,353,5.0,6.0,88,0.00,,---,0.00,VWS V14.01,2013-10-09 06:12:00,
2013-10-09 02:13:00,58.7,55.2,30.02,NNE,21,2.0,7.0,88,0.00,,---,0.00,VWS V14.01,2013-10-09 06:13:00,
2013-10-09 02:14:00,58.7,55.2,30.02,NE,35,6.0,10.0,88,0.00,,---,0.00,VWS V14.01,2013-10-09 06:14:00,
2013-10-09 02:15:00,58.7,55.2,30.02,NE,37,1.0,10.0,88,0.00,,---,0.00,VWS V14.01,2013-10-09 06:15:00,
2013-10-09 02:16:00,58.7,55.2,30.02,NNE,27,3.0,10.0,88,0.00,,---,0.00,VWS V14.01,2013-10-09 06:16:00,
2013-10-09 02:17:00,58.7,55.2,30.02,North,7,1.0,10.0,88,0.00,,---,0.00,VWS V14.01,2013-10-09 06:17:00,
2013-10-09 02:18:00,58.7,55.5,30.02,NNE,21,6.0,10.0,89,0.00,,---,0.00,VWS V14.01,2013-10-09 06:18:00,
2013-10-09 02:19:00,58.7,55.2,30.02,North,10,6.0,10.0,88,0.00,,---,0.00,VWS V14.01,2013-10-09 06:19:00,
2013-10-09 02:20:00,58.7,55.2,30.02,NE,54,3.0,10.0,88,0.00,,---,0.00,VWS V14.01,2013-10-09 06:20:00,
2013-10-09 02:21:00,58.7,55.2,30.02,East,79,4.0,7.0,88,0.00,,---,0.00,VWS V14.01,2013-10-09 06:21:00,
2013-10-09 02:22:00,58.7,55.2,30.02,NE,56,0.0,8.0,88,0.00,,---,0.00,VWS V14.01,2013-10-09 06:22:00,
2013-10-09 02:23:00,58.7,55.2,30.02,NE,40,3.0,8.0,88,0.00,,---,0.00,VWS V14.01,2013-10-09 06:23:00,
2013-10-09 02:24:00,58.9,55.7,30.02,NNE,25,6.0,8.0,89,0.00,,---,0.00,VWS V14.01,2013-10-09 06:24:00,
2013-10-09 02:25:00,58.9,55.4,30.02,ENE,59,3.0,8.0,88,0.00,,---,0.00,VWS V14.01,2013-10-09 06:25:00,
2013-10-09 02:26:00,58.7,55.2,30.02,NNE,25,2.0,8.0,88,0.00,,---,0.00,VWS V14.01,2013-10-09 06:26:00,
2013-10-09 02:27:00,58.9,55.4,30.02,NNE,25,0.0,8.0,88,0.00,,---,0.00,VWS V14.01,2013-10-09 06:27:00,
2013-10-09 02:28:00,58.7,55.2,30.02,ENE,71,6.0,8.0,88,0.00,,---,0.00,VWS V14.01,2013-10-09 06:28:00,
2013-10-09 02:29:00,58.9,55.7,30.02,ENE,68,1.0,8.0,89,0.00,,---,0.00,VWS V14.01,2013-10-09 06:29:00,
2013-10-09 02:30:00,58.9,55.7,30.02,NE,45,3.0,8.0,89,0.00,,---,0.00,VWS V14.01,2013-10-09 06:30:00,
2013-10-09 02:31:00,58.7,55.5,30.02,NNE,24,3.0,7.0,89,0.00,,---,0.00,VWS V14.01,2013-10-09 06:31:00,
2013-10-09 02:32:00,58.7,55.5,30.02,NNE,14,0.0,7.0,89,0.00,,---,0.00,VWS V14.01,2013-10-09 06:32:00,
2013-10-09 02:33:00,58.7,55.2,30.02,East,86,2.0,10.0,88,0.00,,---,0.00,VWS V14.01,2013-10-09 06:33:00,
2013-10-09 02:34:00,58.7,55.2,30.02,North,0,2.0,10.0,88,0.00,,---,0.00,VWS V14.01,2013-10-09 06:34:00,
2013-10-09 02:35:00,58.7,55.2,30.02,North,7,3.0,10.0,88,0.00,,---,0.00,VWS V14.01,2013-10-09 06:35:00,
2013-10-09 02:36:00,58.7,55.2,30.02,NE,35,2.0,10.0,88,0.00,,---,0.00,VWS V14.01,2013-10-09 06:36:00,
2013-10-09 02:37:00,58.7,55.2,30.02,North,0,2.0,10.0,88,0.00,,---,0.00,VWS V14.01,2013-10-09 06:37:00,
2013-10-09 02:38:00,58.7,55.5,30.02,NNE,21,0.0,10.0,89,0.00,,---,0.00,VWS V14.01,2013-10-09 06:38:00,
2013-10-09 02:39:00,58.7,55.5,30.02,NE,45,3.0,10.0,89,0.00,,---,0.00,VWS V14.01,2013-10-09 06:39:00,
2013-10-09 02:40:00,58.7,55.5,30.02,NE,41,5.0,10.0,89,0.00,,---,0.00,VWS V14.01,2013-10-09 06:40:00,
2013-10-09 02:41:00,58.7,55.5,30.02,NE,34,3.0,4.0,89,0.00,,---,0.00,VWS V14.01,2013-10-09 06:41:00,
2013-10-09 02:42:00,58.7,55.5,30.02,NE,45,0.0,4.0,89,0.00,,---,0.00,VWS V14.01,2013-10-09 06:42:00,
2013-10-09 02:43:00,58.7,55.5,30.02,ENE,71,3.0,4.0,89,0.00,,---,0.00,VWS V14.01,2013-10-09 06:43:00,
2013-10-09 02:44:00,58.7,55.5,30.02,NE,48,2.0,6.0,89,0.00,,---,0.00,VWS V14.01,2013-10-09 06:44:00,
2013-10-09 02:45:00,58.7,55.5,30.01,North,7,0.0,6.0,89,0.00,,---,0.00,VWS V14.01,2013-10-09 06:45:00,
2013-10-09 02:46:00,58.7,55.5,30.01,North,1,1.0,6.0,89,0.00,,---,0.00,VWS V14.01,2013-10-09 06:46:00,
2013-10-09 02:47:00,58.7,55.5,30.01,North,6,2.0,6.0,89,0.00,,---,0.00,VWS V14.01,2013-10-09 06:47:00,
2013-10-09 02:48:00,58.7,55.5,30.01,NE,44,5.0,7.0,89,0.00,,---,0.00,VWS V14.01,2013-10-09 06:48:00,
2013-10-09 02:49:00,58.7,55.5,30.01,NNE,27,2.0,7.0,89,0.00,,---,0.00,VWS V14.01,2013-10-09 06:49:00,
2013-10-09 02:50:00,58.7,55.5,30.01,NNE,23,5.0,7.0,89,0.00,,---,0.00,VWS V14.01,2013-10-09 06:50:00,
2013-10-09 02:51:00,58.7,55.5,30.01,North,10,3.0,7.0,89,0.00,,---,0.00,VWS V14.01,2013-10-09 06:51:00,
2013-10-09 02:52:00,58.7,55.5,30.01,North,0,0.0,7.0,89,0.00,,---,0.00,VWS V14.01,2013-10-09 06:52:00,
2013-10-09 02:53:00,58.7,55.5,30.01,ENE,59,6.0,7.0,89,0.00,,---,0.00,VWS V14.01,2013-10-09 06:53:00,
2013-10-09 02:54:00,58.7,55.5,30.01,NNE,32,1.0,8.0,89,0.00,,---,0.00,VWS V14.01,2013-10-09 06:54:00,
2013-10-09 02:55:00,58.7,55.5,30.01,North,6,2.0,8.0,89,0.00,,---,0.00,VWS V14.01,2013-10-09 06:55:00,
2013-10-09 02:56:00,58.7,55.5,30.01,North,10,2.0,8.0,89,0.00,,---,0.00,VWS V14.01,2013-10-09 06:56:00,
2013-10-09 02:57:00,58.7,55.5,30.01,East,82,4.0,8.0,89,0.00,,---,0.00,VWS V14.01,2013-10-09 06:57:00,
2013-10-09 02:58:00,58.7,55.5,30.01,ENE,58,1.0,8.0,89,0.00,,---,0.00,VWS V14.01,2013-10-09 06:58:00,
2013-10-09 02:59:00,58.7,55.5,30.01,North,6,2.0,8.0,89,0.00,,---,0.00,VWS V14.01,2013-10-09 06:59:00,
2013-10-09 03:00:00,58.7,55.8,30.01,NNE,23,2.0,8.0,90,0.00,,---,0.00,VWS V14.01,2013-10-09 07:00:00,
2013-10-09 03:01:00,58.7,55.8,30.01,NNE,23,0.0,2.0,90,0.00,,---,0.00,VWS V14.01,2013-10-09 07:01:00,
2013-10-09 03:02:00,58.7,55.8,30.01,NE,54,2.0,5.0,90,0.00,,---,0.00,VWS V14.01,2013-10-09 07:02:00,
2013-10-09 03:03:00,58.7,55.8,30.01,NNE,14,0.0,5.0,90,0.00,,---,0.00,VWS V14.01,2013-10-09 07:03:00,
2013-10-09 03:04:00,58.7,55.8,30.01,North,11,3.0,5.0,90,0.00,,---,0.00,VWS V14.01,2013-10-09 07:04:00,
2013-10-09 03:05:00,58.7,55.8,30.01,NE,35,1.0,5.0,90,0.00,,---,0.00,VWS V14.01,2013-10-09 07:05:00,
2013-10-09 03:06:00,58.7,55.5,30.01,ENE,64,3.0,8.0,89,0.00,,---,0.00,VWS V14.01,2013-10-09 07:06:00,
2013-10-09 03:07:00,58.7,55.8,30.01,NNE,30,3.0,8.0,90,0.00,,---,0.00,VWS V14.01,2013-10-09 07:07:00,
2013-10-09 03:08:00,58.7,55.8,30.01,NE,56,2.0,8.0,90,0.00,,---,0.00,VWS V14.01,2013-10-09 07:08:00,
2013-10-09 03:09:00,58.7,55.8,30.01,NNE,28,0.0,8.0,90,0.00,,---,0.00,VWS V14.01,2013-10-09 07:09:00,
2013-10-09 03:10:00,58.7,55.8,30.01,NNE,28,0.0,8.0,90,0.00,,---,0.00,VWS V14.01,2013-10-09 07:10:00,
2013-10-09 03:11:00,58.7,55.8,30.01,NNE,24,5.0,5.0,90,0.00,,---,0.00,VWS V14.01,2013-10-09 07:11:00,
2013-10-09 03:12:00,58.7,55.8,30.01,ENE,69,0.0,8.0,90,0.00,,---,0.00,VWS V14.01,2013-10-09 07:12:00,
2013-10-09 03:13:00,58.7,55.8,30.01,NNE,16,4.0,8.0,90,0.00,,---,0.00,VWS V14.01,2013-10-09 07:13:00,
2013-10-09 03:14:00,58.7,55.8,30.01,NE,34,4.0,8.0,90,0.00,,---,0.00,VWS V14.01,2013-10-09 07:14:00,
2013-10-09 03:15:00,58.7,55.8,30.01,ENE,59,4.0,8.0,90,0.00,,---,0.00,VWS V14.01,2013-10-09 07:15:00,
2013-10-09 03:16:00,58.7,55.8,30.01,North,0,0.0,8.0,90,0.00,,---,0.00,VWS V14.01,2013-10-09 07:16:00,
2013-10-09 03:17:00,58.7,55.8,30.01,ENE,69,0.0,8.0,90,0.00,,---,0.00,VWS V14.01,2013-10-09 07:17:00,
2013-10-09 03:18:00,58.7,55.8,30.01,ENE,69,0.0,8.0,90,0.00,,---,0.00,VWS V14.01,2013-10-09 07:18:00,
2013-10-09 03:19:00,58.7,55.8,30.01,NNE,18,5.0,8.0,90,0.00,,---,0.00,VWS V14.01,2013-10-09 07:19:00,
2013-10-09 03:20:00,58.7,55.8,30.01,NNE,18,5.0,8.0,90,0.00,,---,0.00,VWS V14.01,2013-10-09 07:20:00,
2013-10-09 03:21:00,58.7,55.8,30.01,NE,45,2.0,5.0,90,0.00,,---,0.00,VWS V14.01,2013-10-09 07:21:00,
2013-10-09 03:22:00,58.7,55.8,30.01,North,11,5.0,10.0,90,0.00,,---,0.00,VWS V14.01,2013-10-09 07:22:00,
2013-10-09 03:23:00,58.7,56.1,30.01,NE,47,3.0,10.0,91,0.00,,---,0.00,VWS V14.01,2013-10-09 07:23:00,
2013-10-09 03:24:00,58.7,55.8,30.01,North,11,5.0,10.0,90,0.00,,---,0.00,VWS V14.01,2013-10-09 07:24:00,
2013-10-09 03:25:00,58.7,55.8,30.01,East,89,3.0,10.0,90,0.00,,---,0.00,VWS V14.01,2013-10-09 07:25:00,
2013-10-09 03:26:00,58.7,55.8,30.01,NNE,16,3.0,10.0,90,0.00,,---,0.00,VWS V14.01,2013-10-09 07:26:00,
2013-10-09 03:27:00,58.7,55.8,30.01,NNE,21,5.0,10.0,90,0.00,,---,0.00,VWS V14.01,2013-10-09 07:27:00,
2013-10-09 03:30:00,58.9,55.7,30.02,NE,45,3.0,8.0,89,0.00,,---,0.00,VWS V14.01,2013-10-09 07:30:00,
2013-10-09 03:37:00,58.7,55.8,30.01,NE,38,3.0,3.0,90,0.00,,---,0.00,VWS V14.01,2013-10-09 07:37:00,
2013-10-09 03:38:00,58.7,55.8,30.01,NE,38,3.0,3.0,90,0.00,,---,0.00,VWS V14.01,2013-10-09 07:38:00,
2013-10-09 03:39:00,58.7,55.8,30.01,North,6,3.0,5.0,90,0.00,,---,0.00,VWS V14.01,2013-10-09 07:39:00,
2013-10-09 03:40:00,58.7,55.8,30.01,NNE,27,0.0,5.0,90,0.00,,---,0.00,VWS V14.01,2013-10-09 07:40:00,
2013-10-09 03:41:00,58.7,55.8,30.01,North,4,1.0,4.0,90,0.00,,---,0.00,VWS V14.01,2013-10-09 07:41:00,
2013-10-09 03:42:00,58.6,55.7,30.01,North,4,0.0,4.0,90,0.00,,---,0.00,VWS V14.01,2013-10-09 07:42:00,
2013-10-09 03:43:00,58.7,55.8,30.01,NE,34,6.0,6.0,90,0.00,,---,0.00,VWS V14.01,2013-10-09 07:43:00,
2013-10-09 03:44:00,58.7,55.8,30.01,NE,41,1.0,6.0,90,0.00,,---,0.00,VWS V14.01,2013-10-09 07:44:00,
2013-10-09 03:45:00,58.7,55.8,30.01,NE,40,5.0,10.0,90,0.00,,---,0.00,VWS V14.01,2013-10-09 07:45:00,
2013-10-09 03:46:00,58.7,55.8,30.01,East,89,2.0,10.0,90,0.00,,---,0.00,VWS V14.01,2013-10-09 07:46:00,
2013-10-09 03:47:00,58.7,55.8,30.01,ENE,62,3.0,10.0,90,0.00,,---,0.00,VWS V14.01,2013-10-09 07:47:00,
2013-10-09 03:48:00,58.7,55.8,30.01,North,0,0.0,10.0,90,0.00,,---,0.00,VWS V14.01,2013-10-09 07:48:00,
2013-10-09 03:49:00,58.7,55.8,30.01,North,0,0.0,10.0,90,0.00,,---,0.00,VWS V14.01,2013-10-09 07:49:00,
2013-10-09 03:50:00,58.7,55.8,30.01,East,96,0.0,10.0,90,0.00,,---,0.00,VWS V14.01,2013-10-09 07:50:00,
2013-10-09 03:51:00,58.7,55.8,30.01,East,95,0.0,0.0,90,0.00,,---,0.00,VWS V14.01,2013-10-09 07:51:00,
2013-10-09 03:52:00,58.7,56.1,30.01,North,11,4.0,4.0,91,0.00,,---,0.00,VWS V14.01,2013-10-09 07:52:00,
2013-10-09 03:53:00,58.7,56.1,30.01,ENE,68,0.0,8.0,91,0.00,,---,0.00,VWS V14.01,2013-10-09 07:53:00,
2013-10-09 03:54:00,58.7,56.1,30.01,North,0,3.0,8.0,91,0.00,,---,0.00,VWS V14.01,2013-10-09 07:54:00,
2013-10-09 03:55:00,58.7,56.1,30.01,East,79,2.0,8.0,91,0.00,,---,0.00,VWS V14.01,2013-10-09 07:55:00,
2013-10-09 03:56:00,58.7,55.8,30.01,ENE,76,0.0,8.0,90,0.00,,---,0.00,VWS V14.01,2013-10-09 07:56:00,
2013-10-09 03:57:00,58.7,56.1,30.01,ENE,62,0.0,8.0,91,0.00,,---,0.00,VWS V14.01,2013-10-09 07:57:00,
2013-10-09 03:58:00,58.7,55.8,30.01,NNE,28,3.0,8.0,90,0.00,,---,0.00,VWS V14.01,2013-10-09 07:58:00,
2013-10-09 03:59:00,58.7,55.8,30.01,NNE,23,2.0,8.0,90,0.00,,---,0.00,VWS V14.01,2013-10-09 07:59:00,
2013-10-09 04:00:00,58.7,55.8,30.01,NNW,337,0.0,8.0,90,0.00,,---,0.00,VWS V14.01,2013-10-09 08:00:00,
2013-10-09 04:01:00,58.7,55.8,30.01,NE,48,0.0,6.0,90,0.00,,---,0.00,VWS V14.01,2013-10-09 08:01:00,
2013-10-09 04:02:00,58.7,55.8,30.01,NNE,32,2.0,6.0,90,0.00,,---,0.00,VWS V14.01,2013-10-09 08:02:00,
2013-10-09 04:03:00,58.7,55.8,30.01,North,1,3.0,6.0,90,0.00,,---,0.00,VWS V14.01,2013-10-09 08:03:00,
2013-10-09 04:04:00,58.7,55.8,30.01,NE,41,1.0,6.0,90,0.00,,---,0.00,VWS V14.01,2013-10-09 08:04:00,
2013-10-09 04:05:00,58.7,55.8,30.01,NE,41,0.0,6.0,90,0.00,,---,0.00,VWS V14.01,2013-10-09 08:05:00,
2013-10-09 04:06:00,58.7,55.8,30.01,NNE,14,4.0,6.0,90,0.00,,---,0.00,VWS V14.01,2013-10-09 08:06:00,
2013-10-09 04:07:00,58.7,55.8,30.01,North,6,0.0,6.0,90,0.00,,---,0.00,VWS V14.01,2013-10-09 08:07:00,
2013-10-09 04:08:00,58.7,55.8,30.01,North,10,2.0,6.0,90,0.00,,---,0.00,VWS V14.01,2013-10-09 08:08:00,
2013-10-09 04:09:00,58.7,55.8,30.01,North,10,0.0,6.0,90,0.00,,---,0.00,VWS V14.01,2013-10-09 08:09:00,
2013-10-09 04:10:00,58.7,55.8,30.01,NNE,32,6.0,7.0,90,0.00,,---,0.00,VWS V14.01,2013-10-09 08:10:00,
2013-10-09 04:11:00,58.7,55.8,30.01,ENE,73,6.0,8.0,90,0.00,,---,0.00,VWS V14.01,2013-10-09 08:11:00,
2013-10-09 04:12:00,58.7,55.8,30.01,ESE,104,0.0,8.0,90,0.00,,---,0.00,VWS V14.01,2013-10-09 08:12:00,
2013-10-09 04:13:00,58.7,55.8,30.01,North,8,4.0,8.0,90,0.00,,---,0.00,VWS V14.01,2013-10-09 08:13:00,
2013-10-09 04:14:00,58.7,55.8,30.01,NE,37,6.0,8.0,90,0.00,,---,0.00,VWS V14.01,2013-10-09 08:14:00,
2013-10-09 04:15:00,58.7,55.8,30.01,NE,55,0.0,8.0,90,0.00,,---,0.00,VWS V14.01,2013-10-09 08:15:00,
2013-10-09 04:16:00,58.7,55.8,30.01,NE,42,2.0,8.0,90,0.00,,---,0.00,VWS V14.01,2013-10-09 08:16:00,
2013-10-09 04:17:00,58.7,55.8,30.01,North,4,6.0,8.0,90,0.00,,---,0.00,VWS V14.01,2013-10-09 08:17:00,
2013-10-09 04:18:00,58.9,56.0,30.01,North,7,1.0,8.0,90,0.00,,---,0.00,VWS V14.01,2013-10-09 08:18:00,
2013-10-09 04:19:00,58.9,56.0,30.01,North,4,1.0,8.0,90,0.00,,---,0.00,VWS V14.01,2013-10-09 08:19:00,
2013-10-09 04:20:00,58.9,56.0,30.01,North,4,0.0,8.0,90,0.00,,---,0.00,VWS V14.01,2013-10-09 08:20:00,
2013-10-09 04:21:00,58.9,56.0,30.01,North,4,0.0,0.0,90,0.00,,---,0.00,VWS V14.01,2013-10-09 08:21:00,
2013-10-09 04:22:00,58.9,56.0,30.01,North,356,3.0,5.0,90,0.00,,---,0.00,VWS V14.01,2013-10-09 08:22:00,
2013-10-09 04:23:00,58.9,55.7,30.01,NE,34,3.0,6.0,89,0.00,,---,0.00,VWS V14.01,2013-10-09 08:23:00,
2013-10-09 04:24:00,58.9,55.7,30.01,North,7,1.0,6.0,89,0.00,,---,0.00,VWS V14.01,2013-10-09 08:24:00,
2013-10-09 04:25:00,58.9,55.7,30.01,NE,48,3.0,6.0,89,0.00,,---,0.00,VWS V14.01,2013-10-09 08:25:00,
2013-10-09 04:26:00,58.9,55.7,30.01,North,7,2.0,6.0,89,0.00,,---,0.00,VWS V14.01,2013-10-09 08:26:00,
2013-10-09 04:27:00,58.9,56.0,30.01,NNE,18,5.0,6.0,90,0.00,,---,0.00,VWS V14.01,2013-10-09 08:27:00,
2013-10-09 04:28:00,58.9,56.0,30.01,NE,45,2.0,6.0,90,0.00,,---,0.00,VWS V14.01,2013-10-09 08:28:00,
2013-10-09 04:29:00,58.9,56.0,30.01,NNE,31,3.0,6.0,90,0.00,,---,0.00,VWS V14.01,2013-10-09 08:29:00,
2013-10-09 04:30:00,58.9,55.7,30.01,NNE,32,3.0,6.0,89,0.00,,---,0.00,VWS V14.01,2013-10-09 08:30:00,
2013-10-09 04:31:00,58.9,55.7,30.01,ENE,59,4.0,8.0,89,0.00,,---,0.00,VWS V14.01,2013-10-09 08:31:00,
2013-10-09 04:32:00,58.7,55.5,30.01,North,349,5.0,8.0,89,0.00,,---,0.00,VWS V14.01,2013-10-09 08:32:00,
2013-10-09 04:33:00,58.9,56.0,30.01,NNE,17,3.0,8.0,90,0.00,,---,0.00,VWS V14.01,2013-10-09 08:33:00,
2013-10-09 04:34:00,58.7,55.8,30.01,NNE,13,0.0,8.0,90,0.00,,---,0.00,VWS V14.01,2013-10-09 08:34:00,
2013-10-09 04:35:00,58.7,55.8,30.01,NNE,13,1.0,8.0,90,0.00,,---,0.00,VWS V14.01,2013-10-09 08:35:00,
2013-10-09 04:36:00,58.7,55.8,30.01,NNE,23,1.0,8.0,90,0.00,,---,0.00,VWS V14.01,2013-10-09 08:36:00,
2013-10-09 04:37:00,58.7,55.8,30.01,NNE,23,0.0,8.0,90,0.00,,---,0.00,VWS V14.01,2013-10-09 08:37:00,
2013-10-09 04:38:00,58.7,55.8,30.01,NNE,24,0.0,8.0,90,0.00,,---,0.00,VWS V14.01,2013-10-09 08:38:00,
2013-10-09 04:39:00,58.7,55.8,30.01,NNE,24,0.0,8.0,90,0.00,,---,0.00,VWS V14.01,2013-10-09 08:39:00,
2013-10-09 04:40:00,58.7,55.8,30.01,NNE,13,1.0,8.0,90,0.00,,---,0.00,VWS V14.01,2013-10-09 08:40:00,
2013-10-09 04:41:00,58.7,55.8,30.01,North,7,1.0,3.0,90,0.00,,---,0.00,VWS V14.01,2013-10-09 08:41:00,
2013-10-09 04:42:00,58.7,55.8,30.01,North,7,0.0,3.0,90,0.00,,---,0.00,VWS V14.01,2013-10-09 08:42:00,
2013-10-09 04:43:00,58.7,55.8,30.01,NE,42,3.0,3.0,90,0.00,,---,0.00,VWS V14.01,2013-10-09 08:43:00,
2013-10-09 04:44:00,58.7,55.8,30.01,North,3,0.0,6.0,90,0.00,,---,0.00,VWS V14.01,2013-10-09 08:44:00,
2013-10-09 04:45:00,58.7,55.8,30.01,North,3,0.0,6.0,90,0.00,,---,0.00,VWS V14.01,2013-10-09 08:45:00,
2013-10-09 04:46:00,58.7,55.8,30.01,North,3,0.0,6.0,90,0.00,,---,0.00,VWS V14.01,2013-10-09 08:46:00,
2013-10-09 04:47:00,58.7,55.8,30.01,NE,51,0.0,6.0,90,0.00,,---,0.00,VWS V14.01,2013-10-09 08:47:00,
2013-10-09 04:48:00,58.7,55.8,30.01,NE,44,2.0,6.0,90,0.00,,---,0.00,VWS V14.01,2013-10-09 08:48:00,
2013-10-09 04:49:00,58.7,55.8,30.01,NE,45,0.0,6.0,90,0.00,,---,0.00,VWS V14.01,2013-10-09 08:49:00,
2013-10-09 04:50:00,58.7,55.8,30.01,NE,45,0.0,6.0,90,0.00,,---,0.00,VWS V14.01,2013-10-09 08:50:00,
2013-10-09 04:51:00,58.7,55.8,30.01,NNE,13,2.0,3.0,90,0.00,,---,0.00,VWS V14.01,2013-10-09 08:51:00,
2013-10-09 04:52:00,58.7,55.8,30.01,NNE,13,0.0,3.0,90,0.00,,---,0.00,VWS V14.01,2013-10-09 08:52:00,
2013-10-09 04:53:00,58.6,55.7,30.01,NNE,23,0.0,3.0,90,0.00,,---,0.00,VWS V14.01,2013-10-09 08:53:00,
2013-10-09 04:54:00,58.7,55.8,30.01,NNE,23,0.0,3.0,90,0.00,,---,0.00,VWS V14.01,2013-10-09 08:54:00,
2013-10-09 04:55:00,58.6,55.7,30.01,NNE,23,0.0,3.0,90,0.00,,---,0.00,VWS V14.01,2013-10-09 08:55:00,
2013-10-09 04:56:00,58.6,55.7,30.01,NNE,28,0.0,3.0,90,0.00,,---,0.00,VWS V14.01,2013-10-09 08:56:00,
2013-10-09 04:57:00,58.6,55.7,30.01,NNE,28,0.0,3.0,90,0.00,,---,0.00,VWS V14.01,2013-10-09 08:57:00,
2013-10-09 04:58:00,58.6,55.7,30.01,NW,309,0.0,3.0,90,0.00,,---,0.00,VWS V14.01,2013-10-09 08:58:00,
2013-10-09 04:59:00,58.6,55.7,30.01,North,354,2.0,3.0,90,0.00,,---,0.00,VWS V14.01,2013-10-09 08:59:00,
2013-10-09 05:00:00,58.6,55.7,30.01,North,354,0.0,3.0,90,0.00,,---,0.00,VWS V14.01,2013-10-09 09:00:00,
2013-10-09 05:01:00,58.6,55.7,30.01,North,354,0.0,0.0,90,0.00,,---,0.00,VWS V14.01,2013-10-09 09:01:00,
2013-10-09 05:02:00,58.6,55.7,30.01,North,354,0.0,0.0,90,0.00,,---,0.00,VWS V14.01,2013-10-09 09:02:00,
2013-10-09 05:03:00,58.6,55.7,30.01,NNE,25,3.0,5.0,90,0.00,,---,0.00,VWS V14.01,2013-10-09 09:03:00,
2013-10-09 05:04:00,58.6,55.7,30.01,NNE,25,0.0,5.0,90,0.00,,---,0.00,VWS V14.01,2013-10-09 09:04:00,
2013-10-09 05:05:00,58.6,55.7,30.01,North,1,2.0,5.0,90,0.00,,---,0.00,VWS V14.01,2013-10-09 09:05:00,
2013-10-09 05:06:00,58.6,55.7,30.01,North,1,0.0,5.0,90,0.00,,---,0.00,VWS V14.01,2013-10-09 09:06:00,
2013-10-09 05:07:00,58.6,55.7,30.01,North,1,0.0,5.0,90,0.00,,---,0.00,VWS V14.01,2013-10-09 09:07:00,
2013-10-09 05:08:00,58.6,55.7,30.01,NE,54,3.0,5.0,90,0.00,,---,0.00,VWS V14.01,2013-10-09 09:08:00,
2013-10-09 05:09:00,58.6,55.7,30.01,WNW,298,0.0,5.0,90,0.00,,---,0.00,VWS V14.01,2013-10-09 09:09:00,
2013-10-09 05:10:00,58.6,55.7,30.01,North,0,0.0,6.0,90,0.00,,---,0.00,VWS V14.01,2013-10-09 09:10:00,
2013-10-09 05:11:00,58.6,55.7,30.01,North,6,0.0,2.0,90,0.00,,---,0.00,VWS V14.01,2013-10-09 09:11:00,
2013-10-09 05:12:00,58.6,55.7,30.01,ENE,72,3.0,3.0,90,0.00,,---,0.00,VWS V14.01,2013-10-09 09:12:00,
2013-10-09 05:13:00,58.6,55.7,30.01,NE,40,3.0,3.0,90,0.00,,---,0.00,VWS V14.01,2013-10-09 09:13:00,
2013-10-09 05:14:00,58.6,55.7,30.01,NE,40,0.0,3.0,90,0.00,,---,0.00,VWS V14.01,2013-10-09 09:14:00,
2013-10-09 05:15:00,58.6,55.7,30.01,NNE,20,0.0,7.0,90,0.00,,---,0.00,VWS V14.01,2013-10-09 09:15:00,
2013-10-09 05:16:00,58.6,55.7,30.01,NE,37,0.0,7.0,90,0.00,,---,0.00,VWS V14.01,2013-10-09 09:16:00,
2013-10-09 05:17:00,58.6,55.7,30.01,NE,37,0.0,7.0,90,0.00,,---,0.00,VWS V14.01,2013-10-09 09:17:00,
2013-10-09 05:18:00,58.6,55.7,30.01,NE,41,1.0,7.0,90,0.00,,---,0.00,VWS V14.01,2013-10-09 09:18:00,
2013-10-09 05:19:00,58.7,55.8,30.01,East,99,2.0,7.0,90,0.00,,---,0.00,VWS V14.01,2013-10-09 09:19:00,
2013-10-09 05:20:00,58.7,55.8,30.01,NNE,28,2.0,7.0,90,0.00,,---,0.00,VWS V14.01,2013-10-09 09:20:00,
2013-10-09 05:21:00,58.7,55.8,30.01,North,0,3.0,6.0,90,0.00,,---,0.00,VWS V14.01,2013-10-09 09:21:00,
2013-10-09 05:22:00,58.7,55.8,30.01,North,359,0.0,6.0,90,0.00,,---,0.00,VWS V14.01,2013-10-09 09:22:00,
2013-10-09 05:23:00,58.7,55.8,30.01,North,359,0.0,6.0,90,0.00,,---,0.00,VWS V14.01,2013-10-09 09:23:00,
2013-10-09 05:24:00,58.7,55.8,30.01,NE,45,0.0,6.0,90,0.00,,---,0.00,VWS V14.01,2013-10-09 09:24:00,
2013-10-09 05:25:00,58.7,55.8,30.01,NE,45,0.0,6.0,90,0.00,,---,0.00,VWS V14.01,2013-10-09 09:25:00,
2013-10-09 05:26:00,58.7,55.8,30.01,NE,45,0.0,6.0,90,0.00,,---,0.00,VWS V14.01,2013-10-09 09:26:00,
2013-10-09 05:27:00,58.7,55.8,30.01,NNE,17,3.0,7.0,90,0.00,,---,0.00,VWS V14.01,2013-10-09 09:27:00,
2013-10-09 05:28:00,58.7,55.5,30.01,NNE,18,2.0,7.0,89,0.00,,---,0.00,VWS V14.01,2013-10-09 09:28:00,
2013-10-09 05:29:00,58.7,55.5,30.01,North,10,0.0,7.0,89,0.00,,---,0.00,VWS V14.01,2013-10-09 09:29:00,
2013-10-09 05:30:00,58.7,55.8,30.01,North,10,0.0,7.0,90,0.00,,---,0.00,VWS V14.01,2013-10-09 09:30:00,
2013-10-09 05:31:00,58.7,55.5,30.01,North,10,0.0,0.0,89,0.00,,---,0.00,VWS V14.01,2013-10-09 09:31:00,
2013-10-09 05:32:00,58.7,55.5,30.01,East,79,0.0,1.0,89,0.00,,---,0.00,VWS V14.01,2013-10-09 09:32:00,
2013-10-09 05:33:00,58.7,55.8,30.01,NNE,23,2.0,3.0,90,0.00,,---,0.00,VWS V14.01,2013-10-09 09:33:00,
2013-10-09 05:34:00,58.7,55.8,30.01,NNE,23,1.0,3.0,90,0.00,,---,0.00,VWS V14.01,2013-10-09 09:34:00,
2013-10-09 05:35:00,58.7,55.8,30.01,NNE,23,0.0,3.0,90,0.00,,---,0.00,VWS V14.01,2013-10-09 09:35:00,
2013-10-09 05:36:00,58.7,55.8,30.01,North,0,4.0,4.0,90,0.00,,---,0.00,VWS V14.01,2013-10-09 09:36:00,
2013-10-09 05:37:00,58.7,55.8,30.01,ENE,59,2.0,7.0,90,0.00,,---,0.00,VWS V14.01,2013-10-09 09:37:00,
2013-10-09 05:38:00,58.7,55.8,30.01,NE,42,0.0,7.0,90,0.00,,---,0.00,VWS V14.01,2013-10-09 09:38:00,
2013-10-09 05:39:00,58.7,55.5,30.01,North,10,1.0,7.0,89,0.00,,---,0.00,VWS V14.01,2013-10-09 09:39:00,
2013-10-09 05:40:00,58.7,55.8,30.01,NE,40,0.0,7.0,90,0.00,,---,0.00,VWS V14.01,2013-10-09 09:40:00,
2013-10-09 05:41:00,58.7,55.5,30.01,NE,40,0.0,0.0,89,0.00,,---,0.00,VWS V14.01,2013-10-09 09:41:00,
2013-10-09 05:42:00,58.7,55.5,30.01,NNE,16,0.0,4.0,89,0.00,,---,0.00,VWS V14.01,2013-10-09 09:42:00,
2013-10-09 05:43:00,58.7,55.5,30.01,NE,42,0.0,4.0,89,0.00,,---,0.00,VWS V14.01,2013-10-09 09:43:00,
2013-10-09 05:44:00,58.7,55.5,30.01,NNE,30,5.0,5.0,89,0.00,,---,0.00,VWS V14.01,2013-10-09 09:44:00,
2013-10-09 05:45:00,58.7,55.5,30.02,North,8,0.0,5.0,89,0.00,,---,0.00,VWS V14.01,2013-10-09 09:45:00,
2013-10-09 05:46:00,58.7,55.5,30.02,North,7,1.0,5.0,89,0.00,,---,0.00,VWS V14.01,2013-10-09 09:46:00,
2013-10-09 05:47:00,58.7,55.5,30.02,North,7,2.0,5.0,89,0.00,,---,0.00,VWS V14.01,2013-10-09 09:47:00,
2013-10-09 05:48:00,58.7,55.5,30.02,North,3,6.0,10.0,89,0.00,,---,0.00,VWS V14.01,2013-10-09 09:48:00,
2013-10-09 05:49:00,58.7,55.5,30.02,NE,35,4.0,10.0,89,0.00,,---,0.00,VWS V14.01,2013-10-09 09:49:00,
2013-10-09 05:50:00,58.7,55.5,30.02,NNE,25,3.0,11.0,89,0.00,,---,0.00,VWS V14.01,2013-10-09 09:50:00,
2013-10-09 05:51:00,58.7,55.5,30.02,NNE,23,1.0,2.0,89,0.00,,---,0.00,VWS V14.01,2013-10-09 09:51:00,
2013-10-09 05:52:00,58.7,55.2,30.02,NNE,27,9.0,10.0,88,0.00,,---,0.00,VWS V14.01,2013-10-09 09:52:00,
2013-10-09 05:53:00,58.7,55.2,30.02,NNE,14,2.0,10.0,88,0.00,,---,0.00,VWS V14.01,2013-10-09 09:53:00,
2013-10-09 05:54:00,58.7,55.2,30.02,NNE,17,7.0,10.0,88,0.00,,---,0.00,VWS V14.01,2013-10-09 09:54:00,
2013-10-09 05:55:00,58.7,54.8,30.02,NNE,30,3.0,10.0,87,0.00,,---,0.00,VWS V14.01,2013-10-09 09:55:00,
2013-10-09 05:56:00,58.7,54.8,30.02,NNE,31,5.0,10.0,87,0.00,,---,0.00,VWS V14.01,2013-10-09 09:56:00,
2013-10-09 05:57:00,58.7,55.2,30.02,NNE,30,5.0,10.0,88,0.00,,---,0.00,VWS V14.01,2013-10-09 09:57:00,
2013-10-09 05:58:00,58.9,55.0,30.02,North,0,0.0,10.0,87,0.00,,---,0.00,VWS V14.01,2013-10-09 09:58:00,
2013-10-09 05:59:00,58.9,55.4,30.02,NE,35,3.0,10.0,88,0.00,,---,0.00,VWS V14.01,2013-10-09 09:59:00,
2013-10-09 06:00:00,58.9,55.4,30.02,NNE,31,1.0,10.0,88,0.00,,---,0.00,VWS V14.01,2013-10-09 10:00:00,
2013-10-09 06:01:00,58.9,55.4,30.02,NNE,18,2.0,3.0,88,0.00,,---,0.00,VWS V14.01,2013-10-09 10:01:00,
2013-10-09 06:02:00,58.9,55.4,30.02,NE,44,2.0,4.0,88,0.00,,---,0.00,VWS V14.01,2013-10-09 10:02:00,
2013-10-09 06:03:00,58.9,55.0,30.02,NE,54,0.0,4.0,87,0.00,,---,0.00,VWS V14.01,2013-10-09 10:03:00,
2013-10-09 06:04:00,58.9,55.4,30.02,NE,38,5.0,6.0,88,0.00,,---,0.00,VWS V14.01,2013-10-09 10:04:00,
2013-10-09 06:05:00,58.9,55.4,30.02,North,0,0.0,6.0,88,0.00,,---,0.00,VWS V14.01,2013-10-09 10:05:00,
2013-10-09 06:06:00,58.9,55.4,30.02,North,8,2.0,8.0,88,0.00,,---,0.00,VWS V14.01,2013-10-09 10:06:00,
2013-10-09 06:07:00,58.9,55.0,30.02,North,8,0.0,8.0,87,0.00,,---,0.00,VWS V14.01,2013-10-09 10:07:00,
2013-10-09 06:08:00,58.9,55.0,30.02,NE,40,5.0,8.0,87,0.00,,---,0.00,VWS V14.01,2013-10-09 10:08:00,
2013-10-09 06:09:00,58.9,55.4,30.02,NE,44,0.0,8.0,88,0.00,,---,0.00,VWS V14.01,2013-10-09 10:09:00,
2013-10-09 06:10:00,58.9,55.0,30.02,North,359,3.0,8.0,87,0.00,,---,0.00,VWS V14.01,2013-10-09 10:10:00,
2013-10-09 06:11:00,58.9,55.4,30.02,North,357,0.0,3.0,88,0.00,,---,0.00,VWS V14.01,2013-10-09 10:11:00,
2013-10-09 06:12:00,58.9,55.4,30.02,East,80,0.0,3.0,88,0.00,,---,0.00,VWS V14.01,2013-10-09 10:12:00,
2013-10-09 06:13:00,58.9,55.4,30.02,North,0,1.0,6.0,88,0.00,,---,0.00,VWS V14.01,2013-10-09 10:13:00,
2013-10-09 06:14:00,58.9,55.4,30.02,NNE,32,2.0,6.0,88,0.00,,---,0.00,VWS V14.01,2013-10-09 10:14:00,
2013-10-09 06:15:00,58.9,55.4,30.02,NNE,32,0.0,6.0,88,0.00,,---,0.00,VWS V14.01,2013-10-09 10:15:00,
2013-10-09 06:16:00,58.9,55.4,30.02,North,3,5.0,7.0,88,0.00,,---,0.00,VWS V14.01,2013-10-09 10:16:00,
2013-10-09 06:17:00,58.9,55.4,30.02,NNE,27,3.0,7.0,88,0.00,,---,0.00,VWS V14.01,2013-10-09 10:17:00,
2013-10-09 06:18:00,58.9,55.4,30.02,NE,51,6.0,7.0,88,0.00,,---,0.00,VWS V14.01,2013-10-09 10:18:00,
2013-10-09 06:19:00,58.9,55.4,30.02,NNE,25,2.0,7.0,88,0.00,,---,0.00,VWS V14.01,2013-10-09 10:19:00,
2013-10-09 06:20:00,58.9,55.4,30.02,NNE,25,3.0,8.0,88,0.00,,---,0.00,VWS V14.01,2013-10-09 10:20:00,
2013-10-09 06:21:00,58.9,55.0,30.02,North,0,0.0,7.0,87,0.00,,---,0.00,VWS V14.01,2013-10-09 10:21:00,
2013-10-09 06:22:00,58.9,55.4,30.02,NE,42,2.0,7.0,88,0.00,,---,0.00,VWS V14.01,2013-10-09 10:22:00,
2013-10-09 06:23:00,58.9,55.4,30.02,NE,37,0.0,7.0,88,0.00,,---,0.00,VWS V14.01,2013-10-09 10:23:00,
2013-10-09 06:24:00,58.9,55.4,30.02,NNE,21,6.0,7.0,88,0.00,,---,0.00,VWS V14.01,2013-10-09 10:24:00,
2013-10-09 06:25:00,58.9,55.7,30.02,ENE,75,0.0,8.0,89,0.00,,---,0.00,VWS V14.01,2013-10-09 10:25:00,
2013-10-09 06:26:00,58.9,56.0,30.02,North,359,1.0,8.0,90,0.00,,---,0.00,VWS V14.01,2013-10-09 10:26:00,
2013-10-09 06:27:00,58.9,56.0,30.02,North,0,0.0,8.0,90,0.00,,---,0.00,VWS V14.01,2013-10-09 10:27:00,
2013-10-09 06:28:00,58.9,56.0,30.02,North,0,0.0,8.0,90,0.00,,---,0.00,VWS V14.01,2013-10-09 10:28:00,
2013-10-09 06:29:00,58.9,56.0,30.02,NNE,17,2.0,8.0,90,0.00,,---,0.00,VWS V14.01,2013-10-09 10:29:00,
2013-10-09 06:30:00,58.9,56.3,30.02,NNE,17,0.0,8.0,91,0.00,,---,0.00,VWS V14.01,2013-10-09 10:30:00,
2013-10-09 06:31:00,58.9,56.3,30.02,NNE,18,0.0,0.0,91,0.00,,---,0.00,VWS V14.01,2013-10-09 10:31:00,
2013-10-09 06:32:00,58.9,56.3,30.02,NNE,18,0.0,0.0,91,0.00,,---,0.00,VWS V14.01,2013-10-09 10:32:00,
2013-10-09 06:33:00,58.7,56.4,30.02,ENE,69,6.0,6.0,92,0.00,,---,0.00,VWS V14.01,2013-10-09 10:33:00,
2013-10-09 06:34:00,58.7,56.4,30.02,NNE,13,0.0,6.0,92,0.00,,---,0.00,VWS V14.01,2013-10-09 10:34:00,
2013-10-09 06:35:00,58.7,56.4,30.02,NNE,24,7.0,9.0,92,0.00,,---,0.00,VWS V14.01,2013-10-09 10:35:00,
2013-10-09 06:36:00,58.7,56.4,30.02,NNW,335,1.0,9.0,92,0.00,,---,0.00,VWS V14.01,2013-10-09 10:36:00,
2013-10-09 06:37:00,58.6,56.0,30.02,NNW,335,0.0,9.0,91,0.00,,---,0.00,VWS V14.01,2013-10-09 10:37:00,
2013-10-09 06:38:00,58.6,56.0,30.02,North,0,3.0,9.0,91,0.00,,---,0.00,VWS V14.01,2013-10-09 10:38:00,
2013-10-09 06:39:00,58.6,56.0,30.02,North,0,0.0,9.0,91,0.00,,---,0.00,VWS V14.01,2013-10-09 10:39:00,
2013-10-09 06:40:00,58.4,56.1,30.02,North,0,0.0,9.0,92,0.00,,---,0.00,VWS V14.01,2013-10-09 10:40:00,
2013-10-09 06:41:00,58.4,56.1,30.02,NNE,16,2.0,3.0,92,0.00,,---,0.00,VWS V14.01,2013-10-09 10:41:00,
2013-10-09 06:42:00,58.4,56.1,30.02,NNE,24,0.0,3.0,92,0.00,,---,0.00,VWS V14.01,2013-10-09 10:42:00,
2013-10-09 06:43:00,58.4,56.1,30.02,WNW,292,2.0,4.0,92,0.00,,---,0.00,VWS V14.01,2013-10-09 10:43:00,
2013-10-09 06:44:00,58.4,56.1,30.02,NNE,23,3.0,5.0,92,0.00,,---,0.00,VWS V14.01,2013-10-09 10:44:00,
2013-10-09 06:45:00,58.3,56.0,30.02,NNE,21,1.0,5.0,92,0.00,,---,0.00,VWS V14.01,2013-10-09 10:45:00,
2013-10-09 06:46:00,58.3,56.0,30.02,North,3,3.0,5.0,92,0.00,,---,0.00,VWS V14.01,2013-10-09 10:46:00,
2013-10-09 06:47:00,58.3,56.0,30.02,NE,45,7.0,7.0,92,0.00,,---,0.00,VWS V14.01,2013-10-09 10:47:00,
2013-10-09 06:48:00,58.3,56.0,30.02,NNE,28,2.0,10.0,92,0.00,,---,0.00,VWS V14.01,2013-10-09 10:48:00,
2013-10-09 06:49:00,58.3,55.7,30.02,NNE,28,0.0,10.0,91,0.00,,---,0.00,VWS V14.01,2013-10-09 10:49:00,
2013-10-09 06:50:00,58.3,55.7,30.02,NNE,28,0.0,10.0,91,0.00,,---,0.00,VWS V14.01,2013-10-09 10:50:00,
2013-10-09 06:51:00,58.1,55.8,30.02,NNE,13,2.0,4.0,92,0.00,,---,0.00,VWS V14.01,2013-10-09 10:51:00,
2013-10-09 06:52:00,58.1,55.8,30.02,NNE,13,1.0,4.0,92,0.00,,---,0.00,VWS V14.01,2013-10-09 10:52:00,
2013-10-09 06:53:00,58.1,55.8,30.02,NE,38,0.0,4.0,92,0.00,,---,0.00,VWS V14.01,2013-10-09 10:53:00,
2013-10-09 06:54:00,58.1,55.5,30.02,NE,38,0.0,4.0,91,0.00,,---,0.00,VWS V14.01,2013-10-09 10:54:00,
2013-10-09 06:55:00,58.1,55.5,30.02,NE,38,0.0,4.0,91,0.00,,---,0.00,VWS V14.01,2013-10-09 10:55:00,
2013-10-09 06:56:00,58.1,55.5,30.02,North,10,0.0,4.0,91,0.00,,---,0.00,VWS V14.01,2013-10-09 10:56:00,
2013-10-09 06:57:00,58.1,55.8,30.02,North,10,1.0,4.0,92,0.00,,---,0.00,VWS V14.01,2013-10-09 10:57:00,
2013-10-09 06:58:00,58.1,55.8,30.02,North,6,1.0,4.0,92,0.00,,---,0.00,VWS V14.01,2013-10-09 10:58:00,
2013-10-09 06:59:00,58.1,55.8,30.02,North,6,0.0,4.0,92,0.00,,---,0.00,VWS V14.01,2013-10-09 10:59:00,
2013-10-09 07:00:00,58.1,55.8,30.02,NNE,23,4.0,5.0,92,0.00,,---,0.00,VWS V14.01,2013-10-09 11:00:00,
2013-10-09 07:01:00,58.1,55.8,30.02,NNE,31,1.0,3.0,92,0.00,,---,0.00,VWS V14.01,2013-10-09 11:01:00,
2013-10-09 07:02:00,58.1,55.8,30.02,North,1,1.0,3.0,92,0.00,,---,0.00,VWS V14.01,2013-10-09 11:02:00,
2013-10-09 07:03:00,58.1,55.5,30.02,NE,35,0.0,3.0,91,0.00,,---,0.00,VWS V14.01,2013-10-09 11:03:00,
2013-10-09 07:04:00,58.1,55.5,30.02,NE,35,0.0,3.0,91,0.00,,---,0.00,VWS V14.01,2013-10-09 11:04:00,
2013-10-09 07:05:00,58.1,55.5,30.02,NE,48,0.0,3.0,91,0.00,,---,0.00,VWS V14.01,2013-10-09 11:05:00,
2013-10-09 07:06:00,58.1,55.5,30.02,North,10,0.0,3.0,91,0.00,,---,0.00,VWS V14.01,2013-10-09 11:06:00,
2013-10-09 07:07:00,58.1,55.8,30.02,North,10,0.0,3.0,92,0.00,,---,0.00,VWS V14.01,2013-10-09 11:07:00,
2013-10-09 07:08:00,58.1,55.5,30.02,North,10,0.0,3.0,91,0.00,,---,0.00,VWS V14.01,2013-10-09 11:08:00,
2013-10-09 07:09:00,58.1,55.5,30.02,ENE,65,0.0,3.0,91,0.00,,---,0.00,VWS V14.01,2013-10-09 11:09:00,
2013-10-09 07:10:00,58.1,55.5,30.02,North,7,1.0,3.0,91,0.00,,---,0.00,VWS V14.01,2013-10-09 11:10:00,
2013-10-09 07:11:00,58.1,55.5,30.02,SSE,150,2.0,2.0,91,0.00,,---,0.00,VWS V14.01,2013-10-09 11:11:00,
2013-10-09 07:12:00,58.1,55.8,30.02,North,0,0.0,2.0,92,0.00,,---,0.00,VWS V14.01,2013-10-09 11:12:00,
2013-10-09 07:13:00,58.1,55.5,30.02,North,0,0.0,2.0,91,0.00,,---,0.00,VWS V14.01,2013-10-09 11:13:00,
2013-10-09 07:14:00,58.1,55.8,30.02,North,0,0.0,2.0,92,0.00,,---,0.00,VWS V14.01,2013-10-09 11:14:00,
2013-10-09 07:15:00,58.1,55.8,30.02,NNE,17,2.0,2.0,92,0.00,,---,0.00,VWS V14.01,2013-10-09 11:15:00,
2013-10-09 07:16:00,58.1,55.8,30.02,North,0,0.0,5.0,92,0.00,,---,0.00,VWS V14.01,2013-10-09 11:16:00,
2013-10-09 07:17:00,58.1,55.8,30.02,North,0,0.0,5.0,92,0.00,,---,0.00,VWS V14.01,2013-10-09 11:17:00,
2013-10-09 07:18:00,58.1,55.8,30.02,North,0,0.0,5.0,92,0.00,,---,0.00,VWS V14.01,2013-10-09 11:18:00,
2013-10-09 07:19:00,58.1,55.8,30.02,North,1,0.0,5.0,92,0.00,,---,0.00,VWS V14.01,2013-10-09 11:19:00,
2013-10-09 07:20:00,58.1,55.8,30.02,North,356,0.0,5.0,92,0.00,,---,0.00,VWS V14.01,2013-10-09 11:20:00,
2013-10-09 07:21:00,58.1,55.5,30.02,North,0,0.0,2.0,91,0.00,,---,0.00,VWS V14.01,2013-10-09 11:21:00,
2013-10-09 07:22:00,58.1,55.5,30.02,North,0,0.0,2.0,91,0.00,,---,0.00,VWS V14.01,2013-10-09 11:22:00,
2013-10-09 07:23:00,58.1,55.5,30.02,NNW,342,2.0,2.0,91,0.00,,---,0.00,VWS V14.01,2013-10-09 11:23:00,
2013-10-09 07:24:00,58.1,55.5,30.02,NNE,27,3.0,3.0,91,0.00,,---,0.00,VWS V14.01,2013-10-09 11:24:00,
2013-10-09 07:25:00,58.1,55.5,30.02,North,7,1.0,4.0,91,0.00,,---,0.00,VWS V14.01,2013-10-09 11:25:00,
2013-10-09 07:26:00,58.1,55.5,30.02,North,1,0.0,4.0,91,0.00,,---,0.00,VWS V14.01,2013-10-09 11:26:00,
2013-10-09 07:27:00,58.1,55.5,30.02,NNE,23,3.0,4.0,91,0.00,,---,0.00,VWS V14.01,2013-10-09 11:27:00,
2013-10-09 07:28:00,58.1,55.5,30.02,NE,44,0.0,4.0,91,0.00,,---,0.00,VWS V14.01,2013-10-09 11:28:00,
2013-10-09 07:29:00,58.1,55.5,30.02,North,1,3.0,6.0,91,0.00,,---,0.00,VWS V14.01,2013-10-09 11:29:00,
2013-10-09 07:30:00,58.1,55.5,30.02,North,1,3.0,6.0,91,0.00,,---,0.00,VWS V14.01,2013-10-09 11:30:00,
2013-10-09 07:31:00,58.1,55.5,30.02,North,0,1.0,3.0,91,0.00,,---,0.00,VWS V14.01,2013-10-09 11:31:00,
2013-10-09 07:32:00,58.1,55.2,30.02,North,4,1.0,5.0,90,0.00,,---,0.00,VWS V14.01,2013-10-09 11:32:00,
2013-10-09 07:33:00,58.1,55.2,30.02,North,4,0.0,5.0,90,0.00,,---,0.00,VWS V14.01,2013-10-09 11:33:00,
2013-10-09 07:34:00,58.1,55.2,30.02,North,4,0.0,5.0,90,0.00,,---,0.00,VWS V14.01,2013-10-09 11:34:00,
2013-10-09 07:35:00,58.1,55.2,30.02,North,4,0.0,5.0,90,0.00,,---,0.00,VWS V14.01,2013-10-09 11:35:00,
2013-10-09 07:36:00,58.1,55.2,30.02,North,10,0.0,5.0,90,0.00,,---,0.00,VWS V14.01,2013-10-09 11:36:00,
2013-10-09 07:37:00,58.1,55.5,30.02,North,10,0.0,5.0,91,0.00,,---,0.00,VWS V14.01,2013-10-09 11:37:00,
2013-10-09 07:38:00,58.1,55.5,30.02,North,357,0.0,5.0,91,0.00,,---,0.00,VWS V14.01,2013-10-09 11:38:00,
2013-10-09 07:39:00,58.1,55.5,30.02,North,359,0.0,5.0,91,0.00,,---,0.00,VWS V14.01,2013-10-09 11:39:00,
2013-10-09 07:40:00,58.3,55.7,30.02,North,7,2.0,5.0,91,0.00,,---,0.00,VWS V14.01,2013-10-09 11:40:00,
2013-10-09 07:41:00,58.3,55.4,30.02,North,0,3.0,3.0,90,0.00,,---,0.00,VWS V14.01,2013-10-09 11:41:00,
2013-10-09 07:42:00,58.3,55.4,30.02,North,0,0.0,3.0,90,0.00,,---,0.00,VWS V14.01,2013-10-09 11:42:00,
2013-10-09 07:43:00,58.3,55.4,30.02,North,0,0.0,3.0,90,0.00,,---,0.00,VWS V14.01,2013-10-09 11:43:00,
2013-10-09 07:44:00,58.3,55.4,30.02,North,11,6.0,6.0,90,0.00,,---,0.00,VWS V14.01,2013-10-09 11:44:00,
2013-10-09 07:45:00,58.3,55.4,30.03,NNE,14,0.0,6.0,90,0.00,,---,0.00,VWS V14.01,2013-10-09 11:45:00,
2013-10-09 07:46:00,58.3,55.4,30.03,NNE,14,0.0,6.0,90,0.00,,---,0.00,VWS V14.01,2013-10-09 11:46:00,
2013-10-09 07:47:00,58.3,55.4,30.03,NNE,14,0.0,6.0,90,0.00,,---,0.00,VWS V14.01,2013-10-09 11:47:00,
2013-10-09 07:48:00,58.3,55.4,30.03,North,10,0.0,6.0,90,0.00,,---,0.00,VWS V14.01,2013-10-09 11:48:00,
2013-10-09 07:49:00,58.3,55.4,30.03,North,10,0.0,6.0,90,0.00,,---,0.00,VWS V14.01,2013-10-09 11:49:00,
2013-10-09 07:50:00,58.3,55.4,30.03,NNE,25,3.0,6.0,90,0.00,,---,0.00,VWS V14.01,2013-10-09 11:50:00,
2013-10-09 07:51:00,58.3,55.1,30.03,NE,38,0.0,3.0,89,0.00,,---,0.00,VWS V14.01,2013-10-09 11:51:00,
2013-10-09 07:52:00,58.3,55.1,30.03,NE,38,0.0,3.0,89,0.00,,---,0.00,VWS V14.01,2013-10-09 11:52:00,
2013-10-09 07:53:00,58.3,55.1,30.03,NE,38,0.0,3.0,89,0.00,,---,0.00,VWS V14.01,2013-10-09 11:53:00,
2013-10-09 07:54:00,58.3,55.1,30.03,NE,38,0.0,3.0,89,0.00,,---,0.00,VWS V14.01,2013-10-09 11:54:00,
2013-10-09 07:55:00,58.3,55.1,30.03,NNE,21,0.0,3.0,89,0.00,,---,0.00,VWS V14.01,2013-10-09 11:55:00,
2013-10-09 07:56:00,58.3,55.1,30.03,NE,34,5.0,5.0,89,0.00,,---,0.00,VWS V14.01,2013-10-09 11:56:00,
2013-10-09 07:57:00,58.3,55.4,30.03,North,3,0.0,5.0,90,0.00,,---,0.00,VWS V14.01,2013-10-09 11:57:00,
2013-10-09 07:58:00,58.3,55.4,30.03,NE,37,0.0,5.0,90,0.00,,---,0.00,VWS V14.01,2013-10-09 11:58:00,
2013-10-09 07:59:00,58.4,55.5,30.03,ESE,107,1.0,5.0,90,0.00,,---,0.00,VWS V14.01,2013-10-09 11:59:00,
2013-10-09 08:00:00,58.4,55.5,30.03,ESE,107,0.0,5.0,90,0.00,,---,0.00,VWS V14.01,2013-10-09 12:00:00,
2013-10-09 08:01:00,58.4,55.2,30.03,North,7,2.0,2.0,89,0.00,,---,0.00,VWS V14.01,2013-10-09 12:01:00,
2013-10-09 08:02:00,58.4,55.2,30.03,North,0,4.0,8.0,89,0.00,,---,0.00,VWS V14.01,2013-10-09 12:02:00,
2013-10-09 08:03:00,58.4,55.2,30.03,North,0,0.0,8.0,89,0.00,,---,0.00,VWS V14.01,2013-10-09 12:03:00,
2013-10-09 08:04:00,58.4,55.2,30.03,North,0,0.0,8.0,89,0.00,,---,0.00,VWS V14.01,2013-10-09 12:04:00,
2013-10-09 08:05:00,58.4,55.2,30.03,NE,56,0.0,8.0,89,0.00,,---,0.00,VWS V14.01,2013-10-09 12:05:00,
2013-10-09 08:06:00,58.4,55.2,30.03,ENE,58,0.0,8.0,89,0.00,,---,0.00,VWS V14.01,2013-10-09 12:06:00,
2013-10-09 08:07:00,58.4,55.5,30.03,NE,47,3.0,8.0,90,0.00,,---,0.00,VWS V14.01,2013-10-09 12:07:00,
2013-10-09 08:08:00,58.4,55.5,30.03,NE,56,7.0,8.0,90,0.00,,---,0.00,VWS V14.01,2013-10-09 12:08:00,
2013-10-09 08:09:00,58.4,55.5,30.03,North,0,0.0,8.0,90,0.00,,---,0.00,VWS V14.01,2013-10-09 12:09:00,
2013-10-09 08:10:00,58.6,55.7,30.03,NNE,16,0.0,8.0,90,0.00,,---,0.00,VWS V14.01,2013-10-09 12:10:00,
2013-10-09 08:11:00,58.6,55.7,30.03,NNE,27,6.0,6.0,90,0.00,,---,0.00,VWS V14.01,2013-10-09 12:11:00,
2013-10-09 08:12:00,58.6,55.1,30.03,North,3,2.0,6.0,88,0.00,,---,0.00,VWS V14.01,2013-10-09 12:12:00,
2013-10-09 08:13:00,58.6,55.4,30.03,NNE,23,3.0,6.0,89,0.00,,---,0.00,VWS V14.01,2013-10-09 12:13:00,
2013-10-09 08:14:00,58.6,55.4,30.03,NNE,31,2.0,6.0,89,0.00,,---,0.00,VWS V14.01,2013-10-09 12:14:00,
2013-10-09 08:15:00,58.6,55.1,30.04,NNE,31,0.0,6.0,88,0.00,,---,0.00,VWS V14.01,2013-10-09 12:15:00,
2013-10-09 08:16:00,58.6,55.1,30.04,North,8,1.0,6.0,88,0.00,,---,0.00,VWS V14.01,2013-10-09 12:16:00,
2013-10-09 08:17:00,58.7,55.5,30.04,NE,42,0.0,6.0,89,0.00,,---,0.00,VWS V14.01,2013-10-09 12:17:00,
2013-10-09 08:18:00,58.7,55.2,30.04,NNE,30,1.0,6.0,88,0.00,,---,0.00,VWS V14.01,2013-10-09 12:18:00,
2013-10-09 08:19:00,58.7,55.2,30.04,NNE,30,0.0,6.0,88,0.00,,---,0.00,VWS V14.01,2013-10-09 12:19:00,
2013-10-09 08:20:00,58.7,55.2,30.04,ENE,72,6.0,6.0,88,0.00,,---,0.00,VWS V14.01,2013-10-09 12:20:00,
2013-10-09 08:21:00,58.7,55.2,30.04,North,3,2.0,6.0,88,0.00,,---,0.00,VWS V14.01,2013-10-09 12:21:00,
2013-10-09 08:22:00,58.7,55.2,30.04,North,3,2.0,6.0,88,0.00,,---,0.00,VWS V14.01,2013-10-09 12:22:00,
2013-10-09 08:23:00,58.9,55.4,30.04,East,90,1.0,6.0,88,0.00,,---,0.00,VWS V14.01,2013-10-09 12:23:00,
2013-10-09 08:24:00,58.9,55.4,30.04,NE,40,3.0,6.0,88,0.00,,---,0.00,VWS V14.01,2013-10-09 12:24:00,
2013-10-09 08:25:00,58.9,55.4,30.04,NE,35,3.0,6.0,88,0.00,,---,0.00,VWS V14.01,2013-10-09 12:25:00,
2013-10-09 08:26:00,58.9,55.7,30.04,NNE,21,0.0,6.0,89,0.00,,---,0.00,VWS V14.01,2013-10-09 12:26:00,
2013-10-09 08:27:00,58.9,55.4,30.04,North,8,0.0,6.0,88,0.00,,---,0.00,VWS V14.01,2013-10-09 12:27:00,
2013-10-09 08:28:00,59.0,55.5,30.04,North,8,0.0,6.0,88,0.00,,---,0.00,VWS V14.01,2013-10-09 12:28:00,
2013-10-09 08:29:00,59.0,55.5,30.04,North,8,0.0,6.0,88,0.00,,---,0.00,VWS V14.01,2013-10-09 12:29:00,
2013-10-09 08:30:00,59.0,55.5,30.04,North,8,0.0,6.0,88,0.00,,---,0.00,VWS V14.01,2013-10-09 12:30:00,
2013-10-09 08:31:00,59.0,55.5,30.04,North,8,1.0,3.0,88,0.00,,---,0.00,VWS V14.01,2013-10-09 12:31:00,
2013-10-09 08:32:00,59.0,55.5,30.04,North,8,0.0,3.0,88,0.00,,---,0.00,VWS V14.01,2013-10-09 12:32:00,
2013-10-09 08:33:00,59.2,55.3,30.04,NNE,28,2.0,3.0,87,0.00,,---,0.00,VWS V14.01,2013-10-09 12:33:00,
2013-10-09 08:34:00,59.2,55.3,30.04,ENE,65,2.0,3.0,87,0.00,,---,0.00,VWS V14.01,2013-10-09 12:34:00,
2013-10-09 08:35:00,59.2,55.3,30.04,NE,35,0.0,3.0,87,0.00,,---,0.00,VWS V14.01,2013-10-09 12:35:00,
2013-10-09 08:36:00,59.2,55.3,30.04,North,0,0.0,5.0,87,0.00,,---,0.00,VWS V14.01,2013-10-09 12:36:00,
2013-10-09 08:37:00,59.3,55.8,30.04,NNE,23,0.0,5.0,88,0.00,,---,0.00,VWS V14.01,2013-10-09 12:37:00,
2013-10-09 08:38:00,59.3,55.8,30.04,North,8,5.0,8.0,88,0.00,,---,0.00,VWS V14.01,2013-10-09 12:38:00,
2013-10-09 08:39:00,59.3,55.8,30.04,North,0,3.0,8.0,88,0.00,,---,0.00,VWS V14.01,2013-10-09 12:39:00,
2013-10-09 08:40:00,59.3,55.8,30.04,NNW,344,2.0,8.0,88,0.00,,---,0.00,VWS V14.01,2013-10-09 12:40:00,
2013-10-09 08:41:00,59.5,55.6,30.04,WSW,248,0.0,7.0,87,0.00,,---,0.00,VWS V14.01,2013-10-09 12:41:00,
2013-10-09 08:42:00,59.5,55.6,30.04,NNE,20,2.0,7.0,87,0.00,,---,0.00,VWS V14.01,2013-10-09 12:42:00,
2013-10-09 08:43:00,59.5,55.6,30.04,NE,42,3.0,7.0,87,0.00,,---,0.00,VWS V14.01,2013-10-09 12:43:00,
2013-10-09 08:44:00,59.5,55.6,30.04,NNE,25,2.0,7.0,87,0.00,,---,0.00,VWS V14.01,2013-10-09 12:44:00,
2013-10-09 08:45:00,59.5,55.3,30.04,NNE,25,0.0,7.0,86,0.00,,---,0.00,VWS V14.01,2013-10-09 12:45:00,
2013-10-09 08:46:00,59.6,55.4,30.04,North,350,4.0,7.0,86,0.00,,---,0.00,VWS V14.01,2013-10-09 12:46:00,
2013-10-09 08:47:00,59.6,55.7,30.04,NNE,24,7.0,7.0,87,0.00,,---,0.00,VWS V14.01,2013-10-09 12:47:00,
2013-10-09 08:48:00,59.6,55.4,30.04,North,359,0.0,7.0,86,0.00,,---,0.00,VWS V14.01,2013-10-09 12:48:00,
2013-10-09 08:49:00,59.8,55.6,30.04,North,359,0.0,7.0,86,0.00,,---,0.00,VWS V14.01,2013-10-09 12:49:00,
2013-10-09 08:50:00,59.8,55.6,30.04,ENE,75,2.0,7.0,86,0.00,,---,0.00,VWS V14.01,2013-10-09 12:50:00,
2013-10-09 08:51:00,59.8,55.6,30.04,NE,45,6.0,6.0,86,0.00,,---,0.00,VWS V14.01,2013-10-09 12:51:00,
2013-10-09 08:52:00,59.9,55.7,30.04,NNE,28,4.0,8.0,86,0.00,,---,0.00,VWS V14.01,2013-10-09 12:52:00,
2013-10-09 08:53:00,59.9,56.0,30.04,NE,35,3.0,8.0,87,0.00,,---,0.00,VWS V14.01,2013-10-09 12:53:00,
2013-10-09 08:54:00,59.9,55.7,30.04,NE,41,2.0,8.0,86,0.00,,---,0.00,VWS V14.01,2013-10-09 12:54:00,
2013-10-09 08:55:00,59.9,55.7,30.04,NE,34,0.0,8.0,86,0.00,,---,0.00,VWS V14.01,2013-10-09 12:55:00,
2013-10-09 08:56:00,60.1,55.9,30.04,NW,304,0.0,8.0,86,0.00,,---,0.00,VWS V14.01,2013-10-09 12:56:00,
2013-10-09 08:57:00,60.1,55.9,30.04,North,0,5.0,8.0,86,0.00,,---,0.00,VWS V14.01,2013-10-09 12:57:00,
2013-10-09 08:58:00,60.1,55.9,30.04,NNE,21,3.0,8.0,86,0.00,,---,0.00,VWS V14.01,2013-10-09 12:58:00,
2013-10-09 08:59:00,60.1,55.9,30.04,NE,51,3.0,8.0,86,0.00,,---,0.00,VWS V14.01,2013-10-09 12:59:00,
2013-10-09 09:00:00,60.2,55.7,30.04,North,359,0.0,8.0,85,0.00,,---,0.00,VWS V14.01,2013-10-09 13:00:00,
2013-10-09 09:01:00,60.2,55.7,30.04,NE,47,5.0,5.0,85,0.00,,---,0.00,VWS V14.01,2013-10-09 13:01:00,
2013-10-09 09:02:00,60.2,55.7,30.04,NNE,30,1.0,5.0,85,0.00,,---,0.00,VWS V14.01,2013-10-09 13:02:00,
2013-10-09 09:03:00,60.2,55.7,30.04,ENE,65,4.0,8.0,85,0.00,,---,0.00,VWS V14.01,2013-10-09 13:03:00,
2013-10-09 09:04:00,60.4,55.9,30.04,East,80,4.0,8.0,85,0.00,,---,0.00,VWS V14.01,2013-10-09 13:04:00,
2013-10-09 09:05:00,60.4,56.2,30.04,NNW,333,2.0,8.0,86,0.00,,---,0.00,VWS V14.01,2013-10-09 13:05:00,
2013-10-09 09:06:00,60.4,56.2,30.04,ENE,78,1.0,8.0,86,0.00,,---,0.00,VWS V14.01,2013-10-09 13:06:00,
2013-10-09 09:07:00,60.4,56.2,30.04,ENE,73,0.0,8.0,86,0.00,,---,0.00,VWS V14.01,2013-10-09 13:07:00,
2013-10-09 09:08:00,60.5,56.3,30.04,North,1,1.0,8.0,86,0.00,,---,0.00,VWS V14.01,2013-10-09 13:08:00,
2013-10-09 09:09:00,60.5,56.3,30.04,NNE,24,4.0,8.0,86,0.00,,---,0.00,VWS V14.01,2013-10-09 13:09:00,
2013-10-09 09:10:00,60.5,56.3,30.04,ENE,62,3.0,8.0,86,0.00,,---,0.00,VWS V14.01,2013-10-09 13:10:00,
2013-10-09 09:11:00,60.7,56.5,30.04,North,0,1.0,4.0,86,0.00,,---,0.00,VWS V14.01,2013-10-09 13:11:00,
2013-10-09 09:12:00,60.7,56.5,30.04,NNE,30,6.0,6.0,86,0.00,,---,0.00,VWS V14.01,2013-10-09 13:12:00,
2013-10-09 09:13:00,60.7,56.2,30.04,NE,42,5.0,7.0,85,0.00,,---,0.00,VWS V14.01,2013-10-09 13:13:00,
2013-10-09 09:14:00,60.9,56.4,30.04,NNE,28,7.0,7.0,85,0.00,,---,0.00,VWS V14.01,2013-10-09 13:14:00,
2013-10-09 09:15:00,60.9,56.4,30.04,North,10,5.0,8.0,85,0.00,,---,0.00,VWS V14.01,2013-10-09 13:15:00,
2013-10-09 09:16:00,61.0,56.1,30.04,North,0,0.0,8.0,84,0.00,,---,0.00,VWS V14.01,2013-10-09 13:16:00,
2013-10-09 09:17:00,61.0,56.1,30.04,NNE,24,3.0,8.0,84,0.00,,---,0.00,VWS V14.01,2013-10-09 13:17:00,
2013-10-09 09:18:00,61.0,56.5,30.04,WNW,287,2.0,8.0,85,0.00,,---,0.00,VWS V14.01,2013-10-09 13:18:00,
2013-10-09 09:19:00,61.2,56.7,30.04,NE,35,2.0,8.0,85,0.00,,---,0.00,VWS V14.01,2013-10-09 13:19:00,
2013-10-09 09:20:00,61.2,56.7,30.04,NE,38,1.0,10.0,85,0.00,,---,0.00,VWS V14.01,2013-10-09 13:20:00,
2013-10-09 09:21:00,61.3,56.8,30.04,NNE,16,2.0,5.0,85,0.00,,---,0.00,VWS V14.01,2013-10-09 13:21:00,
2013-10-09 09:22:00,61.3,56.4,30.04,NE,41,7.0,7.0,84,0.00,,---,0.00,VWS V14.01,2013-10-09 13:22:00,
2013-10-09 09:23:00,61.3,56.4,30.04,NNE,32,0.0,8.0,84,0.00,,---,0.00,VWS V14.01,2013-10-09 13:23:00,
2013-10-09 09:24:00,61.5,56.6,30.04,NNE,25,2.0,8.0,84,0.00,,---,0.00,VWS V14.01,2013-10-09 13:24:00,
2013-10-09 09:25:00,61.5,56.6,30.04,NNE,17,6.0,8.0,84,0.00,,---,0.00,VWS V14.01,2013-10-09 13:25:00,
2013-10-09 09:26:00,61.5,56.6,30.04,East,92,6.0,8.0,84,0.00,,---,0.00,VWS V14.01,2013-10-09 13:26:00,
2013-10-09 09:27:00,61.6,56.7,30.04,North,0,4.0,12.0,84,0.00,,---,0.00,VWS V14.01,2013-10-09 13:27:00,
2013-10-09 09:28:00,61.6,56.7,30.04,NNW,329,3.0,12.0,84,0.00,,---,0.00,VWS V14.01,2013-10-09 13:28:00,
2013-10-09 09:29:00,61.8,56.9,30.04,NNW,332,0.0,12.0,84,0.00,,---,0.00,VWS V14.01,2013-10-09 13:29:00,
2013-10-09 09:30:00,61.8,56.9,30.04,NNE,31,4.0,12.0,84,0.00,,---,0.00,VWS V14.01,2013-10-09 13:30:00,
2013-10-09 09:31:00,62.0,57.1,30.04,NNE,27,3.0,4.0,84,0.00,,---,0.00,VWS V14.01,2013-10-09 13:31:00,
2013-10-09 09:32:00,62.0,57.1,30.04,NE,34,7.0,7.0,84,0.00,,---,0.00,VWS V14.01,2013-10-09 13:32:00,
2013-10-09 09:33:00,62.1,56.9,30.04,North,0,2.0,7.0,83,0.00,,---,0.00,VWS V14.01,2013-10-09 13:33:00,
2013-10-09 09:34:00,62.1,56.9,30.04,North,11,1.0,7.0,83,0.00,,---,0.00,VWS V14.01,2013-10-09 13:34:00,
2013-10-09 09:35:00,62.1,56.9,30.04,North,11,0.0,7.0,83,0.00,,---,0.00,VWS V14.01,2013-10-09 13:35:00,
2013-10-09 09:36:00,62.3,57.1,30.04,NNE,14,0.0,7.0,83,0.00,,---,0.00,VWS V14.01,2013-10-09 13:36:00,
2013-10-09 09:37:00,62.3,57.1,30.04,NE,54,4.0,7.0,83,0.00,,---,0.00,VWS V14.01,2013-10-09 13:37:00,
2013-10-09 09:38:00,62.4,57.2,30.04,North,6,3.0,7.0,83,0.00,,---,0.00,VWS V14.01,2013-10-09 13:38:00,
2013-10-09 09:39:00,62.4,57.5,30.04,North,0,0.0,7.0,84,0.00,,---,0.00,VWS V14.01,2013-10-09 13:39:00,
2013-10-09 09:40:00,62.4,57.2,30.04,NNE,30,6.0,7.0,83,0.00,,---,0.00,VWS V14.01,2013-10-09 13:40:00,
2013-10-09 09:41:00,62.6,57.4,30.04,ENE,65,6.0,6.0,83,0.00,,---,0.00,VWS V14.01,2013-10-09 13:41:00,
2013-10-09 09:42:00,62.6,57.0,30.04,NNW,329,3.0,6.0,82,0.00,,---,0.00,VWS V14.01,2013-10-09 13:42:00,
2013-10-09 09:43:00,62.7,57.1,30.04,NW,312,0.0,6.0,82,0.00,,---,0.00,VWS V14.01,2013-10-09 13:43:00,
2013-10-09 09:44:00,62.9,57.3,30.04,NNE,20,6.0,6.0,82,0.00,,---,0.00,VWS V14.01,2013-10-09 13:44:00,
2013-10-09 09:45:00,62.9,57.3,30.04,NNE,24,2.0,6.0,82,0.00,,---,0.00,VWS V14.01,2013-10-09 13:45:00,
2013-10-09 09:46:00,63.1,57.5,30.04,North,6,6.0,12.0,82,0.00,,---,0.00,VWS V14.01,2013-10-09 13:46:00,
2013-10-09 09:47:00,63.1,57.5,30.04,North,11,5.0,12.0,82,0.00,,---,0.00,VWS V14.01,2013-10-09 13:47:00,
2013-10-09 09:48:00,63.2,57.3,30.04,North,0,0.0,12.0,81,0.00,,---,0.00,VWS V14.01,2013-10-09 13:48:00,
2013-10-09 09:49:00,63.2,57.3,30.04,North,3,1.0,12.0,81,0.00,,---,0.00,VWS V14.01,2013-10-09 13:49:00,
2013-10-09 09:50:00,63.4,57.5,30.04,North,6,3.0,12.0,81,0.00,,---,0.00,VWS V14.01,2013-10-09 13:50:00,
2013-10-09 09:51:00,63.4,57.5,30.04,NE,40,7.0,7.0,81,0.00,,---,0.00,VWS V14.01,2013-10-09 13:51:00,
2013-10-09 09:52:00,63.5,57.9,30.04,NE,40,13.0,13.0,82,0.00,,---,0.00,VWS V14.01,2013-10-09 13:52:00,
2013-10-09 09:53:00,63.5,57.6,30.04,NE,34,11.0,14.0,81,0.00,,---,0.00,VWS V14.01,2013-10-09 13:53:00,
2013-10-09 09:54:00,63.7,56.7,30.04,NE,42,3.0,14.0,78,0.00,,---,0.00,VWS V14.01,2013-10-09 13:54:00,
2013-10-09 09:55:00,63.7,57.1,30.04,NE,37,1.0,14.0,79,0.00,,---,0.00,VWS V14.01,2013-10-09 13:55:00,
2013-10-09 09:56:00,63.7,57.1,30.04,NE,47,0.0,14.0,79,0.00,,---,0.00,VWS V14.01,2013-10-09 13:56:00,
2013-10-09 09:57:00,63.7,57.4,30.04,North,7,2.0,14.0,80,0.00,,---,0.00,VWS V14.01,2013-10-09 13:57:00,
2013-10-09 09:58:00,63.9,57.6,30.04,East,79,10.0,14.0,80,0.00,,---,0.00,VWS V14.01,2013-10-09 13:58:00,
2013-10-09 09:59:00,63.9,57.6,30.04,NE,40,2.0,14.0,80,0.00,,---,0.00,VWS V14.01,2013-10-09 13:59:00,
2013-10-09 10:00:00,63.9,57.3,30.04,NNE,14,1.0,14.0,79,0.00,,---,0.00,VWS V14.01,2013-10-09 14:00:00,
2013-10-09 10:01:00,63.9,57.3,30.04,NNE,16,0.0,3.0,79,0.00,,---,0.00,VWS V14.01,2013-10-09 14:01:00,
2013-10-09 10:02:00,63.9,57.6,30.04,NE,41,7.0,7.0,80,0.00,,---,0.00,VWS V14.01,2013-10-09 14:02:00,
2013-10-09 10:03:00,63.9,57.3,30.04,NNE,20,1.0,8.0,79,0.00,,---,0.00,VWS V14.01,2013-10-09 14:03:00,
2013-10-09 10:04:00,63.9,57.3,30.04,NNE,25,14.0,14.0,79,0.00,,---,0.00,VWS V14.01,2013-10-09 14:04:00,
2013-10-09 10:05:00,63.9,57.3,30.04,North,6,3.0,14.0,79,0.00,,---,0.00,VWS V14.01,2013-10-09 14:05:00,
2013-10-09 10:06:00,63.7,56.7,30.04,NE,52,4.0,14.0,78,0.00,,---,0.00,VWS V14.01,2013-10-09 14:06:00,
2013-10-09 10:07:00,63.7,57.1,30.04,NNE,14,6.0,14.0,79,0.00,,---,0.00,VWS V14.01,2013-10-09 14:07:00,
2013-10-09 10:08:00,63.7,57.4,30.04,NNE,17,5.0,14.0,80,0.00,,---,0.00,VWS V14.01,2013-10-09 14:08:00,
2013-10-09 10:09:00,63.7,57.4,30.04,NNE,25,2.0,14.0,80,0.00,,---,0.00,VWS V14.01,2013-10-09 14:09:00,
2013-10-09 10:10:00,63.7,57.1,30.04,NE,34,2.0,14.0,79,0.00,,---,0.00,VWS V14.01,2013-10-09 14:10:00,
2013-10-09 10:11:00,63.7,57.1,30.04,NE,38,2.0,3.0,79,0.00,,---,0.00,VWS V14.01,2013-10-09 14:11:00,
2013-10-09 10:12:00,63.7,57.4,30.04,NNE,24,6.0,6.0,80,0.00,,---,0.00,VWS V14.01,2013-10-09 14:12:00,
2013-10-09 10:13:00,63.7,57.8,30.04,North,0,2.0,6.0,81,0.00,,---,0.00,VWS V14.01,2013-10-09 14:13:00,
2013-10-09 10:14:00,63.7,57.4,30.04,NE,48,11.0,13.0,80,0.00,,---,0.00,VWS V14.01,2013-10-09 14:14:00,
2013-10-09 10:15:00,63.7,57.4,30.04,NE,40,7.0,13.0,80,0.00,,---,0.00,VWS V14.01,2013-10-09 14:15:00,
2013-10-09 10:16:00,63.7,57.4,30.04,NE,56,4.0,13.0,80,0.00,,---,0.00,VWS V14.01,2013-10-09 14:16:00,
2013-10-09 10:17:00,63.7,57.1,30.04,NNW,343,2.0,13.0,79,0.00,,---,0.00,VWS V14.01,2013-10-09 14:17:00,
2013-10-09 10:18:00,63.7,57.4,30.04,ENE,61,6.0,13.0,80,0.00,,---,0.00,VWS V14.01,2013-10-09 14:18:00,
2013-10-09 10:19:00,63.7,57.1,30.04,NW,313,0.0,13.0,79,0.00,,---,0.00,VWS V14.01,2013-10-09 14:19:00,
2013-10-09 10:20:00,63.9,57.3,30.04,NNE,31,5.0,13.0,79,0.00,,---,0.00,VWS V14.01,2013-10-09 14:20:00,
2013-10-09 10:21:00,63.9,57.6,30.04,North,356,2.0,7.0,80,0.00,,---,0.00,VWS V14.01,2013-10-09 14:21:00,
2013-10-09 10:22:00,63.9,57.6,30.04,North,7,2.0,7.0,80,0.00,,---,0.00,VWS V14.01,2013-10-09 14:22:00,
2013-10-09 10:23:00,63.9,57.6,30.04,NW,306,3.0,7.0,80,0.00,,---,0.00,VWS V14.01,2013-10-09 14:23:00,
2013-10-09 10:24:00,63.9,58.0,30.04,NNE,14,5.0,8.0,81,0.00,,---,0.00,VWS V14.01,2013-10-09 14:24:00,
2013-10-09 10:25:00,63.9,58.0,30.04,North,7,5.0,8.0,81,0.00,,---,0.00,VWS V14.01,2013-10-09 14:25:00,
2013-10-09 10:26:00,63.9,57.3,30.04,NNE,21,7.0,10.0,79,0.00,,---,0.00,VWS V14.01,2013-10-09 14:26:00,
2013-10-09 10:27:00,63.7,57.4,30.04,NNE,25,7.0,10.0,80,0.00,,---,0.00,VWS V14.01,2013-10-09 14:27:00,
2013-10-09 10:28:00,63.7,57.1,30.04,East,80,8.0,10.0,79,0.00,,---,0.00,VWS V14.01,2013-10-09 14:28:00,
2013-10-09 10:29:00,63.7,57.1,30.04,North,6,3.0,10.0,79,0.00,,---,0.00,VWS V14.01,2013-10-09 14:29:00,
2013-10-09 10:30:00,63.7,57.4,30.04,NNW,332,5.0,10.0,80,0.00,,---,0.00,VWS V14.01,2013-10-09 14:30:00,
2013-10-09 10:31:00,63.7,57.4,30.04,NE,47,5.0,9.0,80,0.00,,---,0.00,VWS V14.01,2013-10-09 14:31:00,
2013-10-09 10:32:00,63.7,57.4,30.04,NNE,16,9.0,9.0,80,0.00,,---,0.00,VWS V14.01,2013-10-09 14:32:00,
2013-10-09 10:33:00,63.7,57.4,30.04,North,0,2.0,10.0,80,0.00,,---,0.00,VWS V14.01,2013-10-09 14:33:00,
2013-10-09 10:34:00,63.7,57.4,30.04,North,11,6.0,11.0,80,0.00,,---,0.00,VWS V14.01,2013-10-09 14:34:00,
2013-10-09 10:35:00,63.5,57.2,30.04,ENE,64,12.0,12.0,80,0.00,,---,0.00,VWS V14.01,2013-10-09 14:35:00,
2013-10-09 10:36:00,63.5,56.9,30.04,NE,47,6.0,12.0,79,0.00,,---,0.00,VWS V14.01,2013-10-09 14:36:00,
2013-10-09 10:37:00,63.5,56.9,30.04,NNE,18,11.0,12.0,79,0.00,,---,0.00,VWS V14.01,2013-10-09 14:37:00,
2013-10-09 10:38:00,63.5,57.2,30.04,NE,45,4.0,12.0,80,0.00,,---,0.00,VWS V14.01,2013-10-09 14:38:00,
2013-10-09 10:39:00,63.5,57.2,30.04,ENE,62,3.0,12.0,80,0.00,,---,0.00,VWS V14.01,2013-10-09 14:39:00,
2013-10-09 10:40:00,63.5,57.2,30.04,NNE,32,3.0,12.0,80,0.00,,---,0.00,VWS V14.01,2013-10-09 14:40:00,
2013-10-09 10:41:00,63.5,57.2,30.04,North,4,9.0,9.0,80,0.00,,---,0.00,VWS V14.01,2013-10-09 14:41:00,
2013-10-09 10:42:00,63.5,57.6,30.04,NE,54,2.0,10.0,81,0.00,,---,0.00,VWS V14.01,2013-10-09 14:42:00,
2013-10-09 10:43:00,63.5,57.6,30.04,NNE,27,2.0,10.0,81,0.00,,---,0.00,VWS V14.01,2013-10-09 14:43:00,
2013-10-09 10:44:00,63.5,57.6,30.04,North,3,3.0,10.0,81,0.00,,---,0.00,VWS V14.01,2013-10-09 14:44:00,
2013-10-09 10:45:00,63.5,57.6,30.04,North,7,3.0,10.0,81,0.00,,---,0.00,VWS V14.01,2013-10-09 14:45:00,
2013-10-09 10:46:00,63.5,57.6,30.04,North,10,5.0,10.0,81,0.00,,---,0.00,VWS V14.01,2013-10-09 14:46:00,
2013-10-09 10:47:00,63.7,57.4,30.04,ENE,59,12.0,12.0,80,0.00,,---,0.00,VWS V14.01,2013-10-09 14:47:00,
2013-10-09 10:48:00,63.7,57.4,30.04,NNE,31,9.0,16.0,80,0.00,,---,0.00,VWS V14.01,2013-10-09 14:48:00,
2013-10-09 10:49:00,63.7,57.8,30.04,NE,48,8.0,16.0,81,0.00,,---,0.00,VWS V14.01,2013-10-09 14:49:00,
2013-10-09 10:50:00,63.9,58.0,30.04,North,353,5.0,16.0,81,0.00,,---,0.00,VWS V14.01,2013-10-09 14:50:00,
2013-10-09 10:51:00,63.9,57.6,30.04,North,7,1.0,9.0,80,0.00,,---,0.00,VWS V14.01,2013-10-09 14:51:00,
2013-10-09 10:52:00,63.9,57.6,30.04,NNE,32,8.0,9.0,80,0.00,,---,0.00,VWS V14.01,2013-10-09 14:52:00,
2013-10-09 10:53:00,63.9,58.0,30.04,North,4,3.0,9.0,81,0.00,,---,0.00,VWS V14.01,2013-10-09 14:53:00,
2013-10-09 10:54:00,64.0,57.7,30.04,NW,313,1.0,9.0,80,0.00,,---,0.00,VWS V14.01,2013-10-09 14:54:00,
2013-10-09 10:55:00,64.0,58.1,30.04,NE,47,3.0,9.0,81,0.00,,---,0.00,VWS V14.01,2013-10-09 14:55:00,
2013-10-09 10:56:00,64.0,58.1,30.04,North,10,4.0,14.0,81,0.00,,---,0.00,VWS V14.01,2013-10-09 14:56:00,
2013-10-09 10:57:00,64.0,57.7,30.04,North,0,11.0,14.0,80,0.00,,---,0.00,VWS V14.01,2013-10-09 14:57:00,
2013-10-09 10:58:00,64.0,57.7,30.04,NNE,23,3.0,14.0,80,0.00,,---,0.00,VWS V14.01,2013-10-09 14:58:00,
2013-10-09 10:59:00,64.0,57.7,30.04,NNE,14,4.0,14.0,80,0.00,,---,0.00,VWS V14.01,2013-10-09 14:59:00,
2013-10-09 11:00:00,64.0,57.7,30.05,North,7,3.0,14.0,80,0.00,,---,0.00,VWS V14.01,2013-10-09 15:00:00,
2013-10-09 11:01:00,64.2,57.9,30.05,NE,41,1.0,6.0,80,0.00,,---,0.00,VWS V14.01,2013-10-09 15:01:00,
2013-10-09 11:02:00,64.2,57.9,30.05,NNE,24,1.0,7.0,80,0.00,,---,0.00,VWS V14.01,2013-10-09 15:02:00,
2013-10-09 11:03:00,64.2,57.9,30.05,NE,54,8.0,8.0,80,0.00,,---,0.00,VWS V14.01,2013-10-09 15:03:00,
2013-10-09 11:04:00,64.2,57.9,30.05,NE,42,6.0,8.0,80,0.00,,---,0.00,VWS V14.01,2013-10-09 15:04:00,
2013-10-09 11:05:00,64.2,58.3,30.05,NNE,24,11.0,11.0,81,0.00,,---,0.00,VWS V14.01,2013-10-09 15:05:00,
2013-10-09 11:06:00,64.2,58.3,30.05,NNE,21,7.0,11.0,81,0.00,,---,0.00,VWS V14.01,2013-10-09 15:06:00,
2013-10-09 11:07:00,64.2,57.6,30.05,ENE,68,12.0,12.0,79,0.00,,---,0.00,VWS V14.01,2013-10-09 15:07:00,
2013-10-09 11:08:00,64.2,57.9,30.05,North,0,0.0,12.0,80,0.00,,---,0.00,VWS V14.01,2013-10-09 15:08:00,
2013-10-09 11:09:00,64.2,57.9,30.05,North,0,2.0,12.0,80,0.00,,---,0.00,VWS V14.01,2013-10-09 15:09:00,
2013-10-09 11:10:00,64.2,57.9,30.05,NE,37,4.0,12.0,80,0.00,,---,0.00,VWS V14.01,2013-10-09 15:10:00,
2013-10-09 11:11:00,64.2,57.6,30.05,NW,306,3.0,11.0,79,0.00,,---,0.00,VWS V14.01,2013-10-09 15:11:00,
2013-10-09 11:12:00,64.2,57.6,30.05,NE,38,5.0,11.0,79,0.00,,---,0.00,VWS V14.01,2013-10-09 15:12:00,
2013-10-09 11:13:00,64.2,57.6,30.05,NNE,20,5.0,11.0,79,0.00,,---,0.00,VWS V14.01,2013-10-09 15:13:00,
2013-10-09 11:14:00,64.2,57.6,30.05,NNE,18,2.0,11.0,79,0.00,,---,0.00,VWS V14.01,2013-10-09 15:14:00,
2013-10-09 11:15:00,64.2,57.6,30.04,NNE,21,5.0,11.0,79,0.00,,---,0.00,VWS V14.01,2013-10-09 15:15:00,
2013-10-09 11:16:00,64.2,57.9,30.04,SE,131,0.0,11.0,80,0.00,,---,0.00,VWS V14.01,2013-10-09 15:16:00,
2013-10-09 11:17:00,64.2,58.3,30.04,NNE,21,3.0,11.0,81,0.00,,---,0.00,VWS V14.01,2013-10-09 15:17:00,
2013-10-09 11:18:00,64.2,57.9,30.04,North,0,5.0,12.0,80,0.00,,---,0.00,VWS V14.01,2013-10-09 15:18:00,
2013-10-09 11:19:00,64.2,57.9,30.04,North,0,5.0,12.0,80,0.00,,---,0.00,VWS V14.01,2013-10-09 15:19:00,
2013-10-09 11:20:00,64.2,57.9,30.04,NNE,31,0.0,12.0,80,0.00,,---,0.00,VWS V14.01,2013-10-09 15:20:00,
2013-10-09 11:21:00,64.2,57.9,30.04,NE,40,1.0,1.0,80,0.00,,---,0.00,VWS V14.01,2013-10-09 15:21:00,
2013-10-09 11:22:00,64.0,57.7,30.04,North,0,2.0,6.0,80,0.00,,---,0.00,VWS V14.01,2013-10-09 15:22:00,
2013-10-09 11:23:00,64.0,58.1,30.04,ENE,61,8.0,9.0,81,0.00,,---,0.00,VWS V14.01,2013-10-09 15:23:00,
2013-10-09 11:24:00,64.0,57.7,30.04,NE,42,2.0,9.0,80,0.00,,---,0.00,VWS V14.01,2013-10-09 15:24:00,
2013-10-09 11:25:00,64.0,57.7,30.04,North,349,0.0,9.0,80,0.00,,---,0.00,VWS V14.01,2013-10-09 15:25:00,
2013-10-09 11:26:00,64.0,58.1,30.04,NE,37,1.0,9.0,81,0.00,,---,0.00,VWS V14.01,2013-10-09 15:26:00,
2013-10-09 11:27:00,64.0,58.1,30.04,North,4,2.0,9.0,81,0.00,,---,0.00,VWS V14.01,2013-10-09 15:27:00,
2013-10-09 11:28:00,64.0,58.1,30.04,North,4,0.0,9.0,81,0.00,,---,0.00,VWS V14.01,2013-10-09 15:28:00,
2013-10-09 11:29:00,64.0,58.1,30.04,North,8,2.0,9.0,81,0.00,,---,0.00,VWS V14.01,2013-10-09 15:29:00,
2013-10-09 11:30:00,64.0,58.4,30.04,NE,37,3.0,9.0,82,0.00,,---,0.00,VWS V14.01,2013-10-09 15:30:00,
2013-10-09 11:31:00,63.9,58.0,30.04,North,0,1.0,3.0,81,0.00,,---,0.00,VWS V14.01,2013-10-09 15:31:00,
2013-10-09 11:32:00,63.9,58.0,30.04,North,0,0.0,3.0,81,0.00,,---,0.00,VWS V14.01,2013-10-09 15:32:00,
2013-10-09 11:33:00,63.9,58.3,30.04,North,6,2.0,3.0,82,0.00,,---,0.00,VWS V14.01,2013-10-09 15:33:00,
2013-10-09 11:34:00,63.9,58.3,30.04,NNE,20,0.0,3.0,82,0.00,,---,0.00,VWS V14.01,2013-10-09 15:34:00,
2013-10-09 11:35:00,63.9,58.3,30.04,NE,41,2.0,5.0,82,0.00,,---,0.00,VWS V14.01,2013-10-09 15:35:00,
2013-10-09 11:36:00,63.9,58.3,30.04,NNE,14,3.0,5.0,82,0.00,,---,0.00,VWS V14.01,2013-10-09 15:36:00,
2013-10-09 11:37:00,63.9,58.3,30.04,NNE,17,1.0,5.0,82,0.00,,---,0.00,VWS V14.01,2013-10-09 15:37:00,
2013-10-09 11:38:00,63.9,58.3,30.04,NNE,28,2.0,5.0,82,0.00,,---,0.00,VWS V14.01,2013-10-09 15:38:00,
2013-10-09 11:39:00,63.9,58.6,30.04,NNE,32,0.0,5.0,83,0.00,,---,0.00,VWS V14.01,2013-10-09 15:39:00,
2013-10-09 11:40:00,63.9,58.6,30.04,East,82,3.0,5.0,83,0.00,,---,0.00,VWS V14.01,2013-10-09 15:40:00,
2013-10-09 11:41:00,63.9,58.6,30.04,North,7,2.0,5.0,83,0.00,,---,0.00,VWS V14.01,2013-10-09 15:41:00,
2013-10-09 11:42:00,63.9,58.6,30.04,NNE,18,0.0,5.0,83,0.00,,---,0.00,VWS V14.01,2013-10-09 15:42:00,
2013-10-09 11:43:00,63.7,58.8,30.04,North,0,6.0,6.0,84,0.00,,---,0.00,VWS V14.01,2013-10-09 15:43:00,
2013-10-09 11:44:00,63.7,58.5,30.04,North,6,1.0,6.0,83,0.00,,---,0.00,VWS V14.01,2013-10-09 15:44:00,
2013-10-09 11:45:00,63.7,58.5,30.04,NNW,344,5.0,7.0,83,0.00,,---,0.00,VWS V14.01,2013-10-09 15:45:00,
2013-10-09 11:46:00,63.7,58.5,30.04,North,359,1.0,16.0,83,0.00,,---,0.00,VWS V14.01,2013-10-09 15:46:00,
2013-10-09 11:47:00,63.7,58.1,30.04,North,352,3.0,16.0,82,0.00,,---,0.00,VWS V14.01,2013-10-09 15:47:00,
2013-10-09 11:48:00,63.5,58.2,30.04,NNE,27,0.0,16.0,83,0.00,,---,0.00,VWS V14.01,2013-10-09 15:48:00,
2013-10-09 11:49:00,63.5,58.2,30.04,NNE,27,0.0,16.0,83,0.00,,---,0.00,VWS V14.01,2013-10-09 15:49:00,
2013-10-09 11:50:00,63.5,58.2,30.04,NNE,25,0.0,16.0,83,0.00,,---,0.00,VWS V14.01,2013-10-09 15:50:00,
2013-10-09 11:51:00,63.5,58.2,30.04,NNE,25,0.0,0.0,83,0.00,,---,0.00,VWS V14.01,2013-10-09 15:51:00,
2013-10-09 11:52:00,63.5,58.2,30.04,East,85,2.0,3.0,83,0.00,,---,0.00,VWS V14.01,2013-10-09 15:52:00,
2013-10-09 11:53:00,63.5,58.6,30.04,WNW,299,0.0,3.0,84,0.00,,---,0.00,VWS V14.01,2013-10-09 15:53:00,
2013-10-09 11:54:00,63.5,58.6,30.04,NNE,25,0.0,3.0,84,0.00,,---,0.00,VWS V14.01,2013-10-09 15:54:00,
2013-10-09 11:55:00,63.5,58.6,30.04,NE,34,0.0,3.0,84,0.00,,---,0.00,VWS V14.01,2013-10-09 15:55:00,
2013-10-09 11:56:00,63.5,58.9,30.04,NE,34,0.0,3.0,85,0.00,,---,0.00,VWS V14.01,2013-10-09 15:56:00,
2013-10-09 11:57:00,63.5,58.9,30.04,North,357,3.0,3.0,85,0.00,,---,0.00,VWS V14.01,2013-10-09 15:57:00,
2013-10-09 11:58:00,63.5,58.9,30.04,North,7,0.0,3.0,85,0.00,,---,0.00,VWS V14.01,2013-10-09 15:58:00,
2013-10-09 11:59:00,63.5,58.9,30.04,North,0,0.0,3.0,85,0.00,,---,0.00,VWS V14.01,2013-10-09 15:59:00,
2013-10-09 12:00:00,63.5,58.9,30.04,NNW,347,3.0,7.0,85,0.00,,---,0.00,VWS V14.01,2013-10-09 16:00:00,
2013-10-09 12:01:00,63.5,58.9,30.04,NNW,347,0.0,3.0,85,0.00,,---,0.00,VWS V14.01,2013-10-09 16:01:00,
2013-10-09 12:02:00,63.4,58.8,30.04,North,349,0.0,3.0,85,0.00,,---,0.00,VWS V14.01,2013-10-09 16:02:00,
2013-10-09 12:03:00,63.4,58.8,30.04,North,357,0.0,3.0,85,0.00,,---,0.00,VWS V14.01,2013-10-09 16:03:00,
2013-10-09 12:04:00,63.4,58.8,30.04,North,357,0.0,3.0,85,0.00,,---,0.00,VWS V14.01,2013-10-09 16:04:00,
2013-10-09 12:05:00,63.4,58.8,30.04,ESE,112,0.0,3.0,85,0.00,,---,0.00,VWS V14.01,2013-10-09 16:05:00,
2013-10-09 12:06:00,63.4,59.2,30.04,ESE,112,0.0,3.0,86,0.00,,---,0.00,VWS V14.01,2013-10-09 16:06:00,
2013-10-09 12:07:00,63.4,59.5,30.04,ENE,65,5.0,5.0,87,0.00,,---,0.00,VWS V14.01,2013-10-09 16:07:00,
2013-10-09 12:08:00,63.4,59.5,30.04,NE,44,0.0,5.0,87,0.00,,---,0.00,VWS V14.01,2013-10-09 16:08:00,
2013-10-09 12:09:00,63.4,59.5,30.04,NE,41,0.0,5.0,87,0.00,,---,0.00,VWS V14.01,2013-10-09 16:09:00,
2013-10-09 12:10:00,63.4,59.5,30.04,ENE,68,0.0,5.0,87,0.00,,---,0.00,VWS V14.01,2013-10-09 16:10:00,
2013-10-09 12:11:00,63.4,59.5,30.04,NW,315,0.0,0.0,87,0.00,,---,0.00,VWS V14.01,2013-10-09 16:11:00,
2013-10-09 12:12:00,63.2,59.6,30.04,ENE,58,3.0,3.0,88,0.00,,---,0.00,VWS V14.01,2013-10-09 16:12:00,
2013-10-09 12:13:00,63.2,59.6,30.04,NNE,20,0.0,4.0,88,0.00,,---,0.00,VWS V14.01,2013-10-09 16:13:00,
2013-10-09 12:14:00,63.2,59.6,30.04,NNE,20,0.0,4.0,88,0.00,,---,0.00,VWS V14.01,2013-10-09 16:14:00,
2013-10-09 12:15:00,63.2,59.9,30.04,NNE,20,0.0,4.0,89,0.00,,---,0.00,VWS V14.01,2013-10-09 16:15:00,
2013-10-09 12:16:00,63.1,59.8,30.04,NE,37,0.0,4.0,89,0.00,,---,0.00,VWS V14.01,2013-10-09 16:16:00,
2013-10-09 12:17:00,63.1,60.1,30.04,NE,37,0.0,4.0,90,0.00,,---,0.00,VWS V14.01,2013-10-09 16:17:00,
2013-10-09 12:18:00,63.1,60.1,30.04,NE,37,0.0,4.0,90,0.00,,---,0.00,VWS V14.01,2013-10-09 16:18:00,
2013-10-09 12:19:00,63.1,60.1,30.04,North,0,0.0,6.0,90,0.00,,---,0.00,VWS V14.01,2013-10-09 16:19:00,
2013-10-09 12:20:00,62.9,59.9,30.04,NNE,27,8.0,8.0,90,0.00,,---,0.00,VWS V14.01,2013-10-09 16:20:00,
2013-10-09 12:21:00,62.9,59.9,30.04,NNE,27,0.0,8.0,90,0.00,,---,0.00,VWS V14.01,2013-10-09 16:21:00,
2013-10-09 12:22:00,62.9,59.9,30.04,NNE,27,0.0,8.0,90,0.00,,---,0.00,VWS V14.01,2013-10-09 16:22:00,
2013-10-09 12:23:00,62.9,59.9,30.04,North,11,2.0,8.0,90,0.00,,---,0.00,VWS V14.01,2013-10-09 16:23:00,
2013-10-09 12:24:00,62.9,59.9,30.04,North,11,0.0,8.0,90,0.00,,---,0.00,VWS V14.01,2013-10-09 16:24:00,
2013-10-09 12:25:00,62.7,59.7,30.04,NNE,17,1.0,8.0,90,0.00,,---,0.00,VWS V14.01,2013-10-09 16:25:00,
2013-10-09 12:26:00,62.7,59.7,30.04,NNE,17,0.0,8.0,90,0.00,,---,0.00,VWS V14.01,2013-10-09 16:26:00,
2013-10-09 12:27:00,62.7,59.7,30.04,NNE,17,0.0,8.0,90,0.00,,---,0.00,VWS V14.01,2013-10-09 16:27:00,
2013-10-09 12:28:00,62.7,59.7,30.04,NNE,17,1.0,8.0,90,0.00,,---,0.00,VWS V14.01,2013-10-09 16:28:00,
2013-10-09 12:29:00,62.7,59.7,30.04,NNE,17,0.0,8.0,90,0.00,,---,0.00,VWS V14.01,2013-10-09 16:29:00,
2013-10-09 12:30:00,62.7,59.7,30.04,NNE,14,5.0,8.0,90,0.00,,---,0.00,VWS V14.01,2013-10-09 16:30:00,
2013-10-09 12:31:00,62.7,59.7,30.04,NE,49,1.0,5.0,90,0.00,,---,0.00,VWS V14.01,2013-10-09 16:31:00,
2013-10-09 12:32:00,62.7,59.7,30.04,NE,40,0.0,6.0,90,0.00,,---,0.00,VWS V14.01,2013-10-09 16:32:00,
2013-10-09 12:33:00,62.7,59.7,30.04,NE,40,0.0,6.0,90,0.00,,---,0.00,VWS V14.01,2013-10-09 16:33:00,
2013-10-09 12:34:00,62.7,59.7,30.04,ENE,59,0.0,6.0,90,0.00,,---,0.00,VWS V14.01,2013-10-09 16:34:00,
2013-10-09 12:35:00,62.7,59.7,30.04,North,0,2.0,6.0,90,0.00,,---,0.00,VWS V14.01,2013-10-09 16:35:00,
2013-10-09 12:36:00,62.7,59.7,30.04,North,6,3.0,7.0,90,0.00,,---,0.00,VWS V14.01,2013-10-09 16:36:00,
2013-10-09 12:37:00,62.7,59.7,30.04,NE,54,6.0,7.0,90,0.00,,---,0.00,VWS V14.01,2013-10-09 16:37:00,
2013-10-09 12:38:00,62.7,60.0,30.04,NNE,16,1.0,7.0,91,0.00,,---,0.00,VWS V14.01,2013-10-09 16:38:00,
2013-10-09 12:39:00,62.7,60.0,30.04,SSW,199,0.0,7.0,91,0.00,,---,0.00,VWS V14.01,2013-10-09 16:39:00,
2013-10-09 12:40:00,62.7,60.0,30.04,WNW,298,0.0,7.0,91,0.00,,---,0.00,VWS V14.01,2013-10-09 16:40:00,
2013-10-09 12:41:00,62.7,60.0,30.04,WNW,298,0.0,0.0,91,0.00,,---,0.00,VWS V14.01,2013-10-09 16:41:00,
2013-10-09 12:42:00,62.7,60.3,30.04,North,0,0.0,8.0,92,0.00,,---,0.00,VWS V14.01,2013-10-09 16:42:00,
2013-10-09 12:43:00,62.7,60.0,30.04,North,0,0.0,8.0,91,0.00,,---,0.00,VWS V14.01,2013-10-09 16:43:00,
2013-10-09 12:44:00,62.7,60.3,30.04,NNE,13,0.0,8.0,92,0.00,,---,0.00,VWS V14.01,2013-10-09 16:44:00,
2013-10-09 12:45:00,62.7,60.3,30.03,NNE,31,0.0,8.0,92,0.00,,---,0.00,VWS V14.01,2013-10-09 16:45:00,
2013-10-09 12:46:00,62.7,60.3,30.03,NNE,31,0.0,8.0,92,0.00,,---,0.00,VWS V14.01,2013-10-09 16:46:00,
2013-10-09 12:47:00,62.7,60.3,30.03,NNE,31,0.0,8.0,92,0.00,,---,0.00,VWS V14.01,2013-10-09 16:47:00,
2013-10-09 12:48:00,62.7,60.3,30.03,NNE,31,0.0,8.0,92,0.00,,---,0.00,VWS V14.01,2013-10-09 16:48:00,
2013-10-09 12:49:00,62.7,60.3,30.03,NNE,25,0.0,8.0,92,0.00,,---,0.00,VWS V14.01,2013-10-09 16:49:00,
2013-10-09 12:50:00,62.7,60.3,30.03,NNE,25,0.0,8.0,92,0.00,,---,0.00,VWS V14.01,2013-10-09 16:50:00,
2013-10-09 12:51:00,62.7,60.3,30.03,NW,323,0.0,0.0,92,0.00,,---,0.00,VWS V14.01,2013-10-09 16:51:00,
2013-10-09 12:52:00,62.7,60.3,30.03,North,0,0.0,0.0,92,0.00,,---,0.00,VWS V14.01,2013-10-09 16:52:00,
2013-10-09 12:53:00,62.7,60.7,30.03,North,0,0.0,0.0,93,0.00,,---,0.00,VWS V14.01,2013-10-09 16:53:00,
2013-10-09 12:54:00,62.7,60.7,30.03,North,0,0.0,0.0,93,0.00,,---,0.00,VWS V14.01,2013-10-09 16:54:00,
2013-10-09 12:55:00,62.7,60.3,30.03,NE,48,1.0,1.0,92,0.00,,---,0.00,VWS V14.01,2013-10-09 16:55:00,
2013-10-09 12:56:00,62.7,60.7,30.03,NNE,20,0.0,4.0,93,0.00,,---,0.00,VWS V14.01,2013-10-09 16:56:00,
2013-10-09 12:57:00,62.6,60.5,30.03,NNE,20,0.0,4.0,93,0.00,,---,0.00,VWS V14.01,2013-10-09 16:57:00,
2013-10-09 12:58:00,62.6,60.5,30.03,NNE,18,0.0,4.0,93,0.00,,---,0.00,VWS V14.01,2013-10-09 16:58:00,
2013-10-09 12:59:00,62.6,60.5,30.03,NNE,32,2.0,4.0,93,0.00,,---,0.00,VWS V14.01,2013-10-09 16:59:00,
2013-10-09 13:00:00,62.6,60.5,30.03,WNW,291,2.0,4.0,93,0.00,,---,0.00,VWS V14.01,2013-10-09 17:00:00,
2013-10-09 13:01:00,62.6,60.5,30.03,WNW,291,0.0,2.0,93,0.00,,---,0.00,VWS V14.01,2013-10-09 17:01:00,
2013-10-09 13:02:00,62.6,60.5,30.03,WNW,291,0.0,2.0,93,0.00,,---,0.00,VWS V14.01,2013-10-09 17:02:00,
2013-10-09 13:03:00,62.6,60.5,30.03,ENE,65,0.0,2.0,93,0.00,,---,0.00,VWS V14.01,2013-10-09 17:03:00,
2013-10-09 13:04:00,62.6,60.5,30.03,ENE,65,0.0,2.0,93,0.00,,---,0.00,VWS V14.01,2013-10-09 17:04:00,
2013-10-09 13:05:00,62.6,60.5,30.03,NNE,20,0.0,2.0,93,0.00,,---,0.00,VWS V14.01,2013-10-09 17:05:00,
2013-10-09 13:06:00,62.6,60.5,30.03,NNE,20,0.0,2.0,93,0.00,,---,0.00,VWS V14.01,2013-10-09 17:06:00,
2013-10-09 13:07:00,62.6,60.5,30.03,NNE,20,0.0,2.0,93,0.00,,---,0.00,VWS V14.01,2013-10-09 17:07:00,
2013-10-09 13:08:00,62.6,60.8,30.03,NE,51,0.0,4.0,94,0.00,,---,0.00,VWS V14.01,2013-10-09 17:08:00,
2013-10-09 13:09:00,62.6,60.8,30.03,NE,51,0.0,4.0,94,0.00,,---,0.00,VWS V14.01,2013-10-09 17:09:00,
2013-10-09 13:10:00,62.7,61.0,30.03,NE,42,2.0,4.0,94,0.00,,---,0.00,VWS V14.01,2013-10-09 17:10:00,
2013-10-09 13:11:00,62.7,61.0,30.03,NE,42,0.0,2.0,94,0.00,,---,0.00,VWS V14.01,2013-10-09 17:11:00,
2013-10-09 13:12:00,62.7,61.0,30.03,NE,42,0.0,2.0,94,0.00,,---,0.00,VWS V14.01,2013-10-09 17:12:00,
2013-10-09 13:13:00,62.7,61.0,30.03,NE,42,0.0,2.0,94,0.00,,---,0.00,VWS V14.01,2013-10-09 17:13:00,
2013-10-09 13:14:00,62.7,61.0,30.03,NNE,32,3.0,3.0,94,0.00,,---,0.00,VWS V14.01,2013-10-09 17:14:00,
2013-10-09 13:15:00,62.7,61.0,30.02,NE,48,0.0,3.0,94,0.00,,---,0.00,VWS V14.01,2013-10-09 17:15:00,
2013-10-09 13:16:00,62.7,61.0,30.02,NE,40,3.0,7.0,94,0.00,,---,0.00,VWS V14.01,2013-10-09 17:16:00,
2013-10-09 13:17:00,62.7,61.0,30.02,NW,315,0.0,7.0,94,0.00,,---,0.00,VWS V14.01,2013-10-09 17:17:00,
2013-10-09 13:18:00,62.9,61.2,30.02,NE,54,4.0,7.0,94,0.00,,---,0.00,VWS V14.01,2013-10-09 17:18:00,
2013-10-09 13:19:00,62.9,61.2,30.02,ENE,64,5.0,7.0,94,0.00,,---,0.00,VWS V14.01,2013-10-09 17:19:00,
2013-10-09 13:20:00,62.9,61.2,30.02,North,0,2.0,7.0,94,0.00,,---,0.00,VWS V14.01,2013-10-09 17:20:00,
2013-10-09 13:21:00,62.9,61.2,30.02,NE,55,5.0,11.0,94,0.00,,---,0.00,VWS V14.01,2013-10-09 17:21:00,
2013-10-09 13:22:00,62.9,60.5,30.02,ENE,59,0.0,11.0,92,0.00,,---,0.00,VWS V14.01,2013-10-09 17:22:00,
2013-10-09 13:23:00,62.9,60.5,30.02,NE,44,2.0,11.0,92,0.00,,---,0.00,VWS V14.01,2013-10-09 17:23:00,
2013-10-09 13:24:00,62.9,60.5,30.02,NE,42,0.0,11.0,92,0.00,,---,0.00,VWS V14.01,2013-10-09 17:24:00,
2013-10-09 13:25:00,62.9,60.5,30.02,North,6,2.0,11.0,92,0.00,,---,0.00,VWS V14.01,2013-10-09 17:25:00,
2013-10-09 13:26:00,62.9,60.5,30.02,North,6,0.0,11.0,92,0.00,,---,0.00,VWS V14.01,2013-10-09 17:26:00,
2013-10-09 13:27:00,62.9,60.5,30.02,NE,37,4.0,11.0,92,0.00,,---,0.00,VWS V14.01,2013-10-09 17:27:00,
2013-10-09 13:28:00,63.1,60.4,30.02,NNE,14,0.0,11.0,91,0.00,,---,0.00,VWS V14.01,2013-10-09 17:28:00,
2013-10-09 13:29:00,63.1,60.4,30.02,North,6,0.0,11.0,91,0.00,,---,0.00,VWS V14.01,2013-10-09 17:29:00,
2013-10-09 13:30:00,63.1,60.4,30.02,North,10,2.0,11.0,91,0.00,,---,0.00,VWS V14.01,2013-10-09 17:30:00,
2013-10-09 13:31:00,63.1,60.1,30.02,NNE,32,4.0,5.0,90,0.00,,---,0.00,VWS V14.01,2013-10-09 17:31:00,
2013-10-09 13:32:00,63.1,60.1,30.02,NNE,32,0.0,5.0,90,0.00,,---,0.00,VWS V14.01,2013-10-09 17:32:00,
2013-10-09 13:33:00,63.1,60.1,30.02,NNE,13,2.0,5.0,90,0.00,,---,0.00,VWS V14.01,2013-10-09 17:33:00,
2013-10-09 13:34:00,63.1,60.1,30.02,NNE,18,1.0,5.0,90,0.00,,---,0.00,VWS V14.01,2013-10-09 17:34:00,
2013-10-09 13:35:00,63.1,60.1,30.02,NNE,24,3.0,7.0,90,0.00,,---,0.00,VWS V14.01,2013-10-09 17:35:00,
2013-10-09 13:36:00,63.1,59.8,30.02,NNE,27,1.0,7.0,89,0.00,,---,0.00,VWS V14.01,2013-10-09 17:36:00,
2013-10-09 13:37:00,63.1,60.1,30.02,NNE,27,0.0,7.0,90,0.00,,---,0.00,VWS V14.01,2013-10-09 17:37:00,
2013-10-09 13:38:00,63.2,60.2,30.02,North,3,3.0,7.0,90,0.00,,---,0.00,VWS V14.01,2013-10-09 17:38:00,
2013-10-09 13:39:00,63.2,60.2,30.02,North,3,0.0,7.0,90,0.00,,---,0.00,VWS V14.01,2013-10-09 17:39:00,
2013-10-09 13:40:00,63.2,60.2,30.02,North,3,0.0,7.0,90,0.00,,---,0.00,VWS V14.01,2013-10-09 17:40:00,
2013-10-09 13:41:00,63.2,60.2,30.02,North,3,0.0,0.0,90,0.00,,---,0.00,VWS V14.01,2013-10-09 17:41:00,
2013-10-09 13:42:00,63.2,60.2,30.02,NE,34,1.0,1.0,90,0.00,,---,0.00,VWS V14.01,2013-10-09 17:42:00,
2013-10-09 13:43:00,63.2,60.2,30.02,NNE,17,0.0,5.0,90,0.00,,---,0.00,VWS V14.01,2013-10-09 17:43:00,
2013-10-09 13:44:00,63.4,60.4,30.02,NE,40,1.0,5.0,90,0.00,,---,0.00,VWS V14.01,2013-10-09 17:44:00,
2013-10-09 13:45:00,63.4,60.1,30.01,South,179,0.0,5.0,89,0.00,,---,0.00,VWS V14.01,2013-10-09 17:45:00,
2013-10-09 13:46:00,63.4,60.4,30.01,South,179,0.0,5.0,90,0.00,,---,0.00,VWS V14.01,2013-10-09 17:46:00,
2013-10-09 13:47:00,63.5,60.5,30.01,ENE,68,0.0,5.0,90,0.00,,---,0.00,VWS V14.01,2013-10-09 17:47:00,
2013-10-09 13:48:00,63.5,60.5,30.01,North,11,0.0,8.0,90,0.00,,---,0.00,VWS V14.01,2013-10-09 17:48:00,
2013-10-09 13:49:00,63.5,60.2,30.01,NNE,21,2.0,8.0,89,0.00,,---,0.00,VWS V14.01,2013-10-09 17:49:00,
2013-10-09 13:50:00,63.7,60.4,30.01,NW,323,5.0,8.0,89,0.00,,---,0.00,VWS V14.01,2013-10-09 17:50:00,
2013-10-09 13:51:00,63.7,60.4,30.01,West,272,2.0,5.0,89,0.00,,---,0.00,VWS V14.01,2013-10-09 17:51:00,
2013-10-09 13:52:00,63.9,60.6,30.01,NE,47,6.0,7.0,89,0.00,,---,0.00,VWS V14.01,2013-10-09 17:52:00,
2013-10-09 13:53:00,63.9,60.3,30.01,North,0,0.0,7.0,88,0.00,,---,0.00,VWS V14.01,2013-10-09 17:53:00,
2013-10-09 13:54:00,63.9,60.0,30.01,ENE,58,6.0,7.0,87,0.00,,---,0.00,VWS V14.01,2013-10-09 17:54:00,
2013-10-09 13:55:00,64.0,60.1,30.01,ENE,58,0.0,7.0,87,0.00,,---,0.00,VWS V14.01,2013-10-09 17:55:00,
2013-10-09 13:56:00,64.0,60.1,30.01,ENE,58,0.0,7.0,87,0.00,,---,0.00,VWS V14.01,2013-10-09 17:56:00,
2013-10-09 13:57:00,64.0,60.1,30.01,ENE,72,6.0,7.0,87,0.00,,---,0.00,VWS V14.01,2013-10-09 17:57:00,
2013-10-09 13:58:00,64.2,60.3,30.01,North,6,0.0,7.0,87,0.00,,---,0.00,VWS V14.01,2013-10-09 17:58:00,
2013-10-09 13:59:00,64.2,60.3,30.01,NE,51,8.0,8.0,87,0.00,,---,0.00,VWS V14.01,2013-10-09 17:59:00,
2013-10-09 14:00:00,64.2,60.3,30.00,ENE,66,0.0,8.0,87,0.00,,---,0.00,VWS V14.01,2013-10-09 18:00:00,
2013-10-09 14:01:00,64.3,60.0,30.00,North,350,2.0,2.0,86,0.00,,---,0.00,VWS V14.01,2013-10-09 18:01:00,
2013-10-09 14:02:00,64.3,60.0,30.00,East,80,2.0,6.0,86,0.00,,---,0.00,VWS V14.01,2013-10-09 18:02:00,
2013-10-09 14:03:00,64.5,59.9,30.00,NNE,25,2.0,7.0,85,0.00,,---,0.00,VWS V14.01,2013-10-09 18:03:00,
2013-10-09 14:04:00,64.5,59.9,30.00,North,359,2.0,7.0,85,0.00,,---,0.00,VWS V14.01,2013-10-09 18:04:00,
2013-10-09 14:05:00,64.5,59.9,30.00,North,359,0.0,7.0,85,0.00,,---,0.00,VWS V14.01,2013-10-09 18:05:00,
2013-10-09 14:06:00,64.7,60.1,30.00,WNW,299,2.0,7.0,85,0.00,,---,0.00,VWS V14.01,2013-10-09 18:06:00,
2013-10-09 14:07:00,64.7,60.1,30.00,North,0,2.0,7.0,85,0.00,,---,0.00,VWS V14.01,2013-10-09 18:07:00,
2013-10-09 14:08:00,64.7,60.1,30.00,SE,137,0.0,7.0,85,0.00,,---,0.00,VWS V14.01,2013-10-09 18:08:00,
2013-10-09 14:09:00,64.8,60.2,30.00,North,3,1.0,7.0,85,0.00,,---,0.00,VWS V14.01,2013-10-09 18:09:00,
2013-10-09 14:10:00,64.8,60.2,30.00,NNE,25,0.0,7.0,85,0.00,,---,0.00,VWS V14.01,2013-10-09 18:10:00,
2013-10-09 14:11:00,64.8,60.2,30.00,ENE,66,2.0,3.0,85,0.00,,---,0.00,VWS V14.01,2013-10-09 18:11:00,
2013-10-09 14:12:00,65.0,60.0,30.00,NNE,28,2.0,7.0,84,0.00,,---,0.00,VWS V14.01,2013-10-09 18:12:00,
2013-10-09 14:13:00,65.0,59.7,30.00,North,0,2.0,7.0,83,0.00,,---,0.00,VWS V14.01,2013-10-09 18:13:00,
2013-10-09 14:14:00,65.0,60.0,30.00,North,0,0.0,7.0,84,0.00,,---,0.00,VWS V14.01,2013-10-09 18:14:00,
2013-10-09 14:15:00,65.0,60.0,30.00,NE,35,3.0,7.0,84,0.00,,---,0.00,VWS V14.01,2013-10-09 18:15:00,
2013-10-09 14:16:00,65.2,60.2,30.00,North,3,0.0,7.0,84,0.00,,---,0.00,VWS V14.01,2013-10-09 18:16:00,
2013-10-09 14:17:00,65.2,59.9,30.00,NNW,344,0.0,7.0,83,0.00,,---,0.00,VWS V14.01,2013-10-09 18:17:00,
2013-10-09 14:18:00,65.2,60.2,30.00,NW,320,0.0,7.0,84,0.00,,---,0.00,VWS V14.01,2013-10-09 18:18:00,
2013-10-09 14:19:00,65.2,60.2,30.00,NE,49,0.0,7.0,84,0.00,,---,0.00,VWS V14.01,2013-10-09 18:19:00,
2013-10-09 14:20:00,65.2,60.2,30.00,NE,54,3.0,7.0,84,0.00,,---,0.00,VWS V14.01,2013-10-09 18:20:00,
2013-10-09 14:21:00,65.2,60.2,30.00,North,8,0.0,7.0,84,0.00,,---,0.00,VWS V14.01,2013-10-09 18:21:00,
2013-10-09 14:22:00,65.3,60.3,30.00,NNE,16,6.0,7.0,84,0.00,,---,0.00,VWS V14.01,2013-10-09 18:22:00,
2013-10-09 14:23:00,65.3,60.0,30.00,NNE,13,3.0,7.0,83,0.00,,---,0.00,VWS V14.01,2013-10-09 18:23:00,
2013-10-09 14:24:00,65.3,60.0,30.00,NNE,32,3.0,7.0,83,0.00,,---,0.00,VWS V14.01,2013-10-09 18:24:00,
2013-10-09 14:25:00,65.3,60.0,30.00,North,10,5.0,8.0,83,0.00,,---,0.00,VWS V14.01,2013-10-09 18:25:00,
2013-10-09 14:26:00,65.3,60.0,30.00,East,93,0.0,8.0,83,0.00,,---,0.00,VWS V14.01,2013-10-09 18:26:00,
2013-10-09 14:27:00,65.3,59.7,30.00,ENE,65,1.0,8.0,82,0.00,,---,0.00,VWS V14.01,2013-10-09 18:27:00,
2013-10-09 14:28:00,65.3,59.7,30.00,ENE,65,0.0,8.0,82,0.00,,---,0.00,VWS V14.01,2013-10-09 18:28:00,
2013-10-09 14:29:00,65.3,59.7,30.00,ENE,65,0.0,8.0,82,0.00,,---,0.00,VWS V14.01,2013-10-09 18:29:00,
2013-10-09 14:30:00,65.3,60.0,30.00,West,271,0.0,8.0,83,0.00,,---,0.00,VWS V14.01,2013-10-09 18:30:00,
2013-10-09 14:31:00,65.3,60.0,30.00,West,271,0.0,0.0,83,0.00,,---,0.00,VWS V14.01,2013-10-09 18:31:00,
2013-10-09 14:32:00,65.3,59.7,30.00,West,272,0.0,1.0,82,0.00,,---,0.00,VWS V14.01,2013-10-09 18:32:00,
2013-10-09 14:33:00,65.3,59.7,30.00,NW,312,0.0,1.0,82,0.00,,---,0.00,VWS V14.01,2013-10-09 18:33:00,
2013-10-09 14:34:00,65.3,60.0,30.00,NE,34,7.0,7.0,83,0.00,,---,0.00,VWS V14.01,2013-10-09 18:34:00,
2013-10-09 14:35:00,65.3,60.0,30.00,NE,52,7.0,12.0,83,0.00,,---,0.00,VWS V14.01,2013-10-09 18:35:00,
2013-10-09 14:36:00,65.3,59.7,30.00,NNE,13,3.0,12.0,82,0.00,,---,0.00,VWS V14.01,2013-10-09 18:36:00,
2013-10-09 14:37:00,65.3,59.7,30.00,South,178,0.0,12.0,82,0.00,,---,0.00,VWS V14.01,2013-10-09 18:37:00,
2013-10-09 14:38:00,65.3,60.0,30.00,SW,223,3.0,12.0,83,0.00,,---,0.00,VWS V14.01,2013-10-09 18:38:00,
2013-10-09 14:39:00,65.3,59.7,30.00,NNW,333,1.0,12.0,82,0.00,,---,0.00,VWS V14.01,2013-10-09 18:39:00,
2013-10-09 14:40:00,65.3,59.7,30.00,NNW,333,0.0,12.0,82,0.00,,---,0.00,VWS V14.01,2013-10-09 18:40:00,
2013-10-09 14:41:00,65.3,59.7,30.00,NNW,333,0.0,0.0,82,0.00,,---,0.00,VWS V14.01,2013-10-09 18:41:00,
2013-10-09 14:42:00,65.5,59.9,30.00,NE,34,0.0,3.0,82,0.00,,---,0.00,VWS V14.01,2013-10-09 18:42:00,
2013-10-09 14:43:00,65.5,60.2,30.00,NNW,339,3.0,5.0,83,0.00,,---,0.00,VWS V14.01,2013-10-09 18:43:00,
2013-10-09 14:44:00,65.5,60.2,30.00,NE,41,6.0,6.0,83,0.00,,---,0.00,VWS V14.01,2013-10-09 18:44:00,
2013-10-09 14:45:00,65.5,59.9,30.00,North,357,3.0,7.0,82,0.00,,---,0.00,VWS V14.01,2013-10-09 18:45:00,
2013-10-09 14:46:00,65.5,59.9,30.00,NE,42,2.0,7.0,82,0.00,,---,0.00,VWS V14.01,2013-10-09 18:46:00,
2013-10-09 14:47:00,65.5,59.9,30.00,NNE,14,0.0,7.0,82,0.00,,---,0.00,VWS V14.01,2013-10-09 18:47:00,
2013-10-09 14:48:00,65.5,59.9,30.00,NE,51,2.0,7.0,82,0.00,,---,0.00,VWS V14.01,2013-10-09 18:48:00,
2013-10-09 14:49:00,65.5,59.9,30.00,NE,49,0.0,7.0,82,0.00,,---,0.00,VWS V14.01,2013-10-09 18:49:00,
2013-10-09 14:50:00,65.5,59.9,30.00,NNW,346,0.0,7.0,82,0.00,,---,0.00,VWS V14.01,2013-10-09 18:50:00,
2013-10-09 14:51:00,65.5,59.9,30.00,NNW,346,2.0,3.0,82,0.00,,---,0.00,VWS V14.01,2013-10-09 18:51:00,
2013-10-09 14:52:00,65.5,59.9,30.00,NNE,20,1.0,3.0,82,0.00,,---,0.00,VWS V14.01,2013-10-09 18:52:00,
2013-10-09 14:53:00,65.5,59.9,30.00,NNE,20,0.0,3.0,82,0.00,,---,0.00,VWS V14.01,2013-10-09 18:53:00,
2013-10-09 14:54:00,65.5,59.9,30.00,NW,304,0.0,4.0,82,0.00,,---,0.00,VWS V14.01,2013-10-09 18:54:00,
2013-10-09 14:55:00,65.5,59.9,30.00,NNW,344,3.0,5.0,82,0.00,,---,0.00,VWS V14.01,2013-10-09 18:55:00,
2013-10-09 14:56:00,65.5,59.9,30.00,NE,41,0.0,5.0,82,0.00,,---,0.00,VWS V14.01,2013-10-09 18:56:00,
2013-10-09 14:57:00,65.5,60.2,30.00,NNE,20,0.0,5.0,83,0.00,,---,0.00,VWS V14.01,2013-10-09 18:57:00,
2013-10-09 14:58:00,65.5,59.9,30.00,NE,56,0.0,5.0,82,0.00,,---,0.00,VWS V14.01,2013-10-09 18:58:00,
2013-10-09 14:59:00,65.6,60.0,30.00,NE,56,0.0,5.0,82,0.00,,---,0.00,VWS V14.01,2013-10-09 18:59:00,
2013-10-09 15:00:00,65.6,60.0,29.99,NE,34,1.0,5.0,82,0.00,,---,0.00,VWS V14.01,2013-10-09 19:00:00,
2013-10-09 15:01:00,65.6,60.0,29.99,NE,34,0.0,1.0,82,0.00,,---,0.00,VWS V14.01,2013-10-09 19:01:00,
2013-10-09 15:02:00,65.6,60.0,29.99,NE,34,0.0,1.0,82,0.00,,---,0.00,VWS V14.01,2013-10-09 19:02:00,
2013-10-09 15:03:00,65.6,60.0,29.99,NW,304,0.0,2.0,82,0.00,,---,0.00,VWS V14.01,2013-10-09 19:03:00,
2013-10-09 15:04:00,65.6,60.0,29.99,NNE,28,3.0,3.0,82,0.00,,---,0.00,VWS V14.01,2013-10-09 19:04:00,
2013-10-09 15:05:00,65.8,60.2,29.99,NW,326,3.0,3.0,82,0.00,,---,0.00,VWS V14.01,2013-10-09 19:05:00,
2013-10-09 15:06:00,65.8,60.2,29.99,NNW,337,2.0,3.0,82,0.00,,---,0.00,VWS V14.01,2013-10-09 19:06:00,
2013-10-09 15:07:00,65.8,59.8,29.99,NNW,337,0.0,3.0,81,0.00,,---,0.00,VWS V14.01,2013-10-09 19:07:00,
2013-10-09 15:08:00,65.8,59.8,29.99,NW,320,6.0,10.0,81,0.00,,---,0.00,VWS V14.01,2013-10-09 19:08:00,
2013-10-09 15:09:00,65.8,59.8,29.99,North,0,6.0,10.0,81,0.00,,---,0.00,VWS V14.01,2013-10-09 19:09:00,
2013-10-09 15:10:00,65.8,59.8,29.99,NNE,31,2.0,10.0,81,0.00,,---,0.00,VWS V14.01,2013-10-09 19:10:00,
2013-10-09 15:11:00,65.8,59.8,29.99,NNE,28,0.0,2.0,81,0.00,,---,0.00,VWS V14.01,2013-10-09 19:11:00,
2013-10-09 15:12:00,65.8,59.8,29.99,NNE,28,0.0,2.0,81,0.00,,---,0.00,VWS V14.01,2013-10-09 19:12:00,
2013-10-09 15:13:00,66.0,60.0,29.99,North,6,2.0,4.0,81,0.00,,---,0.00,VWS V14.01,2013-10-09 19:13:00,
2013-10-09 15:14:00,66.0,60.3,29.99,North,4,0.0,4.0,82,0.00,,---,0.00,VWS V14.01,2013-10-09 19:14:00,
2013-10-09 15:15:00,66.0,60.3,30.00,NW,309,2.0,4.0,82,0.00,,---,0.00,VWS V14.01,2013-10-09 19:15:00,
2013-10-09 15:16:00,66.0,60.3,30.00,NW,309,0.0,4.0,82,0.00,,---,0.00,VWS V14.01,2013-10-09 19:16:00,
2013-10-09 15:17:00,66.0,60.3,30.00,NE,47,0.0,4.0,82,0.00,,---,0.00,VWS V14.01,2013-10-09 19:17:00,
2013-10-09 15:18:00,66.0,60.0,30.00,NE,47,0.0,4.0,81,0.00,,---,0.00,VWS V14.01,2013-10-09 19:18:00,
2013-10-09 15:19:00,66.0,60.0,30.00,NE,48,6.0,7.0,81,0.00,,---,0.00,VWS V14.01,2013-10-09 19:19:00,
2013-10-09 15:20:00,66.0,60.0,30.00,NW,323,3.0,7.0,81,0.00,,---,0.00,VWS V14.01,2013-10-09 19:20:00,
2013-10-09 15:21:00,66.0,60.0,30.00,NNW,337,3.0,5.0,81,0.00,,---,0.00,VWS V14.01,2013-10-09 19:21:00,
2013-10-09 15:22:00,65.8,59.8,30.00,NNW,332,0.0,5.0,81,0.00,,---,0.00,VWS V14.01,2013-10-09 19:22:00,
2013-10-09 15:23:00,65.8,59.5,30.00,ENE,64,6.0,6.0,80,0.00,,---,0.00,VWS V14.01,2013-10-09 19:23:00,
2013-10-09 15:24:00,65.8,59.5,30.00,NNW,346,2.0,6.0,80,0.00,,---,0.00,VWS V14.01,2013-10-09 19:24:00,
2013-10-09 15:25:00,65.8,59.8,30.00,NNW,346,3.0,6.0,81,0.00,,---,0.00,VWS V14.01,2013-10-09 19:25:00,
2013-10-09 15:26:00,65.8,59.8,30.00,North,0,2.0,7.0,81,0.00,,---,0.00,VWS V14.01,2013-10-09 19:26:00,
2013-10-09 15:27:00,65.6,59.3,30.00,North,0,0.0,7.0,80,0.00,,---,0.00,VWS V14.01,2013-10-09 19:27:00,
2013-10-09 15:28:00,65.6,59.6,30.00,North,0,0.0,7.0,81,0.00,,---,0.00,VWS V14.01,2013-10-09 19:28:00,
2013-10-09 15:29:00,65.6,59.6,30.00,North,0,0.0,7.0,81,0.00,,---,0.00,VWS V14.01,2013-10-09 19:29:00,
2013-10-09 15:30:00,65.6,59.6,30.00,North,0,0.0,7.0,81,0.00,,---,0.00,VWS V14.01,2013-10-09 19:30:00,
2013-10-09 15:31:00,65.6,59.6,30.00,North,0,0.0,0.0,81,0.00,,---,0.00,VWS V14.01,2013-10-09 19:31:00,
2013-10-09 15:32:00,65.5,59.5,30.00,NNW,330,2.0,2.0,81,0.00,,---,0.00,VWS V14.01,2013-10-09 19:32:00,
2013-10-09 15:33:00,65.5,59.5,30.00,NW,322,1.0,7.0,81,0.00,,---,0.00,VWS V14.01,2013-10-09 19:33:00,
2013-10-09 15:34:00,65.5,59.5,30.00,North,359,2.0,7.0,81,0.00,,---,0.00,VWS V14.01,2013-10-09 19:34:00,
2013-10-09 15:35:00,65.5,59.5,30.00,NNE,20,2.0,7.0,81,0.00,,---,0.00,VWS V14.01,2013-10-09 19:35:00,
2013-10-09 15:36:00,65.5,59.5,30.00,NE,49,6.0,7.0,81,0.00,,---,0.00,VWS V14.01,2013-10-09 19:36:00,
2013-10-09 15:37:00,65.3,59.3,30.00,ENE,64,0.0,11.0,81,0.00,,---,0.00,VWS V14.01,2013-10-09 19:37:00,
2013-10-09 15:38:00,65.3,59.3,30.00,NW,312,2.0,11.0,81,0.00,,---,0.00,VWS V14.01,2013-10-09 19:38:00,
2013-10-09 15:39:00,65.3,59.3,30.00,North,0,2.0,11.0,81,0.00,,---,0.00,VWS V14.01,2013-10-09 19:39:00,
2013-10-09 15:40:00,65.3,59.3,30.00,North,7,0.0,11.0,81,0.00,,---,0.00,VWS V14.01,2013-10-09 19:40:00,
2013-10-09 15:41:00,65.2,59.2,30.00,North,10,0.0,0.0,81,0.00,,---,0.00,VWS V14.01,2013-10-09 19:41:00,
2013-10-09 15:42:00,65.2,59.2,30.00,NNW,335,5.0,6.0,81,0.00,,---,0.00,VWS V14.01,2013-10-09 19:42:00,
2013-10-09 15:43:00,65.2,59.2,30.00,WNW,301,0.0,6.0,81,0.00,,---,0.00,VWS V14.01,2013-10-09 19:43:00,
2013-10-09 15:44:00,65.2,59.2,30.00,WNW,301,0.0,6.0,81,0.00,,---,0.00,VWS V14.01,2013-10-09 19:44:00,
2013-10-09 15:45:00,65.2,59.2,30.00,West,264,2.0,7.0,81,0.00,,---,0.00,VWS V14.01,2013-10-09 19:45:00,
2013-10-09 15:46:00,65.0,59.4,30.00,North,353,0.0,7.0,82,0.00,,---,0.00,VWS V14.01,2013-10-09 19:46:00,
2013-10-09 15:47:00,65.0,59.4,30.00,NNW,340,1.0,7.0,82,0.00,,---,0.00,VWS V14.01,2013-10-09 19:47:00,
2013-10-09 15:48:00,65.0,59.0,30.00,NNW,340,0.0,7.0,81,0.00,,---,0.00,VWS V14.01,2013-10-09 19:48:00,
2013-10-09 15:49:00,64.8,58.8,30.00,NNW,340,0.0,7.0,81,0.00,,---,0.00,VWS V14.01,2013-10-09 19:49:00,
2013-10-09 15:50:00,64.8,58.8,30.00,NNW,344,0.0,7.0,81,0.00,,---,0.00,VWS V14.01,2013-10-09 19:50:00,
2013-10-09 15:51:00,64.8,59.2,30.00,NNW,344,3.0,3.0,82,0.00,,---,0.00,VWS V14.01,2013-10-09 19:51:00,
2013-10-09 15:52:00,64.8,59.2,30.00,NNW,328,2.0,3.0,82,0.00,,---,0.00,VWS V14.01,2013-10-09 19:52:00,
2013-10-09 15:53:00,64.7,58.7,30.00,ENE,72,0.0,3.0,81,0.00,,---,0.00,VWS V14.01,2013-10-09 19:53:00,
2013-10-09 15:54:00,64.7,59.1,30.00,NE,45,0.0,3.0,82,0.00,,---,0.00,VWS V14.01,2013-10-09 19:54:00,
2013-10-09 15:55:00,64.7,59.1,30.00,NE,45,0.0,3.0,82,0.00,,---,0.00,VWS V14.01,2013-10-09 19:55:00,
2013-10-09 15:56:00,64.7,59.1,30.00,NE,45,0.0,3.0,82,0.00,,---,0.00,VWS V14.01,2013-10-09 19:56:00,
2013-10-09 15:57:00,64.7,59.1,30.00,NE,45,0.0,3.0,82,0.00,,---,0.00,VWS V14.01,2013-10-09 19:57:00,
2013-10-09 15:58:00,64.7,59.4,30.00,NE,41,0.0,3.0,83,0.00,,---,0.00,VWS V14.01,2013-10-09 19:58:00,
2013-10-09 15:59:00,64.5,59.2,30.00,East,83,0.0,3.0,83,0.00,,---,0.00,VWS V14.01,2013-10-09 19:59:00,
2013-10-09 16:00:00,64.5,59.2,30.00,WSW,257,0.0,3.0,83,0.00,,---,0.00,VWS V14.01,2013-10-09 20:00:00,
2013-10-09 16:01:00,64.5,59.2,30.00,NE,38,0.0,2.0,83,0.00,,---,0.00,VWS V14.01,2013-10-09 20:01:00,
2013-10-09 16:02:00,64.5,59.2,30.00,SSW,195,0.0,2.0,83,0.00,,---,0.00,VWS V14.01,2013-10-09 20:02:00,
2013-10-09 16:03:00,64.5,59.2,30.00,SSW,200,0.0,2.0,83,0.00,,---,0.00,VWS V14.01,2013-10-09 20:03:00,
2013-10-09 16:04:00,64.5,59.2,30.00,SSW,200,0.0,2.0,83,0.00,,---,0.00,VWS V14.01,2013-10-09 20:04:00,
2013-10-09 16:05:00,64.5,59.2,30.00,NW,308,2.0,2.0,83,0.00,,---,0.00,VWS V14.01,2013-10-09 20:05:00,
2013-10-09 16:06:00,64.3,59.0,30.00,North,10,2.0,11.0,83,0.00,,---,0.00,VWS V14.01,2013-10-09 20:06:00,
2013-10-09 16:07:00,64.3,58.7,30.00,NNW,333,1.0,11.0,82,0.00,,---,0.00,VWS V14.01,2013-10-09 20:07:00,
2013-10-09 16:08:00,64.3,59.0,30.00,NNW,333,0.0,11.0,83,0.00,,---,0.00,VWS V14.01,2013-10-09 20:08:00,
2013-10-09 16:09:00,64.3,59.0,30.00,NNW,333,0.0,11.0,83,0.00,,---,0.00,VWS V14.01,2013-10-09 20:09:00,
2013-10-09 16:10:00,64.3,59.0,30.00,NNE,13,1.0,11.0,83,0.00,,---,0.00,VWS V14.01,2013-10-09 20:10:00,
2013-10-09 16:11:00,64.2,58.9,30.00,East,80,1.0,3.0,83,0.00,,---,0.00,VWS V14.01,2013-10-09 20:11:00,
2013-10-09 16:12:00,64.2,58.9,30.00,East,80,0.0,3.0,83,0.00,,---,0.00,VWS V14.01,2013-10-09 20:12:00,
2013-10-09 16:13:00,64.2,58.9,30.00,NNW,346,8.0,8.0,83,0.00,,---,0.00,VWS V14.01,2013-10-09 20:13:00,
2013-10-09 16:14:00,64.2,58.9,30.00,NNE,28,0.0,8.0,83,0.00,,---,0.00,VWS V14.01,2013-10-09 20:14:00,
2013-10-09 16:15:00,64.2,58.9,30.00,North,0,0.0,8.0,83,0.00,,---,0.00,VWS V14.01,2013-10-09 20:15:00,
2013-10-09 16:16:00,64.2,58.9,30.00,NE,40,6.0,8.0,83,0.00,,---,0.00,VWS V14.01,2013-10-09 20:16:00,
2013-10-09 16:17:00,64.2,58.9,30.00,North,6,1.0,8.0,83,0.00,,---,0.00,VWS V14.01,2013-10-09 20:17:00,
2013-10-09 16:18:00,64.2,58.9,30.00,SE,128,1.0,8.0,83,0.00,,---,0.00,VWS V14.01,2013-10-09 20:18:00,
2013-10-09 16:19:00,64.2,58.9,30.00,NNW,342,0.0,8.0,83,0.00,,---,0.00,VWS V14.01,2013-10-09 20:19:00,
2013-10-09 16:20:00,64.2,58.9,30.00,NNE,32,0.0,8.0,83,0.00,,---,0.00,VWS V14.01,2013-10-09 20:20:00,
2013-10-09 16:21:00,64.2,59.3,30.00,NNE,32,0.0,0.0,84,0.00,,---,0.00,VWS V14.01,2013-10-09 20:21:00,
2013-10-09 16:22:00,64.0,59.1,30.00,NNE,32,0.0,0.0,84,0.00,,---,0.00,VWS V14.01,2013-10-09 20:22:00,
2013-10-09 16:23:00,64.0,58.7,30.00,NNE,32,2.0,2.0,83,0.00,,---,0.00,VWS V14.01,2013-10-09 20:23:00,
2013-10-09 16:24:00,64.0,59.1,30.00,NE,37,2.0,3.0,84,0.00,,---,0.00,VWS V14.01,2013-10-09 20:24:00,
2013-10-09 16:25:00,64.0,59.1,30.00,North,3,1.0,5.0,84,0.00,,---,0.00,VWS V14.01,2013-10-09 20:25:00,
2013-10-09 16:26:00,64.0,59.1,30.00,NNE,14,0.0,5.0,84,0.00,,---,0.00,VWS V14.01,2013-10-09 20:26:00,
2013-10-09 16:27:00,64.0,59.1,30.00,NNE,14,0.0,5.0,84,0.00,,---,0.00,VWS V14.01,2013-10-09 20:27:00,
2013-10-09 16:28:00,64.0,59.1,30.00,NNE,16,0.0,5.0,84,0.00,,---,0.00,VWS V14.01,2013-10-09 20:28:00,
2013-10-09 16:29:00,64.0,59.1,30.00,NE,35,5.0,5.0,84,0.00,,---,0.00,VWS V14.01,2013-10-09 20:29:00,
2013-10-09 16:30:00,64.0,58.7,30.00,NE,34,5.0,7.0,83,0.00,,---,0.00,VWS V14.01,2013-10-09 20:30:00,
2013-10-09 16:31:00,64.0,58.7,30.00,ENE,61,0.0,3.0,83,0.00,,---,0.00,VWS V14.01,2013-10-09 20:31:00,
2013-10-09 16:32:00,64.0,59.1,30.00,ENE,61,0.0,3.0,84,0.00,,---,0.00,VWS V14.01,2013-10-09 20:32:00,
2013-10-09 16:33:00,63.9,59.0,30.00,NNE,23,0.0,3.0,84,0.00,,---,0.00,VWS V14.01,2013-10-09 20:33:00,
2013-10-09 16:34:00,63.9,59.0,30.00,NNE,23,0.0,3.0,84,0.00,,---,0.00,VWS V14.01,2013-10-09 20:34:00,
2013-10-09 16:35:00,63.9,59.0,30.00,NNE,23,0.0,3.0,84,0.00,,---,0.00,VWS V14.01,2013-10-09 20:35:00,
2013-10-09 16:36:00,63.9,59.0,30.00,NNE,23,0.0,3.0,84,0.00,,---,0.00,VWS V14.01,2013-10-09 20:36:00,
2013-10-09 16:37:00,63.9,59.0,30.00,NNE,23,0.0,3.0,84,0.00,,---,0.00,VWS V14.01,2013-10-09 20:37:00,
2013-10-09 16:38:00,63.9,59.0,30.00,WNW,299,2.0,3.0,84,0.00,,---,0.00,VWS V14.01,2013-10-09 20:38:00,
2013-10-09 16:39:00,63.9,59.0,30.00,WNW,289,2.0,3.0,84,0.00,,---,0.00,VWS V14.01,2013-10-09 20:39:00,
2013-10-09 16:40:00,63.9,59.0,30.00,ENE,71,0.0,3.0,84,0.00,,---,0.00,VWS V14.01,2013-10-09 20:40:00,
2013-10-09 16:41:00,63.9,59.0,30.00,SW,222,1.0,2.0,84,0.00,,---,0.00,VWS V14.01,2013-10-09 20:41:00,
2013-10-09 16:42:00,63.9,59.0,30.00,ENE,78,0.0,2.0,84,0.00,,---,0.00,VWS V14.01,2013-10-09 20:42:00,
2013-10-09 16:43:00,63.9,59.0,30.00,ENE,78,0.0,2.0,84,0.00,,---,0.00,VWS V14.01,2013-10-09 20:43:00,
2013-10-09 16:44:00,63.9,59.0,30.00,NNE,28,0.0,2.0,84,0.00,,---,0.00,VWS V14.01,2013-10-09 20:44:00,
2013-10-09 16:45:00,63.7,59.1,30.00,North,4,0.0,2.0,85,0.00,,---,0.00,VWS V14.01,2013-10-09 20:45:00,
2013-10-09 16:46:00,63.7,59.1,30.00,North,1,1.0,3.0,85,0.00,,---,0.00,VWS V14.01,2013-10-09 20:46:00,
2013-10-09 16:47:00,63.7,58.8,30.00,North,3,2.0,3.0,84,0.00,,---,0.00,VWS V14.01,2013-10-09 20:47:00,
2013-10-09 16:48:00,63.7,59.1,30.00,NE,37,0.0,5.0,85,0.00,,---,0.00,VWS V14.01,2013-10-09 20:48:00,
2013-10-09 16:49:00,63.7,59.1,30.00,NE,48,0.0,5.0,85,0.00,,---,0.00,VWS V14.01,2013-10-09 20:49:00,
2013-10-09 16:50:00,63.7,58.8,30.00,NNE,20,0.0,5.0,84,0.00,,---,0.00,VWS V14.01,2013-10-09 20:50:00,
2013-10-09 16:51:00,63.7,58.8,30.00,NNE,20,0.0,0.0,84,0.00,,---,0.00,VWS V14.01,2013-10-09 20:51:00,
2013-10-09 16:52:00,63.7,58.8,30.00,NNE,24,0.0,0.0,84,0.00,,---,0.00,VWS V14.01,2013-10-09 20:52:00,
2013-10-09 16:53:00,63.7,59.1,30.00,NW,311,0.0,7.0,85,0.00,,---,0.00,VWS V14.01,2013-10-09 20:53:00,
2013-10-09 16:54:00,63.7,59.1,30.00,North,0,1.0,7.0,85,0.00,,---,0.00,VWS V14.01,2013-10-09 20:54:00,
2013-10-09 16:55:00,63.7,58.8,30.00,SW,230,0.0,7.0,84,0.00,,---,0.00,VWS V14.01,2013-10-09 20:55:00,
2013-10-09 16:56:00,63.7,58.8,30.00,NNW,347,1.0,7.0,84,0.00,,---,0.00,VWS V14.01,2013-10-09 20:56:00,
2013-10-09 16:57:00,63.7,58.8,30.00,NNE,31,0.0,7.0,84,0.00,,---,0.00,VWS V14.01,2013-10-09 20:57:00,
2013-10-09 16:58:00,63.7,58.8,30.00,North,0,0.0,7.0,84,0.00,,---,0.00,VWS V14.01,2013-10-09 20:58:00,
2013-10-09 16:59:00,63.7,58.8,30.00,East,92,0.0,7.0,84,0.00,,---,0.00,VWS V14.01,2013-10-09 20:59:00,
2013-10-09 17:00:00,63.7,58.8,29.99,North,7,1.0,7.0,84,0.00,,---,0.00,VWS V14.01,2013-10-09 21:00:00,
2013-10-09 17:01:00,63.7,58.8,29.99,North,6,0.0,1.0,84,0.00,,---,0.00,VWS V14.01,2013-10-09 21:01:00,
2013-10-09 17:02:00,63.9,59.0,29.99,NE,38,1.0,1.0,84,0.00,,---,0.00,VWS V14.01,2013-10-09 21:02:00,
2013-10-09 17:03:00,63.9,59.0,29.99,NNW,340,2.0,8.0,84,0.00,,---,0.00,VWS V14.01,2013-10-09 21:03:00,
2013-10-09 17:04:00,63.9,59.0,29.99,ESE,103,0.0,8.0,84,0.00,,---,0.00,VWS V14.01,2013-10-09 21:04:00,
2013-10-09 17:05:00,63.9,59.0,29.99,NNE,30,2.0,8.0,84,0.00,,---,0.00,VWS V14.01,2013-10-09 21:05:00,
2013-10-09 17:06:00,63.9,59.0,29.99,ENE,68,1.0,8.0,84,0.00,,---,0.00,VWS V14.01,2013-10-09 21:06:00,
2013-10-09 17:07:00,63.9,59.0,29.99,NNE,16,1.0,8.0,84,0.00,,---,0.00,VWS V14.01,2013-10-09 21:07:00,
2013-10-09 17:08:00,63.9,59.0,29.99,NNW,337,0.0,8.0,84,0.00,,---,0.00,VWS V14.01,2013-10-09 21:08:00,
2013-10-09 17:09:00,63.9,59.0,29.99,NNW,337,0.0,8.0,84,0.00,,---,0.00,VWS V14.01,2013-10-09 21:09:00,
2013-10-09 17:10:00,63.9,59.0,29.99,NNW,330,0.0,8.0,84,0.00,,---,0.00,VWS V14.01,2013-10-09 21:10:00,
2013-10-09 17:11:00,63.9,59.0,29.99,NNW,330,0.0,0.0,84,0.00,,---,0.00,VWS V14.01,2013-10-09 21:11:00,
2013-10-09 17:12:00,63.9,58.6,29.99,North,0,0.0,2.0,83,0.00,,---,0.00,VWS V14.01,2013-10-09 21:12:00,
2013-10-09 17:13:00,63.9,58.6,29.99,North,0,0.0,3.0,83,0.00,,---,0.00,VWS V14.01,2013-10-09 21:13:00,
2013-10-09 17:14:00,63.7,58.5,29.99,North,0,0.0,5.0,83,0.00,,---,0.00,VWS V14.01,2013-10-09 21:14:00,
2013-10-09 17:15:00,63.7,58.5,29.99,NE,37,8.0,8.0,83,0.00,,---,0.00,VWS V14.01,2013-10-09 21:15:00,
2013-10-09 17:16:00,63.7,58.5,29.99,NNW,346,0.0,8.0,83,0.00,,---,0.00,VWS V14.01,2013-10-09 21:16:00,
2013-10-09 17:17:00,63.7,58.5,29.99,NE,55,0.0,8.0,83,0.00,,---,0.00,VWS V14.01,2013-10-09 21:17:00,
2013-10-09 17:18:00,63.7,58.8,29.99,NE,34,0.0,8.0,84,0.00,,---,0.00,VWS V14.01,2013-10-09 21:18:00,
2013-10-09 17:19:00,63.7,58.5,29.99,NE,37,2.0,8.0,83,0.00,,---,0.00,VWS V14.01,2013-10-09 21:19:00,
2013-10-09 17:20:00,63.7,58.8,29.99,NNE,28,3.0,8.0,84,0.00,,---,0.00,VWS V14.01,2013-10-09 21:20:00,
2013-10-09 17:21:00,63.7,58.5,29.99,NE,35,2.0,4.0,83,0.00,,---,0.00,VWS V14.01,2013-10-09 21:21:00,
2013-10-09 17:22:00,63.7,58.5,29.99,NE,35,0.0,4.0,83,0.00,,---,0.00,VWS V14.01,2013-10-09 21:22:00,
2013-10-09 17:23:00,63.7,58.8,29.99,ENE,71,0.0,4.0,84,0.00,,---,0.00,VWS V14.01,2013-10-09 21:23:00,
2013-10-09 17:24:00,63.7,58.5,29.99,NNE,13,0.0,4.0,83,0.00,,---,0.00,VWS V14.01,2013-10-09 21:24:00,
2013-10-09 17:25:00,63.7,58.8,29.99,NNE,14,0.0,4.0,84,0.00,,---,0.00,VWS V14.01,2013-10-09 21:25:00,
2013-10-09 17:26:00,63.7,58.8,29.99,NNE,14,0.0,4.0,84,0.00,,---,0.00,VWS V14.01,2013-10-09 21:26:00,
2013-10-09 17:27:00,63.7,58.8,29.99,West,272,3.0,4.0,84,0.00,,---,0.00,VWS V14.01,2013-10-09 21:27:00,
2013-10-09 17:28:00,63.7,58.5,29.99,West,271,0.0,4.0,83,0.00,,---,0.00,VWS V14.01,2013-10-09 21:28:00,
2013-10-09 17:29:00,63.7,58.5,29.99,West,271,0.0,4.0,83,0.00,,---,0.00,VWS V14.01,2013-10-09 21:29:00,
2013-10-09 17:30:00,63.7,58.5,29.99,West,271,0.0,4.0,83,0.00,,---,0.00,VWS V14.01,2013-10-09 21:30:00,
2013-10-09 17:31:00,63.7,58.5,29.99,NNW,340,0.0,0.0,83,0.00,,---,0.00,VWS V14.01,2013-10-09 21:31:00,
2013-10-09 17:32:00,63.7,58.5,29.99,NNW,340,0.0,0.0,83,0.00,,---,0.00,VWS V14.01,2013-10-09 21:32:00,
2013-10-09 17:33:00,63.7,58.5,29.99,SSW,195,0.0,0.0,83,0.00,,---,0.00,VWS V14.01,2013-10-09 21:33:00,
2013-10-09 17:34:00,63.7,58.5,29.99,SSW,196,0.0,0.0,83,0.00,,---,0.00,VWS V14.01,2013-10-09 21:34:00,
2013-10-09 17:35:00,63.7,58.5,29.99,SE,130,0.0,0.0,83,0.00,,---,0.00,VWS V14.01,2013-10-09 21:35:00,
2013-10-09 17:36:00,63.7,58.8,29.99,NNW,335,0.0,2.0,84,0.00,,---,0.00,VWS V14.01,2013-10-09 21:36:00,
2013-10-09 17:37:00,63.7,58.8,29.99,WNW,302,0.0,2.0,84,0.00,,---,0.00,VWS V14.01,2013-10-09 21:37:00,
2013-10-09 17:38:00,63.7,58.8,29.99,WNW,302,0.0,2.0,84,0.00,,---,0.00,VWS V14.01,2013-10-09 21:38:00,
2013-10-09 17:39:00,63.7,58.8,29.99,NE,44,0.0,3.0,84,0.00,,---,0.00,VWS V14.01,2013-10-09 21:39:00,
2013-10-09 17:40:00,63.7,58.8,29.99,NE,44,0.0,3.0,84,0.00,,---,0.00,VWS V14.01,2013-10-09 21:40:00,
2013-10-09 17:41:00,63.7,58.8,29.99,North,359,3.0,3.0,84,0.00,,---,0.00,VWS V14.01,2013-10-09 21:41:00,
2013-10-09 17:42:00,63.7,58.8,29.99,North,359,0.0,3.0,84,0.00,,---,0.00,VWS V14.01,2013-10-09 21:42:00,
2013-10-09 17:43:00,63.7,58.8,29.99,North,359,0.0,3.0,84,0.00,,---,0.00,VWS V14.01,2013-10-09 21:43:00,
2013-10-09 17:44:00,63.7,58.8,29.99,North,0,1.0,3.0,84,0.00,,---,0.00,VWS V14.01,2013-10-09 21:44:00,
2013-10-09 17:45:00,63.7,58.8,29.99,North,0,0.0,3.0,84,0.00,,---,0.00,VWS V14.01,2013-10-09 21:45:00,
2013-10-09 17:46:00,63.5,58.9,29.99,NW,326,3.0,3.0,85,0.00,,---,0.00,VWS V14.01,2013-10-09 21:46:00,
2013-10-09 17:47:00,63.5,58.9,29.99,North,6,5.0,10.0,85,0.00,,---,0.00,VWS V14.01,2013-10-09 21:47:00,
2013-10-09 17:48:00,63.5,58.6,29.99,SE,138,0.0,10.0,84,0.00,,---,0.00,VWS V14.01,2013-10-09 21:48:00,
2013-10-09 17:49:00,63.5,58.2,29.99,SE,138,0.0,10.0,83,0.00,,---,0.00,VWS V14.01,2013-10-09 21:49:00,
2013-10-09 17:50:00,63.5,58.2,29.99,North,0,2.0,10.0,83,0.00,,---,0.00,VWS V14.01,2013-10-09 21:50:00,
2013-10-09 17:51:00,63.5,58.2,29.99,ENE,61,5.0,5.0,83,0.00,,---,0.00,VWS V14.01,2013-10-09 21:51:00,
2013-10-09 17:52:00,63.4,58.5,29.99,NNW,340,0.0,5.0,84,0.00,,---,0.00,VWS V14.01,2013-10-09 21:52:00,
2013-10-09 17:53:00,63.4,58.5,29.99,NNW,340,1.0,5.0,84,0.00,,---,0.00,VWS V14.01,2013-10-09 21:53:00,
2013-10-09 17:54:00,63.4,58.5,29.99,North,359,2.0,5.0,84,0.00,,---,0.00,VWS V14.01,2013-10-09 21:54:00,
2013-10-09 17:55:00,63.4,58.5,29.99,NNW,342,8.0,8.0,84,0.00,,---,0.00,VWS V14.01,2013-10-09 21:55:00,
2013-10-09 17:56:00,63.4,58.5,29.99,NNW,347,0.0,8.0,84,0.00,,---,0.00,VWS V14.01,2013-10-09 21:56:00,
2013-10-09 17:57:00,63.4,58.5,29.99,NNE,17,0.0,8.0,84,0.00,,---,0.00,VWS V14.01,2013-10-09 21:57:00,
2013-10-09 17:58:00,63.2,58.3,29.99,North,359,3.0,8.0,84,0.00,,---,0.00,VWS V14.01,2013-10-09 21:58:00,
2013-10-09 17:59:00,63.2,58.3,29.99,North,0,0.0,8.0,84,0.00,,---,0.00,VWS V14.01,2013-10-09 21:59:00,
2013-10-09 18:00:00,63.2,58.0,30.00,North,11,5.0,8.0,83,0.00,,---,0.00,VWS V14.01,2013-10-09 22:00:00,
2013-10-09 18:01:00,63.2,58.0,30.00,NNE,23,7.0,7.0,83,0.00,,---,0.00,VWS V14.01,2013-10-09 22:01:00,
2013-10-09 18:02:00,63.2,58.3,30.00,NE,49,7.0,10.0,84,0.00,,---,0.00,VWS V14.01,2013-10-09 22:02:00,
2013-10-09 18:03:00,63.2,58.3,30.00,North,354,0.0,10.0,84,0.00,,---,0.00,VWS V14.01,2013-10-09 22:03:00,
2013-10-09 18:04:00,63.2,58.0,30.00,NE,34,1.0,10.0,83,0.00,,---,0.00,VWS V14.01,2013-10-09 22:04:00,
2013-10-09 18:05:00,63.1,57.9,30.00,North,0,0.0,10.0,83,0.00,,---,0.00,VWS V14.01,2013-10-09 22:05:00,
2013-10-09 18:06:00,63.1,58.2,30.00,NNE,21,0.0,10.0,84,0.00,,---,0.00,VWS V14.01,2013-10-09 22:06:00,
2013-10-09 18:07:00,63.1,58.2,30.00,North,349,2.0,10.0,84,0.00,,---,0.00,VWS V14.01,2013-10-09 22:07:00,
2013-10-09 18:08:00,63.1,58.2,30.00,North,0,2.0,10.0,84,0.00,,---,0.00,VWS V14.01,2013-10-09 22:08:00,
2013-10-09 18:09:00,63.1,58.2,30.00,North,0,0.0,10.0,84,0.00,,---,0.00,VWS V14.01,2013-10-09 22:09:00,
2013-10-09 18:10:00,63.1,58.2,30.00,North,0,0.0,10.0,84,0.00,,---,0.00,VWS V14.01,2013-10-09 22:10:00,
2013-10-09 18:11:00,63.1,58.2,30.00,NNE,13,2.0,3.0,84,0.00,,---,0.00,VWS V14.01,2013-10-09 22:11:00,
2013-10-09 18:12:00,63.1,58.2,30.00,NE,34,1.0,4.0,84,0.00,,---,0.00,VWS V14.01,2013-10-09 22:12:00,
2013-10-09 18:13:00,63.1,58.2,30.00,NW,325,0.0,8.0,84,0.00,,---,0.00,VWS V14.01,2013-10-09 22:13:00,
2013-10-09 18:14:00,63.1,58.2,30.00,NW,325,0.0,8.0,84,0.00,,---,0.00,VWS V14.01,2013-10-09 22:14:00,
2013-10-09 18:15:00,62.9,58.0,30.00,NNW,339,5.0,13.0,84,0.00,,---,0.00,VWS V14.01,2013-10-09 22:15:00,
2013-10-09 18:16:00,62.9,58.0,30.00,NNE,20,5.0,13.0,84,0.00,,---,0.00,VWS V14.01,2013-10-09 22:16:00,
2013-10-09 18:17:00,62.9,58.0,30.00,North,0,0.0,13.0,84,0.00,,---,0.00,VWS V14.01,2013-10-09 22:17:00,
2013-10-09 18:18:00,62.9,58.0,30.00,North,7,5.0,13.0,84,0.00,,---,0.00,VWS V14.01,2013-10-09 22:18:00,
2013-10-09 18:19:00,62.9,58.0,30.00,NE,34,0.0,13.0,84,0.00,,---,0.00,VWS V14.01,2013-10-09 22:19:00,
2013-10-09 18:20:00,62.9,58.0,30.00,NE,34,0.0,13.0,84,0.00,,---,0.00,VWS V14.01,2013-10-09 22:20:00,
2013-10-09 18:21:00,62.9,58.3,30.00,East,95,0.0,1.0,85,0.00,,---,0.00,VWS V14.01,2013-10-09 22:21:00,
2013-10-09 18:22:00,62.9,58.3,30.00,East,95,0.0,1.0,85,0.00,,---,0.00,VWS V14.01,2013-10-09 22:22:00,
2013-10-09 18:23:00,62.7,58.1,30.00,North,359,5.0,5.0,85,0.00,,---,0.00,VWS V14.01,2013-10-09 22:23:00,
2013-10-09 18:24:00,62.7,58.1,30.00,North,4,0.0,6.0,85,0.00,,---,0.00,VWS V14.01,2013-10-09 22:24:00,
2013-10-09 18:25:00,62.7,58.1,30.00,North,0,2.0,6.0,85,0.00,,---,0.00,VWS V14.01,2013-10-09 22:25:00,
2013-10-09 18:26:00,62.7,58.1,30.00,North,3,0.0,6.0,85,0.00,,---,0.00,VWS V14.01,2013-10-09 22:26:00,
2013-10-09 18:27:00,62.7,58.1,30.00,North,359,2.0,6.0,85,0.00,,---,0.00,VWS V14.01,2013-10-09 22:27:00,
2013-10-09 18:28:00,62.7,58.1,30.00,NNE,23,0.0,10.0,85,0.00,,---,0.00,VWS V14.01,2013-10-09 22:28:00,
2013-10-09 18:29:00,62.7,58.1,30.00,NNE,23,0.0,10.0,85,0.00,,---,0.00,VWS V14.01,2013-10-09 22:29:00,
2013-10-09 18:30:00,62.7,58.1,29.99,NNE,23,0.0,10.0,85,0.00,,---,0.00,VWS V14.01,2013-10-09 22:30:00,
2013-10-09 18:31:00,62.7,58.1,29.99,NNE,23,0.0,0.0,85,0.00,,---,0.00,VWS V14.01,2013-10-09 22:31:00,
2013-10-09 18:32:00,62.7,58.1,29.99,North,10,0.0,0.0,85,0.00,,---,0.00,VWS V14.01,2013-10-09 22:32:00,
2013-10-09 18:33:00,62.6,58.0,29.99,NNE,25,3.0,6.0,85,0.00,,---,0.00,VWS V14.01,2013-10-09 22:33:00,
2013-10-09 18:34:00,62.6,58.0,29.99,NE,38,0.0,6.0,85,0.00,,---,0.00,VWS V14.01,2013-10-09 22:34:00,
2013-10-09 18:35:00,62.6,58.0,29.99,North,1,0.0,6.0,85,0.00,,---,0.00,VWS V14.01,2013-10-09 22:35:00,
2013-10-09 18:36:00,62.6,58.0,29.99,North,1,0.0,6.0,85,0.00,,---,0.00,VWS V14.01,2013-10-09 22:36:00,
2013-10-09 18:37:00,62.6,58.0,29.99,North,0,0.0,6.0,85,0.00,,---,0.00,VWS V14.01,2013-10-09 22:37:00,
2013-10-09 18:38:00,62.6,58.4,29.99,North,0,0.0,6.0,86,0.00,,---,0.00,VWS V14.01,2013-10-09 22:38:00,
2013-10-09 18:39:00,62.6,58.0,29.99,NNE,28,3.0,6.0,85,0.00,,---,0.00,VWS V14.01,2013-10-09 22:39:00,
2013-10-09 18:40:00,62.6,58.0,29.99,North,10,2.0,6.0,85,0.00,,---,0.00,VWS V14.01,2013-10-09 22:40:00,
2013-10-09 18:41:00,62.6,58.0,29.99,NE,47,0.0,7.0,85,0.00,,---,0.00,VWS V14.01,2013-10-09 22:41:00,
2013-10-09 18:42:00,62.6,58.0,29.99,NE,47,1.0,7.0,85,0.00,,---,0.00,VWS V14.01,2013-10-09 22:42:00,
2013-10-09 18:43:00,62.6,58.0,29.99,North,0,0.0,7.0,85,0.00,,---,0.00,VWS V14.01,2013-10-09 22:43:00,
2013-10-09 18:44:00,62.4,57.8,29.99,North,0,0.0,7.0,85,0.00,,---,0.00,VWS V14.01,2013-10-09 22:44:00,
2013-10-09 18:45:00,62.4,57.8,29.99,North,0,0.0,7.0,85,0.00,,---,0.00,VWS V14.01,2013-10-09 22:45:00,
2013-10-09 18:46:00,62.4,57.8,29.99,NNE,32,6.0,11.0,85,0.00,,---,0.00,VWS V14.01,2013-10-09 22:46:00,
2013-10-09 18:47:00,62.4,57.8,29.99,NNE,28,6.0,11.0,85,0.00,,---,0.00,VWS V14.01,2013-10-09 22:47:00,
2013-10-09 18:48:00,62.4,57.8,29.99,North,357,6.0,11.0,85,0.00,,---,0.00,VWS V14.01,2013-10-09 22:48:00,
2013-10-09 18:49:00,62.4,57.8,29.99,NW,322,0.0,11.0,85,0.00,,---,0.00,VWS V14.01,2013-10-09 22:49:00,
2013-10-09 18:50:00,62.4,57.8,29.99,NNW,346,3.0,11.0,85,0.00,,---,0.00,VWS V14.01,2013-10-09 22:50:00,
2013-10-09 18:51:00,62.3,57.7,29.99,NE,40,3.0,3.0,85,0.00,,---,0.00,VWS V14.01,2013-10-09 22:51:00,
2013-10-09 18:52:00,62.3,57.7,29.99,NNE,27,0.0,3.0,85,0.00,,---,0.00,VWS V14.01,2013-10-09 22:52:00,
2013-10-09 18:53:00,62.3,57.7,29.99,NNE,27,0.0,3.0,85,0.00,,---,0.00,VWS V14.01,2013-10-09 22:53:00,
2013-10-09 18:54:00,62.3,57.7,29.99,NE,35,0.0,3.0,85,0.00,,---,0.00,VWS V14.01,2013-10-09 22:54:00,
2013-10-09 18:55:00,62.3,57.7,29.99,WNW,302,0.0,4.0,85,0.00,,---,0.00,VWS V14.01,2013-10-09 22:55:00,
2013-10-09 18:56:00,62.3,57.7,29.99,NE,48,1.0,4.0,85,0.00,,---,0.00,VWS V14.01,2013-10-09 22:56:00,
2013-10-09 18:57:00,62.3,57.7,29.99,North,359,1.0,5.0,85,0.00,,---,0.00,VWS V14.01,2013-10-09 22:57:00,
2013-10-09 18:58:00,62.3,58.1,29.99,North,359,0.0,5.0,86,0.00,,---,0.00,VWS V14.01,2013-10-09 22:58:00,
2013-10-09 18:59:00,62.3,58.1,29.99,North,0,1.0,5.0,86,0.00,,---,0.00,VWS V14.01,2013-10-09 22:59:00,
2013-10-09 19:00:00,62.1,57.9,29.99,NE,35,3.0,7.0,86,0.00,,---,0.00,VWS V14.01,2013-10-09 23:00:00,
2013-10-09 19:01:00,62.1,57.5,29.99,NE,42,0.0,3.0,85,0.00,,---,0.00,VWS V14.01,2013-10-09 23:01:00,
2013-10-09 19:02:00,62.1,57.5,29.99,NE,42,2.0,11.0,85,0.00,,---,0.00,VWS V14.01,2013-10-09 23:02:00,
2013-10-09 19:03:00,62.1,57.5,29.99,NNE,13,1.0,11.0,85,0.00,,---,0.00,VWS V14.01,2013-10-09 23:03:00,
2013-10-09 19:04:00,62.1,57.5,29.99,North,3,5.0,11.0,85,0.00,,---,0.00,VWS V14.01,2013-10-09 23:04:00,
2013-10-09 19:05:00,62.1,57.5,29.99,WNW,284,2.0,11.0,85,0.00,,---,0.00,VWS V14.01,2013-10-09 23:05:00,
2013-10-09 19:06:00,62.1,57.5,29.99,NNE,28,1.0,11.0,85,0.00,,---,0.00,VWS V14.01,2013-10-09 23:06:00,
2013-10-09 19:07:00,62.1,57.5,29.99,NNW,347,3.0,11.0,85,0.00,,---,0.00,VWS V14.01,2013-10-09 23:07:00,
2013-10-09 19:08:00,62.1,57.9,29.99,NE,37,2.0,11.0,86,0.00,,---,0.00,VWS V14.01,2013-10-09 23:08:00,
2013-10-09 19:09:00,62.1,57.9,29.99,NNE,21,0.0,11.0,86,0.00,,---,0.00,VWS V14.01,2013-10-09 23:09:00,
2013-10-09 19:10:00,62.1,57.9,29.99,NNE,21,0.0,11.0,86,0.00,,---,0.00,VWS V14.01,2013-10-09 23:10:00,
2013-10-09 19:11:00,62.1,57.9,29.99,NNE,21,0.0,0.0,86,0.00,,---,0.00,VWS V14.01,2013-10-09 23:11:00,
2013-10-09 19:12:00,62.1,57.5,29.99,NNW,330,2.0,5.0,85,0.00,,---,0.00,VWS V14.01,2013-10-09 23:12:00,
2013-10-09 19:13:00,62.1,57.5,29.99,North,359,2.0,5.0,85,0.00,,---,0.00,VWS V14.01,2013-10-09 23:13:00,
2013-10-09 19:14:00,62.1,57.5,29.99,WSW,251,0.0,5.0,85,0.00,,---,0.00,VWS V14.01,2013-10-09 23:14:00,
2013-10-09 19:15:00,62.1,57.9,29.99,NNE,14,5.0,8.0,86,0.00,,---,0.00,VWS V14.01,2013-10-09 23:15:00,
2013-10-09 19:16:00,62.0,57.5,29.99,North,8,3.0,8.0,85,0.00,,---,0.00,VWS V14.01,2013-10-09 23:16:00,
2013-10-09 19:17:00,62.0,57.5,29.99,North,8,0.0,8.0,85,0.00,,---,0.00,VWS V14.01,2013-10-09 23:17:00,
2013-10-09 19:18:00,62.0,57.8,29.99,NNE,27,0.0,8.0,86,0.00,,---,0.00,VWS V14.01,2013-10-09 23:18:00,
2013-10-09 19:19:00,62.0,57.8,29.99,ENE,66,4.0,8.0,86,0.00,,---,0.00,VWS V14.01,2013-10-09 23:19:00,
2013-10-09 19:20:00,62.0,57.8,29.99,North,8,1.0,11.0,86,0.00,,---,0.00,VWS V14.01,2013-10-09 23:20:00,
2013-10-09 19:21:00,62.0,57.8,29.99,NNE,32,6.0,7.0,86,0.00,,---,0.00,VWS V14.01,2013-10-09 23:21:00,
2013-10-09 19:22:00,62.0,57.5,29.99,NE,38,2.0,7.0,85,0.00,,---,0.00,VWS V14.01,2013-10-09 23:22:00,
2013-10-09 19:23:00,62.0,57.5,29.99,North,10,1.0,8.0,85,0.00,,---,0.00,VWS V14.01,2013-10-09 23:23:00,
2013-10-09 19:24:00,62.0,57.5,29.99,North,10,3.0,8.0,85,0.00,,---,0.00,VWS V14.01,2013-10-09 23:24:00,
2013-10-09 19:25:00,62.0,57.5,29.99,NE,37,6.0,8.0,85,0.00,,---,0.00,VWS V14.01,2013-10-09 23:25:00,
2013-10-09 19:26:00,62.0,57.8,29.99,NNE,32,5.0,8.0,86,0.00,,---,0.00,VWS V14.01,2013-10-09 23:26:00,
2013-10-09 19:27:00,62.0,57.5,29.99,North,356,1.0,8.0,85,0.00,,---,0.00,VWS V14.01,2013-10-09 23:27:00,
2013-10-09 19:28:00,62.0,57.5,29.99,North,356,0.0,8.0,85,0.00,,---,0.00,VWS V14.01,2013-10-09 23:28:00,
2013-10-09 19:29:00,62.0,57.5,29.99,NE,48,1.0,8.0,85,0.00,,---,0.00,VWS V14.01,2013-10-09 23:29:00,
2013-10-09 19:30:00,62.0,57.5,29.99,NNE,13,0.0,8.0,85,0.00,,---,0.00,VWS V14.01,2013-10-09 23:30:00,
2013-10-09 19:31:00,62.0,57.8,29.99,NNW,342,3.0,3.0,86,0.00,,---,0.00,VWS V14.01,2013-10-09 23:31:00,
2013-10-09 19:32:00,62.0,57.8,29.99,NW,316,0.0,3.0,86,0.00,,---,0.00,VWS V14.01,2013-10-09 23:32:00,
2013-10-09 19:33:00,61.8,57.6,29.99,NNE,27,2.0,3.0,86,0.00,,---,0.00,VWS V14.01,2013-10-09 23:33:00,
2013-10-09 19:34:00,61.8,57.6,29.99,NNE,27,1.0,10.0,86,0.00,,---,0.00,VWS V14.01,2013-10-09 23:34:00,
2013-10-09 19:35:00,61.8,57.6,29.99,NNE,28,2.0,10.0,86,0.00,,---,0.00,VWS V14.01,2013-10-09 23:35:00,
2013-10-09 19:36:00,61.8,57.6,29.99,North,359,0.0,10.0,86,0.00,,---,0.00,VWS V14.01,2013-10-09 23:36:00,
2013-10-09 19:37:00,61.8,57.6,29.99,North,359,0.0,10.0,86,0.00,,---,0.00,VWS V14.01,2013-10-09 23:37:00,
2013-10-09 19:38:00,61.8,57.6,29.99,North,0,0.0,10.0,86,0.00,,---,0.00,VWS V14.01,2013-10-09 23:38:00,
2013-10-09 19:39:00,61.8,57.6,29.99,North,1,0.0,10.0,86,0.00,,---,0.00,VWS V14.01,2013-10-09 23:39:00,
2013-10-09 19:40:00,61.8,57.6,29.99,WSW,250,0.0,10.0,86,0.00,,---,0.00,VWS V14.01,2013-10-09 23:40:00,
2013-10-09 19:41:00,61.8,57.6,29.99,WSW,250,0.0,0.0,86,0.00,,---,0.00,VWS V14.01,2013-10-09 23:41:00,
2013-10-09 19:42:00,61.8,57.6,29.99,WSW,250,0.0,0.0,86,0.00,,---,0.00,VWS V14.01,2013-10-09 23:42:00,
2013-10-09 19:43:00,61.8,57.6,29.99,WSW,256,0.0,2.0,86,0.00,,---,0.00,VWS V14.01,2013-10-09 23:43:00,
2013-10-09 19:44:00,61.8,57.6,29.99,NNE,25,2.0,2.0,86,0.00,,---,0.00,VWS V14.01,2013-10-09 23:44:00,
2013-10-09 19:45:00,61.6,57.4,29.99,NE,34,0.0,2.0,86,0.00,,---,0.00,VWS V14.01,2013-10-09 23:45:00,
2013-10-09 19:46:00,61.6,57.4,29.99,NE,34,0.0,2.0,86,0.00,,---,0.00,VWS V14.01,2013-10-09 23:46:00,
2013-10-09 19:47:00,61.6,57.4,29.99,NE,34,0.0,2.0,86,0.00,,---,0.00,VWS V14.01,2013-10-09 23:47:00,
2013-10-09 19:48:00,61.6,57.4,29.99,NE,34,0.0,2.0,86,0.00,,---,0.00,VWS V14.01,2013-10-09 23:48:00,
2013-10-09 19:49:00,61.6,57.4,29.99,SE,144,0.0,2.0,86,0.00,,---,0.00,VWS V14.01,2013-10-09 23:49:00,
2013-10-09 19:50:00,61.6,57.4,29.99,SE,144,0.0,2.0,86,0.00,,---,0.00,VWS V14.01,2013-10-09 23:50:00,
2013-10-09 19:51:00,61.6,57.4,29.99,SE,144,0.0,0.0,86,0.00,,---,0.00,VWS V14.01,2013-10-09 23:51:00,
2013-10-09 19:52:00,61.6,57.4,29.99,NW,326,0.0,1.0,86,0.00,,---,0.00,VWS V14.01,2013-10-09 23:52:00,
2013-10-09 19:53:00,61.6,57.4,29.99,NW,326,0.0,1.0,86,0.00,,---,0.00,VWS V14.01,2013-10-09 23:53:00,
2013-10-09 19:54:00,61.6,57.4,29.99,NW,326,0.0,1.0,86,0.00,,---,0.00,VWS V14.01,2013-10-09 23:54:00,
2013-10-09 19:55:00,61.6,57.4,29.99,NW,313,0.0,2.0,86,0.00,,---,0.00,VWS V14.01,2013-10-09 23:55:00,
2013-10-09 19:56:00,61.6,57.4,29.99,NW,320,0.0,2.0,86,0.00,,---,0.00,VWS V14.01,2013-10-09 23:56:00,
2013-10-09 19:57:00,61.6,57.4,29.99,NNE,31,1.0,6.0,86,0.00,,---,0.00,VWS V14.01,2013-10-09 23:57:00,
2013-10-09 19:58:00,61.6,57.4,29.99,North,11,2.0,6.0,86,0.00,,---,0.00,VWS V14.01,2013-10-09 23:58:00,
2013-10-09 19:59:00,61.5,57.3,29.99,NNE,18,3.0,6.0,86,0.00,,---,0.00,VWS V14.01,2013-10-09 23:59:00,
2013-10-09 20:00:00,61.5,57.3,29.99,NNE,18,0.0,6.0,86,0.00,,---,0.00,VWS V14.01,2013-10-10 00:00:00,
2013-10-09 20:01:00,61.5,57.3,29.99,NNE,18,0.0,0.0,86,0.00,,---,0.00,VWS V14.01,2013-10-10 00:01:00,
2013-10-09 20:02:00,61.5,57.3,29.99,NNE,32,3.0,6.0,86,0.00,,---,0.00,VWS V14.01,2013-10-10 00:02:00,
2013-10-09 20:03:00,61.5,57.6,29.99,North,353,4.0,6.0,87,0.00,,---,0.00,VWS V14.01,2013-10-10 00:03:00,
2013-10-09 20:04:00,61.5,57.3,29.99,North,0,2.0,6.0,86,0.00,,---,0.00,VWS V14.01,2013-10-10 00:04:00,
2013-10-09 20:05:00,61.5,57.3,29.99,NE,51,3.0,8.0,86,0.00,,---,0.00,VWS V14.01,2013-10-10 00:05:00,
2013-10-09 20:06:00,61.5,57.3,29.99,NNE,30,6.0,8.0,86,0.00,,---,0.00,VWS V14.01,2013-10-10 00:06:00,
2013-10-09 20:07:00,61.5,57.3,29.99,North,0,0.0,8.0,86,0.00,,---,0.00,VWS V14.01,2013-10-10 00:07:00,
2013-10-09 20:08:00,61.5,57.6,29.99,NNE,27,3.0,8.0,87,0.00,,---,0.00,VWS V14.01,2013-10-10 00:08:00,
2013-10-09 20:09:00,61.5,57.6,29.99,NE,34,0.0,8.0,87,0.00,,---,0.00,VWS V14.01,2013-10-10 00:09:00,
2013-10-09 20:10:00,61.5,57.6,29.99,NE,34,0.0,8.0,87,0.00,,---,0.00,VWS V14.01,2013-10-10 00:10:00,
2013-10-09 20:11:00,61.5,57.6,29.99,North,8,3.0,3.0,87,0.00,,---,0.00,VWS V14.01,2013-10-10 00:11:00,
2013-10-09 20:12:00,61.5,57.6,29.99,North,0,2.0,3.0,87,0.00,,---,0.00,VWS V14.01,2013-10-10 00:12:00,
2013-10-09 20:13:00,61.5,57.6,29.99,SSW,212,5.0,5.0,87,0.00,,---,0.00,VWS V14.01,2013-10-10 00:13:00,
2013-10-09 20:14:00,61.5,57.6,29.99,WSW,237,0.0,5.0,87,0.00,,---,0.00,VWS V14.01,2013-10-10 00:14:00,
2013-10-09 20:15:00,61.5,57.6,29.99,North,3,0.0,5.0,87,0.00,,---,0.00,VWS V14.01,2013-10-10 00:15:00,
2013-10-09 20:16:00,61.5,57.6,29.99,North,3,0.0,5.0,87,0.00,,---,0.00,VWS V14.01,2013-10-10 00:16:00,
2013-10-09 20:17:00,61.3,57.4,29.99,North,3,0.0,5.0,87,0.00,,---,0.00,VWS V14.01,2013-10-10 00:17:00,
2013-10-09 20:18:00,61.3,57.4,29.99,NNE,24,3.0,5.0,87,0.00,,---,0.00,VWS V14.01,2013-10-10 00:18:00,
2013-10-09 20:19:00,61.3,57.4,29.99,North,0,0.0,5.0,87,0.00,,---,0.00,VWS V14.01,2013-10-10 00:19:00,
2013-10-09 20:20:00,61.3,57.7,29.99,North,0,0.0,5.0,88,0.00,,---,0.00,VWS V14.01,2013-10-10 00:20:00,
2013-10-09 20:21:00,61.3,57.7,29.99,NW,315,0.0,1.0,88,0.00,,---,0.00,VWS V14.01,2013-10-10 00:21:00,
2013-10-09 20:22:00,61.3,57.7,29.99,NW,315,0.0,1.0,88,0.00,,---,0.00,VWS V14.01,2013-10-10 00:22:00,
2013-10-09 20:23:00,61.3,57.7,29.99,ENE,65,7.0,7.0,88,0.00,,---,0.00,VWS V14.01,2013-10-10 00:23:00,
2013-10-09 20:24:00,61.2,57.9,29.99,North,6,0.0,10.0,89,0.00,,---,0.00,VWS V14.01,2013-10-10 00:24:00,
2013-10-09 20:25:00,61.2,57.9,29.99,NW,320,1.0,10.0,89,0.00,,---,0.00,VWS V14.01,2013-10-10 00:25:00,
2013-10-09 20:26:00,61.2,57.9,29.99,North,359,5.0,10.0,89,0.00,,---,0.00,VWS V14.01,2013-10-10 00:26:00,
2013-10-09 20:27:00,61.2,57.9,29.99,North,10,0.0,10.0,89,0.00,,---,0.00,VWS V14.01,2013-10-10 00:27:00,
2013-10-09 20:28:00,61.0,57.7,29.99,North,10,0.0,10.0,89,0.00,,---,0.00,VWS V14.01,2013-10-10 00:28:00,
2013-10-09 20:29:00,61.0,57.7,29.99,NNW,330,1.0,10.0,89,0.00,,---,0.00,VWS V14.01,2013-10-10 00:29:00,
2013-10-09 20:30:00,61.0,57.7,29.99,NNW,330,0.0,10.0,89,0.00,,---,0.00,VWS V14.01,2013-10-10 00:30:00,
2013-10-09 20:31:00,61.0,57.7,29.99,NNW,330,1.0,1.0,89,0.00,,---,0.00,VWS V14.01,2013-10-10 00:31:00,
2013-10-09 20:32:00,60.9,57.6,29.99,NNW,347,0.0,2.0,89,0.00,,---,0.00,VWS V14.01,2013-10-10 00:32:00,
2013-10-09 20:33:00,60.9,57.6,29.99,NNW,347,0.0,2.0,89,0.00,,---,0.00,VWS V14.01,2013-10-10 00:33:00,
2013-10-09 20:34:00,60.9,57.6,29.99,NNW,347,3.0,3.0,89,0.00,,---,0.00,VWS V14.01,2013-10-10 00:34:00,
2013-10-09 20:35:00,60.9,57.6,29.99,ESE,113,0.0,3.0,89,0.00,,---,0.00,VWS V14.01,2013-10-10 00:35:00,
2013-10-09 20:36:00,60.9,57.6,29.99,North,6,0.0,3.0,89,0.00,,---,0.00,VWS V14.01,2013-10-10 00:36:00,
2013-10-09 20:37:00,60.7,57.4,29.99,NW,313,0.0,4.0,89,0.00,,---,0.00,VWS V14.01,2013-10-10 00:37:00,
2013-10-09 20:38:00,60.7,57.8,29.99,NW,316,0.0,4.0,90,0.00,,---,0.00,VWS V14.01,2013-10-10 00:38:00,
2013-10-09 20:39:00,60.7,57.8,29.99,NW,316,0.0,4.0,90,0.00,,---,0.00,VWS V14.01,2013-10-10 00:39:00,
2013-10-09 20:40:00,60.7,57.8,29.99,NW,316,0.0,4.0,90,0.00,,---,0.00,VWS V14.01,2013-10-10 00:40:00,
2013-10-09 20:41:00,60.7,57.8,29.99,NNW,328,3.0,6.0,90,0.00,,---,0.00,VWS V14.01,2013-10-10 00:41:00,
2013-10-09 20:42:00,60.5,57.6,29.99,North,6,0.0,6.0,90,0.00,,---,0.00,VWS V14.01,2013-10-10 00:42:00,
2013-10-09 20:43:00,60.5,57.6,29.99,North,6,0.0,6.0,90,0.00,,---,0.00,VWS V14.01,2013-10-10 00:43:00,
2013-10-09 20:44:00,60.5,57.6,29.99,North,6,0.0,6.0,90,0.00,,---,0.00,VWS V14.01,2013-10-10 00:44:00,
2013-10-09 20:45:00,60.5,57.6,29.99,North,6,0.0,6.0,90,0.00,,---,0.00,VWS V14.01,2013-10-10 00:45:00,
2013-10-09 20:46:00,60.5,57.6,29.99,NE,54,0.0,6.0,90,0.00,,---,0.00,VWS V14.01,2013-10-10 00:46:00,
2013-10-09 20:47:00,60.5,57.6,29.99,NNW,330,0.0,6.0,90,0.00,,---,0.00,VWS V14.01,2013-10-10 00:47:00,
2013-10-09 20:48:00,60.5,57.9,29.99,North,0,2.0,6.0,91,0.00,,---,0.00,VWS V14.01,2013-10-10 00:48:00,
2013-10-09 20:49:00,60.5,57.9,29.99,NNE,31,0.0,6.0,91,0.00,,---,0.00,VWS V14.01,2013-10-10 00:49:00,
2013-10-09 20:50:00,60.4,57.8,29.99,North,359,0.0,6.0,91,0.00,,---,0.00,VWS V14.01,2013-10-10 00:50:00,
2013-10-09 20:51:00,60.4,57.8,29.99,North,359,0.0,1.0,91,0.00,,---,0.00,VWS V14.01,2013-10-10 00:51:00,
2013-10-09 20:52:00,60.4,57.8,29.99,North,359,0.0,1.0,91,0.00,,---,0.00,VWS V14.01,2013-10-10 00:52:00,
2013-10-09 20:53:00,60.4,57.8,29.99,North,0,0.0,1.0,91,0.00,,---,0.00,VWS V14.01,2013-10-10 00:53:00,
2013-10-09 20:54:00,60.4,57.8,29.99,NNW,333,0.0,1.0,91,0.00,,---,0.00,VWS V14.01,2013-10-10 00:54:00,
2013-10-09 20:55:00,60.4,57.8,29.99,North,6,0.0,1.0,91,0.00,,---,0.00,VWS V14.01,2013-10-10 00:55:00,
2013-10-09 20:56:00,60.4,57.8,29.99,North,6,0.0,1.0,91,0.00,,---,0.00,VWS V14.01,2013-10-10 00:56:00,
2013-10-09 20:57:00,60.4,57.8,29.99,North,6,0.0,1.0,91,0.00,,---,0.00,VWS V14.01,2013-10-10 00:57:00,
2013-10-09 20:58:00,60.4,57.8,29.99,NE,47,0.0,1.0,91,0.00,,---,0.00,VWS V14.01,2013-10-10 00:58:00,
2013-10-09 20:59:00,60.2,57.9,29.99,NE,47,0.0,1.0,92,0.00,,---,0.00,VWS V14.01,2013-10-10 00:59:00,
2013-10-09 21:00:00,60.2,57.9,29.99,North,0,0.0,1.0,92,0.00,,---,0.00,VWS V14.01,2013-10-10 01:00:00,
2013-10-09 21:01:00,60.2,57.9,29.99,NNW,337,1.0,10.0,92,0.00,,---,0.00,VWS V14.01,2013-10-10 01:01:00,
2013-10-09 21:02:00,60.2,57.9,29.99,NNW,337,0.0,10.0,92,0.00,,---,0.00,VWS V14.01,2013-10-10 01:02:00,
2013-10-09 21:03:00,60.1,57.8,29.99,SSE,164,0.0,10.0,92,0.00,,---,0.00,VWS V14.01,2013-10-10 01:03:00,
2013-10-09 21:04:00,60.1,57.8,29.99,East,83,0.0,10.0,92,0.00,,---,0.00,VWS V14.01,2013-10-10 01:04:00,
2013-10-09 21:05:00,60.1,57.8,29.99,East,83,0.0,10.0,92,0.00,,---,0.00,VWS V14.01,2013-10-10 01:05:00,
2013-10-09 21:06:00,60.1,57.8,29.99,East,83,0.0,10.0,92,0.00,,---,0.00,VWS V14.01,2013-10-10 01:06:00,
2013-10-09 21:07:00,60.1,58.1,29.99,East,83,0.0,10.0,93,0.00,,---,0.00,VWS V14.01,2013-10-10 01:07:00,
2013-10-09 21:08:00,60.1,58.1,29.99,NW,316,0.0,10.0,93,0.00,,---,0.00,VWS V14.01,2013-10-10 01:08:00,
2013-10-09 21:09:00,60.1,58.1,29.99,NNE,20,0.0,10.0,93,0.00,,---,0.00,VWS V14.01,2013-10-10 01:09:00,
2013-10-09 21:10:00,60.1,58.1,29.99,NNE,20,0.0,10.0,93,0.00,,---,0.00,VWS V14.01,2013-10-10 01:10:00,
2013-10-09 21:11:00,59.9,57.9,29.99,NNE,20,0.0,0.0,93,0.00,,---,0.00,VWS V14.01,2013-10-10 01:11:00,
2013-10-09 21:12:00,59.9,57.9,29.99,North,0,0.0,0.0,93,0.00,,---,0.00,VWS V14.01,2013-10-10 01:12:00,
2013-10-09 21:13:00,59.9,57.9,29.99,NNW,332,0.0,2.0,93,0.00,,---,0.00,VWS V14.01,2013-10-10 01:13:00,
2013-10-09 21:14:00,59.9,58.2,29.99,NNW,332,0.0,2.0,94,0.00,,---,0.00,VWS V14.01,2013-10-10 01:14:00,
2013-10-09 21:15:00,59.8,58.1,29.99,NNW,332,0.0,2.0,94,0.00,,---,0.00,VWS V14.01,2013-10-10 01:15:00,
2013-10-09 21:16:00,59.8,58.1,29.99,North,353,0.0,2.0,94,0.00,,---,0.00,VWS V14.01,2013-10-10 01:16:00,
2013-10-09 21:17:00,59.8,58.1,29.99,North,4,0.0,2.0,94,0.00,,---,0.00,VWS V14.01,2013-10-10 01:17:00,
2013-10-09 21:18:00,59.8,58.4,29.99,North,4,0.0,2.0,95,0.00,,---,0.00,VWS V14.01,2013-10-10 01:18:00,
2013-10-09 21:19:00,59.6,58.2,29.99,North,7,0.0,2.0,95,0.00,,---,0.00,VWS V14.01,2013-10-10 01:19:00,
2013-10-09 21:20:00,59.6,58.2,29.99,North,7,0.0,2.0,95,0.00,,---,0.00,VWS V14.01,2013-10-10 01:20:00,
2013-10-09 21:21:00,59.6,58.2,29.99,North,7,0.0,0.0,95,0.00,,---,0.00,VWS V14.01,2013-10-10 01:21:00,
2013-10-09 21:22:00,59.6,58.2,29.99,North,7,0.0,0.0,95,0.00,,---,0.00,VWS V14.01,2013-10-10 01:22:00,
2013-10-09 21:23:00,59.6,58.2,29.99,North,7,0.0,0.0,95,0.00,,---,0.00,VWS V14.01,2013-10-10 01:23:00,
2013-10-09 21:24:00,59.5,58.4,29.99,North,7,0.0,0.0,96,0.00,,---,0.00,VWS V14.01,2013-10-10 01:24:00,
2013-10-09 21:25:00,59.5,58.4,29.99,North,7,0.0,0.0,96,0.00,,---,0.00,VWS V14.01,2013-10-10 01:25:00,
2013-10-09 21:26:00,59.5,58.4,29.99,North,7,0.0,0.0,96,0.00,,---,0.00,VWS V14.01,2013-10-10 01:26:00,
2013-10-09 21:27:00,59.5,58.4,29.99,North,7,0.0,0.0,96,0.00,,---,0.00,VWS V14.01,2013-10-10 01:27:00,
2013-10-09 21:28:00,59.5,58.4,29.99,WNW,284,0.0,0.0,96,0.00,,---,0.00,VWS V14.01,2013-10-10 01:28:00,
2013-10-09 21:29:00,59.5,58.4,29.99,WNW,284,0.0,0.0,96,0.00,,---,0.00,VWS V14.01,2013-10-10 01:29:00,
2013-10-09 21:30:00,59.3,58.2,29.99,NE,38,0.0,0.0,96,0.00,,---,0.00,VWS V14.01,2013-10-10 01:30:00,
2013-10-09 21:31:00,59.3,58.2,29.99,NE,34,0.0,0.0,96,0.00,,---,0.00,VWS V14.01,2013-10-10 01:31:00,
2013-10-09 21:32:00,59.3,58.2,29.99,NE,35,0.0,0.0,96,0.00,,---,0.00,VWS V14.01,2013-10-10 01:32:00,
2013-10-09 21:33:00,59.3,58.2,29.99,East,88,0.0,0.0,96,0.00,,---,0.00,VWS V14.01,2013-10-10 01:33:00,
2013-10-09 21:34:00,59.3,58.2,29.99,ESE,107,0.0,0.0,96,0.00,,---,0.00,VWS V14.01,2013-10-10 01:34:00,
2013-10-09 21:35:00,59.3,58.2,29.99,ESE,107,0.0,0.0,96,0.00,,---,0.00,VWS V14.01,2013-10-10 01:35:00,
2013-10-09 21:36:00,59.3,58.5,29.99,ESE,107,0.0,0.0,97,0.00,,---,0.00,VWS V14.01,2013-10-10 01:36:00,
2013-10-09 21:37:00,59.3,58.5,29.99,ESE,113,0.0,0.0,97,0.00,,---,0.00,VWS V14.01,2013-10-10 01:37:00,
2013-10-09 21:38:00,59.3,58.2,29.99,NW,304,0.0,3.0,96,0.00,,---,0.00,VWS V14.01,2013-10-10 01:38:00,
2013-10-09 21:39:00,59.2,58.3,29.99,NNW,342,1.0,3.0,97,0.00,,---,0.00,VWS V14.01,2013-10-10 01:39:00,
2013-10-09 21:40:00,59.2,58.3,29.99,North,4,2.0,3.0,97,0.00,,---,0.00,VWS V14.01,2013-10-10 01:40:00,
2013-10-09 21:41:00,59.2,58.3,29.99,NNW,346,0.0,3.0,97,0.00,,---,0.00,VWS V14.01,2013-10-10 01:41:00,
2013-10-09 21:42:00,59.2,58.3,29.99,NNW,346,0.0,3.0,97,0.00,,---,0.00,VWS V14.01,2013-10-10 01:42:00,
2013-10-09 21:43:00,59.2,58.3,29.99,NNW,346,0.0,3.0,97,0.00,,---,0.00,VWS V14.01,2013-10-10 01:43:00,
2013-10-09 21:44:00,59.2,58.3,29.99,NNW,346,0.0,3.0,97,0.00,,---,0.00,VWS V14.01,2013-10-10 01:44:00,
2013-10-09 21:45:00,59.2,58.1,29.99,NNW,346,0.0,3.0,96,0.00,,---,0.00,VWS V14.01,2013-10-10 01:45:00,
2013-10-09 21:46:00,59.2,58.1,29.99,West,267,0.0,6.0,96,0.00,,---,0.00,VWS V14.01,2013-10-10 01:46:00,
2013-10-09 21:47:00,59.2,58.1,29.99,ESE,114,0.0,6.0,96,0.00,,---,0.00,VWS V14.01,2013-10-10 01:47:00,
2013-10-09 21:48:00,59.2,58.1,29.99,NW,306,3.0,6.0,96,0.00,,---,0.00,VWS V14.01,2013-10-10 01:48:00,
2013-10-09 21:49:00,59.2,58.1,29.99,NE,44,1.0,6.0,96,0.00,,---,0.00,VWS V14.01,2013-10-10 01:49:00,
2013-10-09 21:50:00,59.0,57.9,29.99,South,189,0.0,6.0,96,0.00,,---,0.00,VWS V14.01,2013-10-10 01:50:00,
2013-10-09 21:51:00,59.0,57.9,29.99,South,189,0.0,0.0,96,0.00,,---,0.00,VWS V14.01,2013-10-10 01:51:00,
2013-10-09 21:52:00,59.0,57.9,29.99,South,189,0.0,0.0,96,0.00,,---,0.00,VWS V14.01,2013-10-10 01:52:00,
2013-10-09 21:53:00,59.0,57.9,29.99,South,189,0.0,0.0,96,0.00,,---,0.00,VWS V14.01,2013-10-10 01:53:00,
2013-10-09 21:54:00,59.0,57.9,29.99,West,278,0.0,0.0,96,0.00,,---,0.00,VWS V14.01,2013-10-10 01:54:00,
2013-10-09 21:55:00,59.0,57.9,29.99,West,278,0.0,0.0,96,0.00,,---,0.00,VWS V14.01,2013-10-10 01:55:00,
2013-10-09 21:56:00,59.0,57.9,29.99,West,278,0.0,0.0,96,0.00,,---,0.00,VWS V14.01,2013-10-10 01:56:00,
2013-10-09 21:57:00,59.0,57.9,29.99,NW,326,2.0,3.0,96,0.00,,---,0.00,VWS V14.01,2013-10-10 01:57:00,
2013-10-09 21:58:00,59.0,57.9,29.99,NW,326,0.0,3.0,96,0.00,,---,0.00,VWS V14.01,2013-10-10 01:58:00,
2013-10-09 21:59:00,59.0,57.9,29.99,NW,326,0.0,3.0,96,0.00,,---,0.00,VWS V14.01,2013-10-10 01:59:00,
2013-10-09 22:00:00,59.0,57.9,29.99,SSW,199,0.0,3.0,96,0.00,,---,0.00,VWS V14.01,2013-10-10 02:00:00,
2013-10-09 22:01:00,59.0,57.9,29.99,WNW,302,0.0,0.0,96,0.00,,---,0.00,VWS V14.01,2013-10-10 02:01:00,
2013-10-09 22:02:00,59.0,57.9,29.99,WNW,284,0.0,0.0,96,0.00,,---,0.00,VWS V14.01,2013-10-10 02:02:00,
2013-10-09 22:03:00,59.0,57.9,29.99,WNW,284,0.0,0.0,96,0.00,,---,0.00,VWS V14.01,2013-10-10 02:03:00,
2013-10-09 22:04:00,59.0,57.9,29.99,East,92,1.0,2.0,96,0.00,,---,0.00,VWS V14.01,2013-10-10 02:04:00,
2013-10-09 22:05:00,59.0,57.9,29.99,East,92,0.0,2.0,96,0.00,,---,0.00,VWS V14.01,2013-10-10 02:05:00,
2013-10-09 22:06:00,59.0,57.9,29.99,East,92,0.0,2.0,96,0.00,,---,0.00,VWS V14.01,2013-10-10 02:06:00,
2013-10-09 22:07:00,59.0,57.9,29.99,North,354,1.0,3.0,96,0.00,,---,0.00,VWS V14.01,2013-10-10 02:07:00,
2013-10-09 22:08:00,59.0,57.9,29.99,North,354,0.0,3.0,96,0.00,,---,0.00,VWS V14.01,2013-10-10 02:08:00,
2013-10-09 22:09:00,59.0,57.9,29.99,North,354,0.0,3.0,96,0.00,,---,0.00,VWS V14.01,2013-10-10 02:09:00,
2013-10-09 22:10:00,59.0,57.9,29.99,North,354,0.0,3.0,96,0.00,,---,0.00,VWS V14.01,2013-10-10 02:10:00,
2013-10-09 22:11:00,59.0,57.9,29.99,WNW,298,0.0,0.0,96,0.00,,---,0.00,VWS V14.01,2013-10-10 02:11:00,
2013-10-09 22:12:00,59.0,57.9,29.99,WNW,298,0.0,0.0,96,0.00,,---,0.00,VWS V14.01,2013-10-10 02:12:00,
2013-10-09 22:13:00,59.0,57.9,29.99,WNW,298,0.0,0.0,96,0.00,,---,0.00,VWS V14.01,2013-10-10 02:13:00,
2013-10-09 22:14:00,59.0,57.9,29.99,NE,37,0.0,0.0,96,0.00,,---,0.00,VWS V14.01,2013-10-10 02:14:00,
2013-10-09 22:15:00,59.0,57.9,29.99,NE,37,2.0,3.0,96,0.00,,---,0.00,VWS V14.01,2013-10-10 02:15:00,
2013-10-09 22:16:00,59.0,57.9,29.99,NE,42,0.0,3.0,96,0.00,,---,0.00,VWS V14.01,2013-10-10 02:16:00,
2013-10-09 22:17:00,59.0,57.9,29.99,NNW,329,0.0,3.0,96,0.00,,---,0.00,VWS V14.01,2013-10-10 02:17:00,
2013-10-09 22:18:00,59.2,58.1,29.99,NNW,329,0.0,3.0,96,0.00,,---,0.00,VWS V14.01,2013-10-10 02:18:00,
2013-10-09 22:19:00,59.2,57.8,29.99,North,0,3.0,5.0,95,0.00,,---,0.00,VWS V14.01,2013-10-10 02:19:00,
2013-10-09 22:20:00,59.2,57.8,29.99,North,0,0.0,5.0,95,0.00,,---,0.00,VWS V14.01,2013-10-10 02:20:00,
2013-10-09 22:21:00,59.0,57.6,29.99,NNW,340,3.0,3.0,95,0.00,,---,0.00,VWS V14.01,2013-10-10 02:21:00,
2013-10-09 22:22:00,59.0,57.6,29.99,NE,44,4.0,7.0,95,0.00,,---,0.00,VWS V14.01,2013-10-10 02:22:00,
2013-10-09 22:23:00,59.0,57.6,29.99,NE,42,0.0,7.0,95,0.00,,---,0.00,VWS V14.01,2013-10-10 02:23:00,
2013-10-09 22:24:00,59.0,57.6,29.99,NE,52,0.0,7.0,95,0.00,,---,0.00,VWS V14.01,2013-10-10 02:24:00,
2013-10-09 22:25:00,59.0,57.6,29.99,North,356,0.0,7.0,95,0.00,,---,0.00,VWS V14.01,2013-10-10 02:25:00,
2013-10-09 22:26:00,59.0,57.6,29.99,NE,42,2.0,7.0,95,0.00,,---,0.00,VWS V14.01,2013-10-10 02:26:00,
2013-10-09 22:27:00,59.2,57.8,29.99,NE,47,3.0,7.0,95,0.00,,---,0.00,VWS V14.01,2013-10-10 02:27:00,
2013-10-09 22:28:00,59.2,57.8,29.99,North,353,0.0,8.0,95,0.00,,---,0.00,VWS V14.01,2013-10-10 02:28:00,
2013-10-09 22:29:00,59.2,57.8,29.99,North,353,1.0,8.0,95,0.00,,---,0.00,VWS V14.01,2013-10-10 02:29:00,
2013-10-09 22:30:00,59.2,57.8,29.99,North,353,0.0,8.0,95,0.00,,---,0.00,VWS V14.01,2013-10-10 02:30:00,
2013-10-09 22:31:00,59.2,57.8,29.99,NNW,340,2.0,3.0,95,0.00,,---,0.00,VWS V14.01,2013-10-10 02:31:00,
2013-10-09 22:32:00,59.2,57.8,29.99,NW,322,3.0,3.0,95,0.00,,---,0.00,VWS V14.01,2013-10-10 02:32:00,
2013-10-09 22:33:00,59.2,57.8,29.99,NW,309,0.0,4.0,95,0.00,,---,0.00,VWS V14.01,2013-10-10 02:33:00,
2013-10-09 22:34:00,59.0,57.6,29.99,NW,309,0.0,4.0,95,0.00,,---,0.00,VWS V14.01,2013-10-10 02:34:00,
2013-10-09 22:35:00,59.0,57.3,29.99,NW,309,0.0,4.0,94,0.00,,---,0.00,VWS V14.01,2013-10-10 02:35:00,
2013-10-09 22:36:00,59.0,57.3,29.99,NNE,17,2.0,5.0,94,0.00,,---,0.00,VWS V14.01,2013-10-10 02:36:00,
2013-10-09 22:37:00,59.0,57.3,29.99,NNE,17,0.0,5.0,94,0.00,,---,0.00,VWS V14.01,2013-10-10 02:37:00,
2013-10-09 22:38:00,59.2,57.5,29.99,NNE,17,0.0,5.0,94,0.00,,---,0.00,VWS V14.01,2013-10-10 02:38:00,
2013-10-09 22:39:00,59.2,57.5,29.99,NE,44,2.0,5.0,94,0.00,,---,0.00,VWS V14.01,2013-10-10 02:39:00,
2013-10-09 22:40:00,59.2,57.5,29.99,North,357,0.0,5.0,94,0.00,,---,0.00,VWS V14.01,2013-10-10 02:40:00,
2013-10-09 22:41:00,59.2,57.5,29.99,NNE,32,1.0,5.0,94,0.00,,---,0.00,VWS V14.01,2013-10-10 02:41:00,
2013-10-09 22:42:00,59.2,57.5,29.99,NNE,32,2.0,5.0,94,0.00,,---,0.00,VWS V14.01,2013-10-10 02:42:00,
2013-10-09 22:43:00,59.2,57.5,29.99,North,3,1.0,5.0,94,0.00,,---,0.00,VWS V14.01,2013-10-10 02:43:00,
2013-10-09 22:44:00,59.2,57.5,29.99,SE,127,0.0,5.0,94,0.00,,---,0.00,VWS V14.01,2013-10-10 02:44:00,
2013-10-09 22:45:00,59.2,57.5,29.99,SE,127,0.0,5.0,94,0.00,,---,0.00,VWS V14.01,2013-10-10 02:45:00,
2013-10-09 22:46:00,59.2,57.5,29.99,NE,52,0.0,5.0,94,0.00,,---,0.00,VWS V14.01,2013-10-10 02:46:00,
2013-10-09 22:47:00,59.2,57.5,29.99,NE,52,0.0,5.0,94,0.00,,---,0.00,VWS V14.01,2013-10-10 02:47:00,
2013-10-09 22:48:00,59.2,57.5,29.99,West,278,1.0,5.0,94,0.00,,---,0.00,VWS V14.01,2013-10-10 02:48:00,
2013-10-09 22:49:00,59.2,57.5,29.99,West,277,0.0,5.0,94,0.00,,---,0.00,VWS V14.01,2013-10-10 02:49:00,
2013-10-09 22:50:00,59.2,57.5,29.99,West,277,0.0,5.0,94,0.00,,---,0.00,VWS V14.01,2013-10-10 02:50:00,
2013-10-09 22:51:00,59.2,57.5,29.99,North,0,0.0,5.0,94,0.00,,---,0.00,VWS V14.01,2013-10-10 02:51:00,
2013-10-09 22:52:00,59.2,57.5,29.99,North,359,1.0,5.0,94,0.00,,---,0.00,VWS V14.01,2013-10-10 02:52:00,
2013-10-09 22:53:00,59.2,57.5,29.99,North,359,0.0,5.0,94,0.00,,---,0.00,VWS V14.01,2013-10-10 02:53:00,
2013-10-09 22:54:00,59.2,57.5,29.99,North,357,0.0,5.0,94,0.00,,---,0.00,VWS V14.01,2013-10-10 02:54:00,
2013-10-09 22:55:00,59.2,57.5,29.99,NNE,25,4.0,10.0,94,0.00,,---,0.00,VWS V14.01,2013-10-10 02:55:00,
2013-10-09 22:56:00,59.2,57.5,29.99,NNE,24,0.0,10.0,94,0.00,,---,0.00,VWS V14.01,2013-10-10 02:56:00,
2013-10-09 22:57:00,59.2,57.5,29.99,NNE,24,0.0,10.0,94,0.00,,---,0.00,VWS V14.01,2013-10-10 02:57:00,
2013-10-09 22:58:00,59.2,57.2,29.99,NNE,24,0.0,10.0,93,0.00,,---,0.00,VWS V14.01,2013-10-10 02:58:00,
2013-10-09 22:59:00,59.2,57.2,29.99,NNE,24,0.0,10.0,93,0.00,,---,0.00,VWS V14.01,2013-10-10 02:59:00,
2013-10-09 23:00:00,59.2,57.2,29.98,NNE,24,0.0,10.0,93,0.00,,---,0.00,VWS V14.01,2013-10-10 03:00:00,
2013-10-09 23:01:00,59.2,57.5,29.98,NNE,24,0.0,0.0,94,0.00,,---,0.00,VWS V14.01,2013-10-10 03:01:00,
2013-10-09 23:02:00,59.2,57.2,29.98,North,357,8.0,8.0,93,0.00,,---,0.00,VWS V14.01,2013-10-10 03:02:00,
2013-10-09 23:03:00,59.2,57.5,29.98,North,0,0.0,8.0,94,0.00,,---,0.00,VWS V14.01,2013-10-10 03:03:00,
2013-10-09 23:04:00,59.2,57.5,29.98,North,0,0.0,8.0,94,0.00,,---,0.00,VWS V14.01,2013-10-10 03:04:00,
2013-10-09 23:05:00,59.2,57.5,29.98,North,0,0.0,8.0,94,0.00,,---,0.00,VWS V14.01,2013-10-10 03:05:00,
2013-10-09 23:06:00,59.2,57.2,29.98,North,0,0.0,8.0,93,0.00,,---,0.00,VWS V14.01,2013-10-10 03:06:00,
2013-10-09 23:07:00,59.2,57.2,29.98,North,0,0.0,8.0,93,0.00,,---,0.00,VWS V14.01,2013-10-10 03:07:00,
2013-10-09 23:08:00,59.2,57.5,29.98,North,0,0.0,8.0,94,0.00,,---,0.00,VWS V14.01,2013-10-10 03:08:00,
2013-10-09 23:09:00,59.2,57.5,29.98,NNW,332,2.0,8.0,94,0.00,,---,0.00,VWS V14.01,2013-10-10 03:09:00,
2013-10-09 23:10:00,59.2,57.5,29.98,East,80,1.0,8.0,94,0.00,,---,0.00,VWS V14.01,2013-10-10 03:10:00,
2013-10-09 23:11:00,59.2,57.2,29.98,NNW,346,0.0,1.0,93,0.00,,---,0.00,VWS V14.01,2013-10-10 03:11:00,
2013-10-09 23:12:00,59.2,57.2,29.98,NNW,346,0.0,1.0,93,0.00,,---,0.00,VWS V14.01,2013-10-10 03:12:00,
2013-10-09 23:13:00,59.2,57.5,29.98,North,349,0.0,1.0,94,0.00,,---,0.00,VWS V14.01,2013-10-10 03:13:00,
2013-10-09 23:14:00,59.2,57.5,29.98,North,349,0.0,1.0,94,0.00,,---,0.00,VWS V14.01,2013-10-10 03:14:00,
2013-10-09 23:15:00,59.2,57.2,29.98,North,349,0.0,1.0,93,0.00,,---,0.00,VWS V14.01,2013-10-10 03:15:00,
2013-10-09 23:16:00,59.2,57.2,29.98,NNW,339,0.0,2.0,93,0.00,,---,0.00,VWS V14.01,2013-10-10 03:16:00,
2013-10-09 23:17:00,59.2,57.2,29.98,NNW,339,0.0,3.0,93,0.00,,---,0.00,VWS V14.01,2013-10-10 03:17:00,
2013-10-09 23:18:00,59.2,57.2,29.98,NNW,339,0.0,3.0,93,0.00,,---,0.00,VWS V14.01,2013-10-10 03:18:00,
2013-10-09 23:19:00,59.2,57.2,29.98,NNW,339,0.0,3.0,93,0.00,,---,0.00,VWS V14.01,2013-10-10 03:19:00,
2013-10-09 23:20:00,59.2,57.2,29.98,North,11,0.0,6.0,93,0.00,,---,0.00,VWS V14.01,2013-10-10 03:20:00,
2013-10-09 23:21:00,59.2,57.2,29.98,North,11,0.0,0.0,93,0.00,,---,0.00,VWS V14.01,2013-10-10 03:21:00,
2013-10-09 23:22:00,59.2,57.5,29.98,East,99,0.0,0.0,94,0.00,,---,0.00,VWS V14.01,2013-10-10 03:22:00,
2013-10-09 23:23:00,59.0,57.0,29.98,ESE,102,0.0,0.0,93,0.00,,---,0.00,VWS V14.01,2013-10-10 03:23:00,
2013-10-09 23:24:00,59.0,57.0,29.98,East,90,2.0,3.0,93,0.00,,---,0.00,VWS V14.01,2013-10-10 03:24:00,
2013-10-09 23:25:00,59.0,57.0,29.98,North,0,1.0,3.0,93,0.00,,---,0.00,VWS V14.01,2013-10-10 03:25:00,
2013-10-09 23:26:00,59.0,57.0,29.98,North,0,0.0,3.0,93,0.00,,---,0.00,VWS V14.01,2013-10-10 03:26:00,
2013-10-09 23:27:00,59.0,57.0,29.98,SW,215,1.0,3.0,93,0.00,,---,0.00,VWS V14.01,2013-10-10 03:27:00,
2013-10-09 23:28:00,59.0,57.0,29.98,NNE,32,2.0,3.0,93,0.00,,---,0.00,VWS V14.01,2013-10-10 03:28:00,
2013-10-09 23:29:00,59.0,57.3,29.98,NNE,32,0.0,3.0,94,0.00,,---,0.00,VWS V14.01,2013-10-10 03:29:00,
2013-10-09 23:30:00,59.0,57.0,29.98,WNW,287,2.0,3.0,93,0.00,,---,0.00,VWS V14.01,2013-10-10 03:30:00,
2013-10-09 23:31:00,59.0,57.0,29.98,NE,41,3.0,3.0,93,0.00,,---,0.00,VWS V14.01,2013-10-10 03:31:00,
2013-10-09 23:32:00,59.0,57.0,29.98,NE,41,0.0,3.0,93,0.00,,---,0.00,VWS V14.01,2013-10-10 03:32:00,
2013-10-09 23:33:00,59.0,57.3,29.98,North,353,0.0,3.0,94,0.00,,---,0.00,VWS V14.01,2013-10-10 03:33:00,
2013-10-09 23:34:00,59.0,57.3,29.98,North,359,1.0,8.0,94,0.00,,---,0.00,VWS V14.01,2013-10-10 03:34:00,
2013-10-09 23:35:00,59.0,57.3,29.98,North,359,0.0,8.0,94,0.00,,---,0.00,VWS V14.01,2013-10-10 03:35:00,
2013-10-09 23:36:00,59.0,57.3,29.98,North,359,0.0,8.0,94,0.00,,---,0.00,VWS V14.01,2013-10-10 03:36:00,
2013-10-09 23:37:00,59.0,57.0,29.98,North,359,0.0,8.0,93,0.00,,---,0.00,VWS V14.01,2013-10-10 03:37:00,
2013-10-09 23:38:00,59.0,57.0,29.98,North,359,0.0,8.0,93,0.00,,---,0.00,VWS V14.01,2013-10-10 03:38:00,
2013-10-09 23:39:00,59.0,57.0,29.98,North,359,0.0,8.0,93,0.00,,---,0.00,VWS V14.01,2013-10-10 03:39:00,
2013-10-09 23:40:00,59.0,57.3,29.98,North,359,0.0,8.0,94,0.00,,---,0.00,VWS V14.01,2013-10-10 03:40:00,
2013-10-09 23:41:00,59.0,57.0,29.98,North,359,0.0,1.0,93,0.00,,---,0.00,VWS V14.01,2013-10-10 03:41:00,
2013-10-09 23:42:00,59.0,57.0,29.98,North,357,0.0,1.0,93,0.00,,---,0.00,VWS V14.01,2013-10-10 03:42:00,
2013-10-09 23:43:00,59.0,57.0,29.98,East,96,1.0,2.0,93,0.00,,---,0.00,VWS V14.01,2013-10-10 03:43:00,
2013-10-09 23:44:00,59.0,57.0,29.98,NW,312,0.0,3.0,93,0.00,,---,0.00,VWS V14.01,2013-10-10 03:44:00,
2013-10-09 23:45:00,59.0,57.3,29.98,NNE,18,0.0,3.0,94,0.00,,---,0.00,VWS V14.01,2013-10-10 03:45:00,
2013-10-09 23:46:00,59.0,57.3,29.98,NNE,18,0.0,3.0,94,0.00,,---,0.00,VWS V14.01,2013-10-10 03:46:00,
2013-10-09 23:47:00,58.9,56.9,29.98,WNW,294,1.0,3.0,93,0.00,,---,0.00,VWS V14.01,2013-10-10 03:47:00,
2013-10-09 23:48:00,58.9,56.9,29.98,WNW,294,0.0,3.0,93,0.00,,---,0.00,VWS V14.01,2013-10-10 03:48:00,
2013-10-09 23:49:00,58.9,56.9,29.98,NE,55,0.0,3.0,93,0.00,,---,0.00,VWS V14.01,2013-10-10 03:49:00,
2013-10-09 23:50:00,58.9,56.9,29.98,NE,55,0.0,3.0,93,0.00,,---,0.00,VWS V14.01,2013-10-10 03:50:00,
2013-10-09 23:51:00,58.9,56.9,29.98,WNW,298,0.0,3.0,93,0.00,,---,0.00,VWS V14.01,2013-10-10 03:51:00,
2013-10-09 23:52:00,58.9,56.9,29.98,WNW,298,0.0,3.0,93,0.00,,---,0.00,VWS V14.01,2013-10-10 03:52:00,
2013-10-09 23:53:00,58.9,56.9,29.98,WNW,298,0.0,3.0,93,0.00,,---,0.00,VWS V14.01,2013-10-10 03:53:00,
2013-10-09 23:54:00,58.9,56.9,29.98,WNW,298,0.0,3.0,93,0.00,,---,0.00,VWS V14.01,2013-10-10 03:54:00,
2013-10-09 23:55:00,58.9,56.9,29.98,North,359,0.0,3.0,93,0.00,,---,0.00,VWS V14.01,2013-10-10 03:55:00,
2013-10-09 23:56:00,58.9,56.9,29.98,North,357,0.0,3.0,93,0.00,,---,0.00,VWS V14.01,2013-10-10 03:56:00,
2013-10-09 23:57:00,58.9,56.9,29.98,North,359,0.0,3.0,93,0.00,,---,0.00,VWS V14.01,2013-10-10 03:57:00,
2013-10-09 23:58:00,58.9,56.9,29.98,ENE,58,3.0,6.0,93,0.00,,---,0.00,VWS V14.01,2013-10-10 03:58:00,
2013-10-09 23:59:00,58.9,56.9,29.98,North,7,0.0,6.0,93,0.00,,---,0.00,VWS V14.01,2013-10-10 03:59:00,